Wetterdaten: Mittwoch, 27.09.2017
Datum Zeit Temp. A. Pool Temp. Feuchte A. Luftdruck Regen Wind Richtung Richtung Sonnenschein ET UV Solar Taupunkt Windchill Windben Empfang
27.09.2017 00:00 13,4 C 13,3 C 87 % 1022,0 hPa 0,0 l/m 9,0 km/h (2 Bft) NO 51 0 min 0,000 mm 0,0 UV-I 0 W/m 11,3 C 11,9 C 14,5 km/h (3 Bft) 98,00 %
27.09.2017 00:02 13,3 C 13,3 C 87 % 1022,0 hPa 0,0 l/m 9,6 km/h (2 Bft) O-NO 73 0 min 0,000 mm 0,0 UV-I 0 W/m 11,2 C 11,4 C 14,5 km/h (3 Bft) 97,44 %
27.09.2017 00:04 13,3 C 13,3 C 87 % 1022,0 hPa 0,0 l/m 9,0 km/h (2 Bft) N-NO 32 0 min 0,000 mm 0,0 UV-I 0 W/m 11,2 C 11,8 C 14,5 km/h (3 Bft) 97,73 %
27.09.2017 00:06 13,3 C 13,3 C 87 % 1022,0 hPa 0,0 l/m 8,0 km/h (2 Bft) O 88 0 min 0,000 mm 0,0 UV-I 0 W/m 11,2 C 12,3 C 11,3 km/h (2 Bft) 95,92 %
27.09.2017 00:08 13,3 C 13,3 C 88 % 1022,0 hPa 0,0 l/m 9,0 km/h (2 Bft) O-NO 70 0 min 0,000 mm 0,0 UV-I 0 W/m 11,4 C 11,8 C 14,5 km/h (3 Bft) 98,08 %
27.09.2017 00:10 13,3 C 13,3 C 88 % 1022,0 hPa 0,0 l/m 8,5 km/h (2 Bft) O-NO 74 0 min 0,000 mm 0,0 UV-I 0 W/m 11,4 C 12,0 C 12,9 km/h (3 Bft) 97,87 %
27.09.2017 00:12 13,3 C 13,3 C 88 % 1022,0 hPa 0,0 l/m 10,6 km/h (2 Bft) O 86 0 min 0,000 mm 0,0 UV-I 0 W/m 11,4 C 10,9 C 16,1 km/h (3 Bft) 97,44 %
27.09.2017 00:14 13,3 C 13,3 C 88 % 1022,0 hPa 0,0 l/m 8,5 km/h (2 Bft) O-NO 61 0 min 0,000 mm 0,0 UV-I 0 W/m 11,4 C 12,0 C 16,1 km/h (3 Bft) 94,00 %
27.09.2017 00:16 13,3 C 13,3 C 88 % 1022,0 hPa 0,0 l/m 8,3 km/h (2 Bft) O 82 0 min 0,000 mm 0,0 UV-I 0 W/m 11,4 C 12,1 C 16,1 km/h (3 Bft) 97,56 %
27.09.2017 00:18 13,3 C 13,3 C 88 % 1022,0 hPa 0,0 l/m 8,1 km/h (2 Bft) O-NO 63 0 min 0,000 mm 0,0 UV-I 0 W/m 11,4 C 12,3 C 12,9 km/h (3 Bft) 96,30 %
27.09.2017 00:20 13,2 C 13,3 C 88 % 1022,0 hPa 0,0 l/m 11,4 km/h (2 Bft) O-NO 60 0 min 0,000 mm 0,0 UV-I 0 W/m 11,3 C 10,5 C 17,7 km/h (3 Bft) 100,00 %
27.09.2017 00:22 13,3 C 13,3 C 88 % 1022,0 hPa 0,0 l/m 11,1 km/h (2 Bft) O-NO 68 0 min 0,000 mm 0,0 UV-I 0 W/m 11,4 C 10,7 C 14,5 km/h (3 Bft) 97,87 %
27.09.2017 00:24 13,2 C 13,3 C 88 % 1022,0 hPa 0,0 l/m 10,9 km/h (2 Bft) O-NO 73 0 min 0,000 mm 0,0 UV-I 0 W/m 11,3 C 10,7 C 16,1 km/h (3 Bft) 97,87 %
27.09.2017 00:26 13,2 C 13,3 C 88 % 1021,9 hPa 0,0 l/m 10,3 km/h (2 Bft) O-NO 69 0 min 0,000 mm 0,0 UV-I 0 W/m 11,3 C 11,0 C 16,1 km/h (3 Bft) 98,00 %
27.09.2017 00:28 13,3 C 13,3 C 88 % 1022,0 hPa 0,0 l/m 9,5 km/h (2 Bft) NO 53 0 min 0,000 mm 0,0 UV-I 0 W/m 11,4 C 11,5 C 17,7 km/h (3 Bft) 96,23 %
27.09.2017 00:30 13,2 C 13,3 C 88 % 1021,9 hPa 0,0 l/m 10,8 km/h (2 Bft) O-NO 65 0 min 0,000 mm 0,0 UV-I 0 W/m 11,3 C 10,7 C 17,7 km/h (3 Bft) 97,56 %
27.09.2017 00:32 13,2 C 13,3 C 88 % 1021,9 hPa 0,0 l/m 11,3 km/h (2 Bft) O-NO 64 0 min 0,000 mm 0,0 UV-I 0 W/m 11,3 C 10,5 C 16,1 km/h (3 Bft) 92,59 %
27.09.2017 00:34 13,2 C 13,3 C 88 % 1021,9 hPa 0,0 l/m 11,0 km/h (2 Bft) O-NO 76 0 min 0,000 mm 0,0 UV-I 0 W/m 11,3 C 10,6 C 17,7 km/h (3 Bft) 98,51 %
27.09.2017 00:36 13,2 C 13,3 C 88 % 1021,9 hPa 0,0 l/m 14,3 km/h (3 Bft) O-NO 74 0 min 0,000 mm 0,0 UV-I 0 W/m 11,3 C 9,3 C 20,9 km/h (4 Bft) 97,37 %
27.09.2017 00:38 13,1 C 13,3 C 88 % 1021,9 hPa 0,0 l/m 8,5 km/h (2 Bft) O-NO 59 0 min 0,000 mm 0,0 UV-I 0 W/m 11,2 C 11,8 C 12,9 km/h (3 Bft) 98,00 %
27.09.2017 00:40 13,1 C 13,3 C 88 % 1022,0 hPa 0,0 l/m 8,3 km/h (2 Bft) O 80 0 min 0,000 mm 0,0 UV-I 0 W/m 11,2 C 11,9 C 16,1 km/h (3 Bft) 96,00 %
27.09.2017 00:42 13,1 C 13,3 C 88 % 1022,0 hPa 0,0 l/m 11,9 km/h (2 Bft) O-NO 69 0 min 0,000 mm 0,0 UV-I 0 W/m 11,2 C 10,1 C 17,7 km/h (3 Bft) 98,00 %
27.09.2017 00:44 13,0 C 13,3 C 88 % 1021,9 hPa 0,0 l/m 10,6 km/h (2 Bft) O-NO 75 0 min 0,000 mm 0,0 UV-I 0 W/m 11,1 C 10,6 C 17,7 km/h (3 Bft) 95,12 %
27.09.2017 00:46 13,0 C 13,3 C 89 % 1021,9 hPa 0,0 l/m 10,8 km/h (2 Bft) O-NO 76 0 min 0,000 mm 0,0 UV-I 0 W/m 11,2 C 10,5 C 14,5 km/h (3 Bft) 96,23 %
27.09.2017 00:48 12,9 C 13,3 C 89 % 1021,9 hPa 0,0 l/m 9,8 km/h (2 Bft) NO 42 0 min 0,000 mm 0,0 UV-I 0 W/m 11,1 C 10,9 C 17,7 km/h (3 Bft) 97,62 %
27.09.2017 00:50 12,9 C 13,3 C 89 % 1021,9 hPa 0,0 l/m 9,3 km/h (2 Bft) O-NO 76 0 min 0,000 mm 0,0 UV-I 0 W/m 11,1 C 11,2 C 12,9 km/h (3 Bft) 96,23 %
27.09.2017 00:52 12,9 C 13,3 C 89 % 1021,9 hPa 0,0 l/m 13,8 km/h (3 Bft) O-NO 73 0 min 0,000 mm 0,0 UV-I 0 W/m 11,1 C 9,1 C 17,7 km/h (3 Bft) 100,00 %
27.09.2017 00:54 12,9 C 13,3 C 89 % 1021,9 hPa 0,0 l/m 12,6 km/h (3 Bft) O-NO 61 0 min 0,000 mm 0,0 UV-I 0 W/m 11,1 C 9,6 C 19,3 km/h (3 Bft) 95,45 %
27.09.2017 00:56 12,9 C 13,3 C 89 % 1021,9 hPa 0,0 l/m 9,8 km/h (2 Bft) O 85 0 min 0,000 mm 0,0 UV-I 0 W/m 11,1 C 10,9 C 14,5 km/h (3 Bft) 96,43 %
27.09.2017 00:58 12,9 C 13,3 C 89 % 1021,9 hPa 0,0 l/m 10,1 km/h (2 Bft) O-NO 76 0 min 0,000 mm 0,0 UV-I 0 W/m 11,1 C 10,7 C 19,3 km/h (3 Bft) 97,37 %
27.09.2017 01:00 12,9 C 13,3 C 89 % 1021,9 hPa 0,0 l/m 13,4 km/h (3 Bft) O-NO 71 0 min 0,025 mm 0,0 UV-I 0 W/m 11,1 C 9,3 C 19,3 km/h (3 Bft) 98,21 %
27.09.2017 01:02 12,9 C 13,3 C 89 % 1021,9 hPa 0,0 l/m 13,2 km/h (3 Bft) O-NO 76 0 min 0,000 mm 0,0 UV-I 0 W/m 11,1 C 9,3 C 17,7 km/h (3 Bft) 88,46 %
27.09.2017 01:04 12,9 C 13,3 C 89 % 1021,9 hPa 0,0 l/m 11,0 km/h (2 Bft) O-NO 62 0 min 0,000 mm 0,0 UV-I 0 W/m 11,1 C 10,3 C 16,1 km/h (3 Bft) 98,53 %
27.09.2017 01:06 12,9 C 13,3 C 89 % 1021,9 hPa 0,0 l/m 11,6 km/h (2 Bft) O 84 0 min 0,000 mm 0,0 UV-I 0 W/m 11,1 C 10,0 C 17,7 km/h (3 Bft) 97,87 %
27.09.2017 01:08 12,9 C 13,3 C 89 % 1021,9 hPa 0,0 l/m 9,9 km/h (2 Bft) O 80 0 min 0,000 mm 0,0 UV-I 0 W/m 11,1 C 10,8 C 16,1 km/h (3 Bft) 97,87 %
27.09.2017 01:10 12,8 C 13,3 C 89 % 1021,9 hPa 0,0 l/m 13,3 km/h (3 Bft) O-NO 71 0 min 0,000 mm 0,0 UV-I 0 W/m 11,0 C 9,2 C 22,5 km/h (4 Bft) 97,87 %
27.09.2017 01:12 12,8 C 13,3 C 89 % 1021,8 hPa 0,0 l/m 9,5 km/h (2 Bft) O-NO 76 0 min 0,000 mm 0,0 UV-I 0 W/m 11,0 C 10,9 C 14,5 km/h (3 Bft) 98,00 %
27.09.2017 01:14 12,8 C 13,3 C 89 % 1021,9 hPa 0,0 l/m 10,4 km/h (2 Bft) O-NO 78 0 min 0,000 mm 0,0 UV-I 0 W/m 11,0 C 10,5 C 17,7 km/h (3 Bft) 97,37 %
27.09.2017 01:16 12,8 C 13,3 C 89 % 1021,9 hPa 0,0 l/m 8,1 km/h (2 Bft) O-NO 66 0 min 0,000 mm 0,0 UV-I 0 W/m 11,0 C 11,7 C 12,9 km/h (3 Bft) 100,00 %
27.09.2017 01:18 12,8 C 13,3 C 89 % 1021,9 hPa 0,0 l/m 9,6 km/h (2 Bft) O 82 0 min 0,000 mm 0,0 UV-I 0 W/m 11,0 C 10,9 C 14,5 km/h (3 Bft) 100,00 %
27.09.2017 01:20 12,8 C 13,3 C 89 % 1021,9 hPa 0,0 l/m 7,8 km/h (2 Bft) O 101 0 min 0,000 mm 0,0 UV-I 0 W/m 11,0 C 11,9 C 12,9 km/h (3 Bft) 100,00 %
27.09.2017 01:22 12,8 C 13,3 C 89 % 1021,8 hPa 0,0 l/m 13,9 km/h (3 Bft) O-NO 69 0 min 0,000 mm 0,0 UV-I 0 W/m 11,0 C 8,9 C 19,3 km/h (3 Bft) 98,15 %
27.09.2017 01:24 12,8 C 13,3 C 89 % 1021,9 hPa 0,0 l/m 11,2 km/h (2 Bft) O-NO 61 0 min 0,000 mm 0,0 UV-I 0 W/m 11,0 C 10,1 C 16,1 km/h (3 Bft) 97,87 %
27.09.2017 01:26 12,7 C 13,3 C 89 % 1021,9 hPa 0,0 l/m 13,6 km/h (3 Bft) NO 51 0 min 0,000 mm 0,0 UV-I 0 W/m 10,9 C 8,9 C 25,7 km/h (4 Bft) 100,00 %
27.09.2017 01:28 12,8 C 13,3 C 90 % 1021,9 hPa 0,0 l/m 12,4 km/h (3 Bft) O 87 0 min 0,000 mm 0,0 UV-I 0 W/m 11,2 C 9,6 C 19,3 km/h (3 Bft) 100,00 %
27.09.2017 01:30 12,7 C 13,3 C 90 % 1021,9 hPa 0,0 l/m 14,0 km/h (3 Bft) O-NO 71 0 min 0,000 mm 0,0 UV-I 0 W/m 11,1 C 8,8 C 20,9 km/h (4 Bft) 95,52 %
27.09.2017 01:32 12,7 C 13,3 C 90 % 1021,9 hPa 0,0 l/m 10,2 km/h (2 Bft) O-NO 63 0 min 0,000 mm 0,0 UV-I 0 W/m 11,1 C 10,5 C 14,5 km/h (3 Bft) 97,67 %
27.09.2017 01:34 12,7 C 13,3 C 90 % 1021,9 hPa 0,0 l/m 11,7 km/h (2 Bft) O-NO 70 0 min 0,000 mm 0,0 UV-I 0 W/m 11,1 C 9,8 C 19,3 km/h (3 Bft) 98,00 %
27.09.2017 01:36 12,7 C 13,3 C 90 % 1021,9 hPa 0,0 l/m 9,7 km/h (2 Bft) O-NO 68 0 min 0,000 mm 0,0 UV-I 0 W/m 11,1 C 10,7 C 16,1 km/h (3 Bft) 100,00 %
27.09.2017 01:38 12,6 C 13,3 C 90 % 1021,9 hPa 0,0 l/m 9,8 km/h (2 Bft) O-NO 59 0 min 0,000 mm 0,0 UV-I 0 W/m 11,0 C 10,6 C 14,5 km/h (3 Bft) 94,74 %
27.09.2017 01:40 12,6 C 13,3 C 90 % 1021,9 hPa 0,0 l/m 9,2 km/h (2 Bft) O 80 0 min 0,000 mm 0,0 UV-I 0 W/m 11,0 C 10,9 C 14,5 km/h (3 Bft) 100,00 %
27.09.2017 01:42 12,6 C 13,3 C 90 % 1021,9 hPa 0,0 l/m 10,4 km/h (2 Bft) O 80 0 min 0,000 mm 0,0 UV-I 0 W/m 11,0 C 10,3 C 14,5 km/h (3 Bft) 100,00 %
27.09.2017 01:44 12,6 C 13,3 C 90 % 1021,9 hPa 0,0 l/m 12,3 km/h (3 Bft) O 86 0 min 0,000 mm 0,0 UV-I 0 W/m 11,0 C 9,4 C 19,3 km/h (3 Bft) 100,00 %
27.09.2017 01:46 12,6 C 13,3 C 90 % 1021,9 hPa 0,0 l/m 10,4 km/h (2 Bft) O-NO 78 0 min 0,000 mm 0,0 UV-I 0 W/m 11,0 C 10,3 C 16,1 km/h (3 Bft) 100,00 %
27.09.2017 01:48 12,6 C 13,3 C 90 % 1021,9 hPa 0,0 l/m 10,9 km/h (2 Bft) O-NO 77 0 min 0,000 mm 0,0 UV-I 0 W/m 11,0 C 10,0 C 16,1 km/h (3 Bft) 100,00 %
27.09.2017 01:50 12,6 C 13,3 C 90 % 1021,9 hPa 0,0 l/m 8,9 km/h (2 Bft) O-NO 63 0 min 0,000 mm 0,0 UV-I 0 W/m 11,0 C 11,1 C 16,1 km/h (3 Bft) 100,00 %
27.09.2017 01:52 12,5 C 13,3 C 90 % 1021,9 hPa 0,0 l/m 8,8 km/h (2 Bft) O 90 0 min 0,000 mm 0,0 UV-I 0 W/m 10,9 C 11,0 C 12,9 km/h (3 Bft) 100,00 %
27.09.2017 01:54 12,5 C 13,3 C 90 % 1021,9 hPa 0,0 l/m 10,9 km/h (2 Bft) O-NO 76 0 min 0,000 mm 0,0 UV-I 0 W/m 10,9 C 9,9 C 16,1 km/h (3 Bft) 100,00 %
27.09.2017 01:56 12,5 C 13,3 C 90 % 1021,9 hPa 0,0 l/m 11,1 km/h (2 Bft) O-NO 57 0 min 0,000 mm 0,0 UV-I 0 W/m 10,9 C 9,8 C 17,7 km/h (3 Bft) 97,56 %
27.09.2017 01:58 12,4 C 13,3 C 90 % 1021,9 hPa 0,0 l/m 9,6 km/h (2 Bft) O 88 0 min 0,000 mm 0,0 UV-I 0 W/m 10,8 C 10,5 C 12,9 km/h (3 Bft) 100,00 %
27.09.2017 02:00 12,4 C 13,3 C 90 % 1021,8 hPa 0,0 l/m 11,3 km/h (2 Bft) O-NO 78 0 min 0,026 mm 0,0 UV-I 0 W/m 10,8 C 9,6 C 16,1 km/h (3 Bft) 100,00 %
27.09.2017 02:02 12,5 C 13,3 C 90 % 1021,8 hPa 0,0 l/m 7,8 km/h (2 Bft) O-NO 71 0 min 0,000 mm 0,0 UV-I 0 W/m 10,9 C 11,6 C 12,9 km/h (3 Bft) 100,00 %
27.09.2017 02:04 12,5 C 13,3 C 90 % 1021,8 hPa 0,0 l/m 6,8 km/h (2 Bft) O-NO 78 0 min 0,000 mm 0,0 UV-I 0 W/m 10,9 C 12,2 C 11,3 km/h (2 Bft) 100,00 %
27.09.2017 02:06 12,4 C 13,3 C 90 % 1021,8 hPa 0,0 l/m 5,8 km/h (2 Bft) O-NO 64 0 min 0,000 mm 0,0 UV-I 0 W/m 10,8 C 12,4 C 11,3 km/h (2 Bft) 100,00 %
27.09.2017 02:08 12,4 C 13,3 C 90 % 1021,9 hPa 0,0 l/m 5,2 km/h (1 Bft) O-NO 59 0 min 0,000 mm 0,0 UV-I 0 W/m 10,8 C 12,4 C 8,0 km/h (2 Bft) 100,00 %
27.09.2017 02:10 12,4 C 13,3 C 90 % 1021,8 hPa 0,0 l/m 4,5 km/h (1 Bft) O-NO 64 0 min 0,000 mm 0,0 UV-I 0 W/m 10,8 C 12,4 C 6,4 km/h (2 Bft) 100,00 %
27.09.2017 02:12 12,4 C 13,3 C 90 % 1021,8 hPa 0,0 l/m 5,5 km/h (1 Bft) O-NO 61 0 min 0,000 mm 0,0 UV-I 0 W/m 10,8 C 12,4 C 8,0 km/h (2 Bft) 100,00 %
27.09.2017 02:14 12,3 C 13,3 C 90 % 1021,9 hPa 0,0 l/m 4,5 km/h (1 Bft) NO 55 0 min 0,000 mm 0,0 UV-I 0 W/m 10,7 C 12,3 C 6,4 km/h (2 Bft) 100,00 %
27.09.2017 02:16 12,3 C 13,3 C 90 % 1021,9 hPa 0,0 l/m 7,8 km/h (2 Bft) O-NO 74 0 min 0,000 mm 0,0 UV-I 0 W/m 10,7 C 11,4 C 12,9 km/h (3 Bft) 100,00 %
27.09.2017 02:18 12,3 C 13,3 C 90 % 1021,8 hPa 0,0 l/m 6,4 km/h (2 Bft) O-NO 63 0 min 0,000 mm 0,0 UV-I 0 W/m 10,7 C 12,3 C 9,7 km/h (2 Bft) 100,00 %
27.09.2017 02:20 12,2 C 13,3 C 91 % 1021,8 hPa 0,0 l/m 7,8 km/h (2 Bft) O 80 0 min 0,000 mm 0,0 UV-I 0 W/m 10,8 C 11,3 C 11,3 km/h (2 Bft) 100,00 %
27.09.2017 02:22 12,3 C 13,3 C 91 % 1021,8 hPa 0,0 l/m 6,7 km/h (2 Bft) O-NO 71 0 min 0,000 mm 0,0 UV-I 0 W/m 10,9 C 12,1 C 11,3 km/h (2 Bft) 100,00 %
27.09.2017 02:24 12,3 C 13,3 C 91 % 1021,8 hPa 0,0 l/m 5,4 km/h (1 Bft) O 88 0 min 0,000 mm 0,0 UV-I 0 W/m 10,9 C 12,3 C 8,0 km/h (2 Bft) 100,00 %
27.09.2017 02:26 12,3 C 13,3 C 91 % 1021,8 hPa 0,0 l/m 5,8 km/h (2 Bft) O-NO 71 0 min 0,000 mm 0,0 UV-I 0 W/m 10,9 C 12,3 C 8,0 km/h (2 Bft) 100,00 %
27.09.2017 02:28 12,3 C 13,3 C 91 % 1021,8 hPa 0,0 l/m 6,3 km/h (2 Bft) O-NO 57 0 min 0,000 mm 0,0 UV-I 0 W/m 10,9 C 12,3 C 9,7 km/h (2 Bft) 100,00 %
27.09.2017 02:30 12,3 C 13,3 C 91 % 1021,7 hPa 0,0 l/m 5,7 km/h (1 Bft) NO 54 0 min 0,000 mm 0,0 UV-I 0 W/m 10,9 C 12,3 C 8,0 km/h (2 Bft) 100,00 %
27.09.2017 02:32 12,3 C 13,3 C 91 % 1021,7 hPa 0,0 l/m 6,7 km/h (2 Bft) O-NO 77 0 min 0,000 mm 0,0 UV-I 0 W/m 10,9 C 12,1 C 9,7 km/h (2 Bft) 100,00 %
27.09.2017 02:34 12,3 C 13,3 C 91 % 1021,7 hPa 0,0 l/m 6,4 km/h (2 Bft) O-NO 61 0 min 0,000 mm 0,0 UV-I 0 W/m 10,9 C 12,3 C 8,0 km/h (2 Bft) 100,00 %
27.09.2017 02:36 12,3 C 13,3 C 91 % 1021,7 hPa 0,0 l/m 7,4 km/h (2 Bft) O-NO 57 0 min 0,000 mm 0,0 UV-I 0 W/m 10,9 C 11,6 C 11,3 km/h (2 Bft) 100,00 %
27.09.2017 02:38 12,3 C 13,3 C 91 % 1021,7 hPa 0,0 l/m 7,7 km/h (2 Bft) O 96 0 min 0,000 mm 0,0 UV-I 0 W/m 10,9 C 11,5 C 12,9 km/h (3 Bft) 97,56 %
27.09.2017 02:40 12,3 C 13,3 C 91 % 1021,7 hPa 0,0 l/m 7,9 km/h (2 Bft) NO 50 0 min 0,000 mm 0,0 UV-I 0 W/m 10,9 C 11,3 C 9,7 km/h (2 Bft) 98,11 %
27.09.2017 02:42 12,3 C 13,3 C 91 % 1021,6 hPa 0,0 l/m 7,6 km/h (2 Bft) O 80 0 min 0,000 mm 0,0 UV-I 0 W/m 10,9 C 11,5 C 11,3 km/h (2 Bft) 97,73 %
27.09.2017 02:44 12,4 C 13,3 C 91 % 1021,6 hPa 0,0 l/m 10,1 km/h (2 Bft) O-NO 57 0 min 0,000 mm 0,0 UV-I 0 W/m 11,0 C 10,2 C 16,1 km/h (3 Bft) 100,00 %
27.09.2017 02:46 12,4 C 13,3 C 91 % 1021,6 hPa 0,0 l/m 8,4 km/h (2 Bft) O-NO 67 0 min 0,000 mm 0,0 UV-I 0 W/m 11,0 C 11,1 C 16,1 km/h (3 Bft) 95,12 %
27.09.2017 02:48 12,4 C 13,3 C 91 % 1021,6 hPa 0,0 l/m 9,7 km/h (2 Bft) O-NO 63 0 min 0,000 mm 0,0 UV-I 0 W/m 11,0 C 10,4 C 14,5 km/h (3 Bft) 98,00 %
27.09.2017 02:50 12,4 C 13,3 C 91 % 1021,6 hPa 0,0 l/m 9,9 km/h (2 Bft) O-NO 65 0 min 0,000 mm 0,0 UV-I 0 W/m 11,0 C 10,3 C 14,5 km/h (3 Bft) 97,87 %
27.09.2017 02:52 12,4 C 13,3 C 91 % 1021,6 hPa 0,0 l/m 7,5 km/h (2 Bft) O 95 0 min 0,000 mm 0,0 UV-I 0 W/m 11,0 C 11,7 C 12,9 km/h (3 Bft) 97,87 %
27.09.2017 02:54 12,5 C 13,3 C 91 % 1021,6 hPa 0,0 l/m 7,1 km/h (2 Bft) O-NO 77 0 min 0,000 mm 0,0 UV-I 0 W/m 11,1 C 12,0 C 12,9 km/h (3 Bft) 96,00 %
27.09.2017 02:56 12,5 C 13,3 C 91 % 1021,6 hPa 0,0 l/m 9,3 km/h (2 Bft) O-NO 76 0 min 0,000 mm 0,0 UV-I 0 W/m 11,1 C 10,7 C 14,5 km/h (3 Bft) 97,73 %
27.09.2017 02:58 12,6 C 13,3 C 91 % 1021,6 hPa 0,0 l/m 10,4 km/h (2 Bft) O-NO 74 0 min 0,000 mm 0,0 UV-I 0 W/m 11,2 C 10,3 C 14,5 km/h (3 Bft) 97,37 %
27.09.2017 03:00 12,6 C 13,3 C 91 % 1021,6 hPa 0,0 l/m 6,6 km/h (2 Bft) O-NO 76 0 min 0,000 mm 0,0 UV-I 0 W/m 11,2 C 12,5 C 11,3 km/h (2 Bft) 98,31 %
27.09.2017 03:02 12,6 C 13,3 C 91 % 1021,6 hPa 0,0 l/m 6,7 km/h (2 Bft) O-NO 66 0 min 0,000 mm 0,0 UV-I 0 W/m 11,2 C 12,4 C 9,7 km/h (2 Bft) 95,74 %
27.09.2017 03:04 12,6 C 13,3 C 91 % 1021,6 hPa 0,0 l/m 7,1 km/h (2 Bft) O 80 0 min 0,000 mm 0,0 UV-I 0 W/m 11,2 C 12,2 C 11,3 km/h (2 Bft) 97,87 %
27.09.2017 03:06 12,6 C 13,3 C 91 % 1021,6 hPa 0,0 l/m 8,0 km/h (2 Bft) O-NO 78 0 min 0,000 mm 0,0 UV-I 0 W/m 11,2 C 11,6 C 12,9 km/h (3 Bft) 98,00 %
27.09.2017 03:08 12,7 C 13,3 C 91 % 1021,6 hPa 0,0 l/m 7,4 km/h (2 Bft) O 86 0 min 0,000 mm 0,0 UV-I 0 W/m 11,3 C 12,1 C 12,9 km/h (3 Bft) 97,56 %
27.09.2017 03:10 12,7 C 13,3 C 91 % 1021,6 hPa 0,0 l/m 8,1 km/h (2 Bft) O-NO 72 0 min 0,000 mm 0,0 UV-I 0 W/m 11,3 C 11,6 C 12,9 km/h (3 Bft) 96,23 %
27.09.2017 03:12 12,7 C 13,3 C 90 % 1021,6 hPa 0,0 l/m 8,5 km/h (2 Bft) O-NO 71 0 min 0,000 mm 0,0 UV-I 0 W/m 11,1 C 11,4 C 12,9 km/h (3 Bft) 95,12 %
27.09.2017 03:14 12,7 C 13,3 C 90 % 1021,6 hPa 0,0 l/m 7,7 km/h (2 Bft) O-NO 65 0 min 0,000 mm 0,0 UV-I 0 W/m 11,1 C 11,9 C 12,9 km/h (3 Bft) 97,73 %
27.09.2017 03:16 12,7 C 13,3 C 90 % 1021,6 hPa 0,0 l/m 6,2 km/h (2 Bft) O-NO 76 0 min 0,000 mm 0,0 UV-I 0 W/m 11,1 C 12,7 C 8,0 km/h (2 Bft) 98,00 %
27.09.2017 03:18 12,7 C 13,3 C 90 % 1021,6 hPa 0,0 l/m 6,3 km/h (2 Bft) O 81 0 min 0,000 mm 0,0 UV-I 0 W/m 11,1 C 12,7 C 9,7 km/h (2 Bft) 98,00 %
27.09.2017 03:20 12,7 C 13,3 C 90 % 1021,6 hPa 0,0 l/m 5,9 km/h (2 Bft) O-NO 70 0 min 0,000 mm 0,0 UV-I 0 W/m 11,1 C 12,7 C 8,0 km/h (2 Bft) 95,74 %
27.09.2017 03:22 12,7 C 13,3 C 90 % 1021,6 hPa 0,0 l/m 6,0 km/h (2 Bft) O-NO 57 0 min 0,000 mm 0,0 UV-I 0 W/m 11,1 C 12,7 C 9,7 km/h (2 Bft) 95,74 %
27.09.2017 03:24 12,7 C 13,3 C 90 % 1021,7 hPa 0,0 l/m 5,7 km/h (1 Bft) NO 54 0 min 0,000 mm 0,0 UV-I 0 W/m 11,1 C 12,7 C 8,0 km/h (2 Bft) 98,00 %
27.09.2017 03:26 12,7 C 13,3 C 90 % 1021,7 hPa 0,0 l/m 3,8 km/h (1 Bft) NO 54 0 min 0,000 mm 0,0 UV-I 0 W/m 11,1 C 12,7 C 4,8 km/h (1 Bft) 97,87 %
27.09.2017 03:28 12,7 C 13,3 C 90 % 1021,7 hPa 0,0 l/m 4,0 km/h (1 Bft) O-NO 60 0 min 0,000 mm 0,0 UV-I 0 W/m 11,1 C 12,7 C 6,4 km/h (2 Bft) 97,44 %
27.09.2017 03:30 12,7 C 13,3 C 90 % 1021,7 hPa 0,0 l/m 4,4 km/h (1 Bft) O-NO 60 0 min 0,000 mm 0,0 UV-I 0 W/m 11,1 C 12,7 C 6,4 km/h (2 Bft) 96,23 %
27.09.2017 03:32 12,6 C 13,3 C 90 % 1021,6 hPa 0,0 l/m 5,3 km/h (1 Bft) NO 54 0 min 0,000 mm 0,0 UV-I 0 W/m 11,0 C 12,6 C 9,7 km/h (2 Bft) 96,00 %
27.09.2017 03:34 12,6 C 13,3 C 91 % 1021,7 hPa 0,0 l/m 6,0 km/h (2 Bft) NO 52 0 min 0,000 mm 0,0 UV-I 0 W/m 11,2 C 12,6 C 9,7 km/h (2 Bft) 94,29 %
27.09.2017 03:36 12,6 C 13,3 C 91 % 1021,6 hPa 0,0 l/m 6,7 km/h (2 Bft) NO 39 0 min 0,000 mm 0,0 UV-I 0 W/m 11,2 C 12,4 C 9,7 km/h (2 Bft) 98,21 %
27.09.2017 03:38 12,6 C 13,3 C 91 % 1021,6 hPa 0,0 l/m 6,8 km/h (2 Bft) NO 49 0 min 0,000 mm 0,0 UV-I 0 W/m 11,2 C 12,4 C 9,7 km/h (2 Bft) 97,73 %
27.09.2017 03:40 12,7 C 13,3 C 91 % 1021,6 hPa 0,0 l/m 5,2 km/h (1 Bft) NO 52 0 min 0,000 mm 0,0 UV-I 0 W/m 11,3 C 12,7 C 8,0 km/h (2 Bft) 98,00 %
27.09.2017 03:42 12,7 C 13,3 C 91 % 1021,5 hPa 0,0 l/m 4,9 km/h (1 Bft) O-NO 67 0 min 0,000 mm 0,0 UV-I 0 W/m 11,3 C 12,7 C 6,4 km/h (2 Bft) 95,12 %
27.09.2017 03:44 12,7 C 13,3 C 91 % 1021,6 hPa 0,0 l/m 6,7 km/h (2 Bft) O-NO 76 0 min 0,000 mm 0,0 UV-I 0 W/m 11,3 C 12,5 C 9,7 km/h (2 Bft) 96,00 %
27.09.2017 03:46 12,7 C 13,3 C 91 % 1021,6 hPa 0,0 l/m 7,8 km/h (2 Bft) O-NO 65 0 min 0,000 mm 0,0 UV-I 0 W/m 11,3 C 11,8 C 12,9 km/h (3 Bft) 95,12 %
27.09.2017 03:48 12,7 C 13,3 C 91 % 1021,6 hPa 0,0 l/m 6,5 km/h (2 Bft) NO 53 0 min 0,000 mm 0,0 UV-I 0 W/m 11,3 C 12,7 C 8,0 km/h (2 Bft) 96,23 %
27.09.2017 03:50 12,7 C 13,3 C 91 % 1021,6 hPa 0,0 l/m 6,9 km/h (2 Bft) O-NO 61 0 min 0,000 mm 0,0 UV-I 0 W/m 11,3 C 12,4 C 12,9 km/h (3 Bft) 98,00 %
27.09.2017 03:52 12,7 C 13,3 C 91 % 1021,6 hPa 0,0 l/m 6,8 km/h (2 Bft) O-NO 70 0 min 0,000 mm 0,0 UV-I 0 W/m 11,3 C 12,5 C 9,7 km/h (2 Bft) 97,37 %
27.09.2017 03:54 12,7 C 13,3 C 91 % 1021,6 hPa 0,0 l/m 6,1 km/h (2 Bft) NO 50 0 min 0,000 mm 0,0 UV-I 0 W/m 11,3 C 12,7 C 9,7 km/h (2 Bft) 98,00 %
27.09.2017 03:56 12,7 C 13,3 C 91 % 1021,6 hPa 0,0 l/m 6,2 km/h (2 Bft) NO 49 0 min 0,000 mm 0,0 UV-I 0 W/m 11,3 C 12,7 C 8,0 km/h (2 Bft) 96,23 %
27.09.2017 03:58 12,7 C 13,3 C 91 % 1021,6 hPa 0,0 l/m 6,1 km/h (2 Bft) NO 55 0 min 0,000 mm 0,0 UV-I 0 W/m 11,3 C 12,7 C 9,7 km/h (2 Bft) 97,73 %
27.09.2017 04:00 12,7 C 13,3 C 91 % 1021,6 hPa 0,0 l/m 5,3 km/h (1 Bft) NO 56 0 min 0,000 mm 0,0 UV-I 0 W/m 11,3 C 12,7 C 9,7 km/h (2 Bft) 98,00 %
27.09.2017 04:02 12,7 C 13,3 C 91 % 1021,6 hPa 0,0 l/m 4,7 km/h (1 Bft) O-NO 57 0 min 0,000 mm 0,0 UV-I 0 W/m 11,3 C 12,7 C 6,4 km/h (2 Bft) 100,00 %
27.09.2017 04:04 12,7 C 13,3 C 91 % 1021,6 hPa 0,0 l/m 5,0 km/h (1 Bft) NO 50 0 min 0,000 mm 0,0 UV-I 0 W/m 11,3 C 12,7 C 8,0 km/h (2 Bft) 95,74 %
27.09.2017 04:06 12,7 C 13,3 C 91 % 1021,6 hPa 0,0 l/m 4,7 km/h (1 Bft) NO 50 0 min 0,000 mm 0,0 UV-I 0 W/m 11,3 C 12,7 C 6,4 km/h (2 Bft) 95,74 %
27.09.2017 04:08 12,7 C 13,3 C 91 % 1021,6 hPa 0,0 l/m 5,5 km/h (1 Bft) NO 56 0 min 0,000 mm 0,0 UV-I 0 W/m 11,3 C 12,7 C 8,0 km/h (2 Bft) 97,62 %
27.09.2017 04:10 12,7 C 13,3 C 91 % 1021,6 hPa 0,0 l/m 5,1 km/h (1 Bft) NO 38 0 min 0,000 mm 0,0 UV-I 0 W/m 11,3 C 12,7 C 8,0 km/h (2 Bft) 97,56 %
27.09.2017 04:12 12,7 C 13,3 C 91 % 1021,6 hPa 0,0 l/m 4,7 km/h (1 Bft) NO 50 0 min 0,000 mm 0,0 UV-I 0 W/m 11,3 C 12,7 C 6,4 km/h (2 Bft) 96,23 %
27.09.2017 04:14 12,7 C 13,3 C 91 % 1021,6 hPa 0,0 l/m 5,4 km/h (1 Bft) NO 53 0 min 0,000 mm 0,0 UV-I 0 W/m 11,3 C 12,7 C 8,0 km/h (2 Bft) 97,87 %
27.09.2017 04:16 12,7 C 13,3 C 91 % 1021,6 hPa 0,0 l/m 6,3 km/h (2 Bft) NO 51 0 min 0,000 mm 0,0 UV-I 0 W/m 11,3 C 12,7 C 9,7 km/h (2 Bft) 98,00 %
27.09.2017 04:18 12,7 C 13,3 C 91 % 1021,6 hPa 0,0 l/m 6,7 km/h (2 Bft) O-NO 70 0 min 0,000 mm 0,0 UV-I 0 W/m 11,3 C 12,5 C 9,7 km/h (2 Bft) 97,87 %
27.09.2017 04:20 12,7 C 13,3 C 91 % 1021,6 hPa 0,0 l/m 6,8 km/h (2 Bft) O-NO 69 0 min 0,000 mm 0,0 UV-I 0 W/m 11,3 C 12,5 C 9,7 km/h (2 Bft) 97,14 %
27.09.2017 04:22 12,7 C 13,3 C 90 % 1021,5 hPa 0,0 l/m 6,7 km/h (2 Bft) O-NO 65 0 min 0,000 mm 0,0 UV-I 0 W/m 11,1 C 12,5 C 8,0 km/h (2 Bft) 98,11 %
27.09.2017 04:24 12,7 C 13,3 C 90 % 1021,6 hPa 0,0 l/m 5,6 km/h (1 Bft) O-NO 70 0 min 0,000 mm 0,0 UV-I 0 W/m 11,1 C 12,7 C 8,0 km/h (2 Bft) 98,00 %
27.09.2017 04:26 12,7 C 13,3 C 90 % 1021,5 hPa 0,0 l/m 9,5 km/h (2 Bft) NO 53 0 min 0,000 mm 0,0 UV-I 0 W/m 11,1 C 10,8 C 16,1 km/h (3 Bft) 97,37 %
27.09.2017 04:28 12,7 C 13,3 C 90 % 1021,6 hPa 0,0 l/m 7,6 km/h (2 Bft) O 88 0 min 0,000 mm 0,0 UV-I 0 W/m 11,1 C 11,9 C 12,9 km/h (3 Bft) 98,21 %
27.09.2017 04:30 12,7 C 13,3 C 90 % 1021,6 hPa 0,0 l/m 8,3 km/h (2 Bft) O-NO 68 0 min 0,000 mm 0,0 UV-I 0 W/m 11,1 C 11,5 C 14,5 km/h (3 Bft) 98,00 %
27.09.2017 04:32 12,7 C 13,3 C 90 % 1021,6 hPa 0,0 l/m 7,4 km/h (2 Bft) O 85 0 min 0,000 mm 0,0 UV-I 0 W/m 11,1 C 12,1 C 14,5 km/h (3 Bft) 93,62 %
27.09.2017 04:34 12,7 C 13,3 C 90 % 1021,6 hPa 0,0 l/m 7,2 km/h (2 Bft) O-NO 70 0 min 0,000 mm 0,0 UV-I 0 W/m 11,1 C 12,2 C 12,9 km/h (3 Bft) 100,00 %
27.09.2017 04:36 12,7 C 13,3 C 90 % 1021,6 hPa 0,0 l/m 8,0 km/h (2 Bft) O-NO 61 0 min 0,000 mm 0,0 UV-I 0 W/m 11,1 C 11,7 C 12,9 km/h (3 Bft) 96,88 %
27.09.2017 04:38 12,7 C 13,3 C 90 % 1021,6 hPa 0,0 l/m 7,1 km/h (2 Bft) O-NO 74 0 min 0,000 mm 0,0 UV-I 0 W/m 11,1 C 12,3 C 12,9 km/h (3 Bft) 100,00 %
27.09.2017 04:40 12,7 C 13,3 C 90 % 1021,6 hPa 0,0 l/m 8,2 km/h (2 Bft) O-NO 78 0 min 0,000 mm 0,0 UV-I 0 W/m 11,1 C 11,6 C 12,9 km/h (3 Bft) 100,00 %
27.09.2017 04:42 12,7 C 13,3 C 90 % 1021,6 hPa 0,0 l/m 8,0 km/h (2 Bft) O-NO 65 0 min 0,000 mm 0,0 UV-I 0 W/m 11,1 C 11,7 C 12,9 km/h (3 Bft) 100,00 %
27.09.2017 04:44 12,8 C 13,3 C 90 % 1021,6 hPa 0,0 l/m 6,3 km/h (2 Bft) O-NO 69 0 min 0,000 mm 0,0 UV-I 0 W/m 11,2 C 12,8 C 14,5 km/h (3 Bft) 100,00 %
27.09.2017 04:46 12,8 C 13,3 C 90 % 1021,6 hPa 0,0 l/m 8,1 km/h (2 Bft) O 84 0 min 0,000 mm 0,0 UV-I 0 W/m 11,2 C 11,7 C 12,9 km/h (3 Bft) 100,00 %
27.09.2017 04:48 12,8 C 13,3 C 90 % 1021,6 hPa 0,0 l/m 9,9 km/h (2 Bft) O 82 0 min 0,000 mm 0,0 UV-I 0 W/m 11,2 C 10,7 C 12,9 km/h (3 Bft) 95,12 %
27.09.2017 04:50 12,8 C 13,3 C 90 % 1021,6 hPa 0,0 l/m 7,0 km/h (2 Bft) O-NO 58 0 min 0,000 mm 0,0 UV-I 0 W/m 11,2 C 12,4 C 12,9 km/h (3 Bft) 96,00 %
27.09.2017 04:52 12,8 C 13,3 C 90 % 1021,6 hPa 0,0 l/m 6,4 km/h (2 Bft) O-NO 74 0 min 0,000 mm 0,0 UV-I 0 W/m 11,2 C 12,8 C 11,3 km/h (2 Bft) 96,00 %
27.09.2017 04:54 12,8 C 13,3 C 90 % 1021,6 hPa 0,0 l/m 5,7 km/h (1 Bft) O-NO 57 0 min 0,000 mm 0,0 UV-I 0 W/m 11,2 C 12,8 C 9,7 km/h (2 Bft) 97,73 %
27.09.2017 04:56 12,8 C 13,3 C 90 % 1021,6 hPa 0,0 l/m 6,1 km/h (2 Bft) NO 48 0 min 0,000 mm 0,0 UV-I 0 W/m 11,2 C 12,8 C 9,7 km/h (2 Bft) 97,56 %
27.09.2017 04:58 12,8 C 13,3 C 90 % 1021,6 hPa 0,0 l/m 4,3 km/h (1 Bft) O-NO 63 0 min 0,000 mm 0,0 UV-I 0 W/m 11,2 C 12,8 C 6,4 km/h (2 Bft) 98,00 %
27.09.2017 05:00 12,8 C 13,3 C 90 % 1021,6 hPa 0,0 l/m 4,5 km/h (1 Bft) O-NO 60 0 min 0,000 mm 0,0 UV-I 0 W/m 11,2 C 12,8 C 6,4 km/h (2 Bft) 97,87 %
27.09.2017 05:02 12,8 C 13,3 C 90 % 1021,6 hPa 0,0 l/m 4,5 km/h (1 Bft) O-NO 60 0 min 0,000 mm 0,0 UV-I 0 W/m 11,2 C 12,8 C 6,4 km/h (2 Bft) 96,00 %
27.09.2017 05:04 12,8 C 13,3 C 90 % 1021,7 hPa 0,0 l/m 4,1 km/h (1 Bft) O 80 0 min 0,000 mm 0,0 UV-I 0 W/m 11,2 C 12,8 C 6,4 km/h (2 Bft) 98,00 %
27.09.2017 05:06 12,7 C 13,3 C 90 % 1021,7 hPa 0,0 l/m 4,2 km/h (1 Bft) O-NO 69 0 min 0,000 mm 0,0 UV-I 0 W/m 11,1 C 12,7 C 6,4 km/h (2 Bft) 97,37 %
27.09.2017 05:08 12,7 C 13,3 C 90 % 1021,6 hPa 0,0 l/m 3,4 km/h (1 Bft) NO 55 0 min 0,000 mm 0,0 UV-I 0 W/m 11,1 C 12,7 C 6,4 km/h (2 Bft) 98,11 %
27.09.2017 05:10 12,7 C 13,3 C 90 % 1021,6 hPa 0,0 l/m 4,6 km/h (1 Bft) O-NO 70 0 min 0,000 mm 0,0 UV-I 0 W/m 11,1 C 12,7 C 6,4 km/h (2 Bft) 95,74 %
27.09.2017 05:12 12,7 C 13,3 C 90 % 1021,7 hPa 0,0 l/m 4,3 km/h (1 Bft) O-NO 66 0 min 0,000 mm 0,0 UV-I 0 W/m 11,1 C 12,7 C 6,4 km/h (2 Bft) 97,37 %
27.09.2017 05:14 12,7 C 13,3 C 90 % 1021,6 hPa 0,0 l/m 4,8 km/h (1 Bft) O-NO 74 0 min 0,000 mm 0,0 UV-I 0 W/m 11,1 C 12,7 C 8,0 km/h (2 Bft) 92,45 %
27.09.2017 05:16 12,6 C 13,3 C 90 % 1021,6 hPa 0,0 l/m 5,3 km/h (1 Bft) O-NO 65 0 min 0,000 mm 0,0 UV-I 0 W/m 11,0 C 12,6 C 6,4 km/h (2 Bft) 97,87 %
27.09.2017 05:18 12,6 C 13,3 C 90 % 1021,6 hPa 0,0 l/m 4,8 km/h (1 Bft) O-NO 67 0 min 0,000 mm 0,0 UV-I 0 W/m 11,0 C 12,6 C 8,0 km/h (2 Bft) 97,87 %
27.09.2017 05:20 12,6 C 13,3 C 90 % 1021,6 hPa 0,0 l/m 5,0 km/h (1 Bft) O-NO 76 0 min 0,000 mm 0,0 UV-I 0 W/m 11,0 C 12,6 C 8,0 km/h (2 Bft) 98,00 %
27.09.2017 05:22 12,6 C 13,3 C 91 % 1021,6 hPa 0,0 l/m 4,7 km/h (1 Bft) NO 54 0 min 0,000 mm 0,0 UV-I 0 W/m 11,2 C 12,6 C 6,4 km/h (2 Bft) 97,62 %
27.09.2017 05:24 12,6 C 13,3 C 91 % 1021,6 hPa 0,0 l/m 3,1 km/h (1 Bft) O-NO 61 0 min 0,000 mm 0,0 UV-I 0 W/m 11,2 C 12,6 C 4,8 km/h (1 Bft) 97,56 %
27.09.2017 05:26 12,6 C 13,3 C 91 % 1021,7 hPa 0,0 l/m 3,4 km/h (1 Bft) N-NO 32 0 min 0,000 mm 0,0 UV-I 0 W/m 11,2 C 12,6 C 4,8 km/h (1 Bft) 100,00 %
27.09.2017 05:28 12,6 C 13,3 C 91 % 1021,7 hPa 0,0 l/m 3,1 km/h (1 Bft) NO 49 0 min 0,000 mm 0,0 UV-I 0 W/m 11,2 C 12,6 C 4,8 km/h (1 Bft) 100,00 %
27.09.2017 05:30 12,6 C 13,3 C 91 % 1021,7 hPa 0,0 l/m 4,5 km/h (1 Bft) O-NO 66 0 min 0,000 mm 0,0 UV-I 0 W/m 11,2 C 12,6 C 6,4 km/h (2 Bft) 100,00 %
27.09.2017 05:32 12,6 C 13,3 C 91 % 1021,7 hPa 0,0 l/m 4,8 km/h (1 Bft) O-NO 69 0 min 0,000 mm 0,0 UV-I 0 W/m 11,2 C 12,6 C 8,0 km/h (2 Bft) 97,37 %
27.09.2017 05:34 12,6 C 13,3 C 91 % 1021,7 hPa 0,0 l/m 4,3 km/h (1 Bft) O-NO 65 0 min 0,000 mm 0,0 UV-I 0 W/m 11,2 C 12,6 C 6,4 km/h (2 Bft) 100,00 %
27.09.2017 05:36 12,6 C 13,3 C 91 % 1021,7 hPa 0,0 l/m 4,4 km/h (1 Bft) NO 55 0 min 0,000 mm 0,0 UV-I 0 W/m 11,2 C 12,6 C 8,0 km/h (2 Bft) 98,11 %
27.09.2017 05:38 12,6 C 13,3 C 91 % 1021,7 hPa 0,0 l/m 3,7 km/h (1 Bft) O-NO 71 0 min 0,000 mm 0,0 UV-I 0 W/m 11,2 C 12,6 C 6,4 km/h (2 Bft) 97,14 %
27.09.2017 05:40 12,5 C 13,3 C 91 % 1021,7 hPa 0,0 l/m 2,4 km/h (1 Bft) O-NO 71 0 min 0,000 mm 0,0 UV-I 0 W/m 11,1 C 12,5 C 4,8 km/h (1 Bft) 100,00 %
27.09.2017 05:42 12,5 C 13,3 C 91 % 1021,7 hPa 0,0 l/m 1,2 km/h (1 Bft) O-NO 71 0 min 0,000 mm 0,0 UV-I 0 W/m 11,1 C 12,5 C 3,2 km/h (1 Bft) 98,11 %
27.09.2017 05:44 12,5 C 13,3 C 91 % 1021,7 hPa 0,0 l/m 0,0 km/h (0 Bft) O-NO 71 0 min 0,000 mm 0,0 UV-I 0 W/m 11,1 C 12,5 C 0,0 km/h (0 Bft) 100,00 %
27.09.2017 05:46 12,5 C 13,3 C 91 % 1021,7 hPa 0,0 l/m 0,0 km/h (0 Bft) O-NO 71 0 min 0,000 mm 0,0 UV-I 0 W/m 11,1 C 12,5 C 0,0 km/h (0 Bft) 98,00 %
27.09.2017 05:48 12,5 C 13,3 C 91 % 1021,8 hPa 0,0 l/m 0,0 km/h (0 Bft) O-NO 71 0 min 0,000 mm 0,0 UV-I 0 W/m 11,1 C 12,5 C 0,0 km/h (0 Bft) 100,00 %
27.09.2017 05:50 12,4 C 13,3 C 91 % 1021,8 hPa 0,0 l/m 1,0 km/h (0 Bft) O-NO 71 0 min 0,000 mm 0,0 UV-I 0 W/m 11,0 C 12,4 C 3,2 km/h (1 Bft) 100,00 %
27.09.2017 05:52 12,4 C 13,3 C 91 % 1021,8 hPa 0,0 l/m 1,1 km/h (1 Bft) O-NO 71 0 min 0,000 mm 0,0 UV-I 0 W/m 11,0 C 12,4 C 3,2 km/h (1 Bft) 100,00 %
27.09.2017 05:54 12,4 C 13,3 C 91 % 1021,8 hPa 0,0 l/m 1,8 km/h (1 Bft) O-NO 71 0 min 0,000 mm 0,0 UV-I 0 W/m 11,0 C 12,4 C 3,2 km/h (1 Bft) 98,00 %
27.09.2017 05:56 12,3 C 13,3 C 91 % 1021,8 hPa 0,0 l/m 1,0 km/h (0 Bft) O-NO 71 0 min 0,000 mm 0,0 UV-I 0 W/m 10,9 C 12,3 C 3,2 km/h (1 Bft) 97,56 %
27.09.2017 05:58 12,3 C 13,3 C 92 % 1021,8 hPa 0,0 l/m 1,4 km/h (1 Bft) O-NO 71 0 min 0,000 mm 0,0 UV-I 0 W/m 11,0 C 12,3 C 3,2 km/h (1 Bft) 100,00 %
27.09.2017 06:00 12,3 C 13,3 C 92 % 1021,8 hPa 0,0 l/m 1,2 km/h (1 Bft) O-NO 71 0 min 0,000 mm 0,0 UV-I 0 W/m 11,0 C 12,3 C 3,2 km/h (1 Bft) 100,00 %
27.09.2017 06:02 12,3 C 13,3 C 92 % 1021,8 hPa 0,0 l/m 0,7 km/h (0 Bft) O-NO 71 0 min 0,000 mm 0,0 UV-I 0 W/m 11,0 C 12,3 C 1,6 km/h (1 Bft) 100,00 %
27.09.2017 06:04 12,3 C 13,3 C 91 % 1021,8 hPa 0,0 l/m 0,0 km/h (0 Bft) O-NO 71 0 min 0,000 mm 0,0 UV-I 0 W/m 10,9 C 12,3 C 0,0 km/h (0 Bft) 100,00 %
27.09.2017 06:06 12,2 C 13,3 C 92 % 1021,9 hPa 0,0 l/m 0,0 km/h (0 Bft) O-NO 71 0 min 0,000 mm 0,0 UV-I 0 W/m 10,9 C 12,2 C 0,0 km/h (0 Bft) 100,00 %
27.09.2017 06:08 12,2 C 13,3 C 92 % 1021,9 hPa 0,0 l/m 0,0 km/h (0 Bft) O-NO 71 0 min 0,000 mm 0,0 UV-I 0 W/m 10,9 C 12,2 C 0,0 km/h (0 Bft) 100,00 %
27.09.2017 06:10 12,1 C 13,3 C 92 % 1021,9 hPa 0,0 l/m 0,0 km/h (0 Bft) O-NO 71 0 min 0,000 mm 0,0 UV-I 0 W/m 10,8 C 12,1 C 0,0 km/h (0 Bft) 97,87 %
27.09.2017 06:12 12,1 C 13,3 C 92 % 1021,9 hPa 0,0 l/m 0,6 km/h (0 Bft) O-NO 71 0 min 0,000 mm 0,0 UV-I 0 W/m 10,8 C 12,1 C 3,2 km/h (1 Bft) 100,00 %
27.09.2017 06:14 12,1 C 13,3 C 92 % 1022,0 hPa 0,0 l/m 2,3 km/h (1 Bft) O-NO 71 0 min 0,000 mm 0,0 UV-I 0 W/m 10,8 C 12,1 C 3,2 km/h (1 Bft) 100,00 %
27.09.2017 06:16 12,1 C 13,3 C 92 % 1022,0 hPa 0,0 l/m 1,3 km/h (1 Bft) O-NO 71 0 min 0,000 mm 0,0 UV-I 0 W/m 10,8 C 12,1 C 3,2 km/h (1 Bft) 100,00 %
27.09.2017 06:18 12,0 C 13,3 C 92 % 1022,0 hPa 0,0 l/m 0,5 km/h (0 Bft) O-NO 71 0 min 0,000 mm 0,0 UV-I 0 W/m 10,7 C 12,0 C 1,6 km/h (1 Bft) 100,00 %
27.09.2017 06:20 12,0 C 13,3 C 93 % 1022,0 hPa 0,0 l/m 0,0 km/h (0 Bft) O-NO 71 0 min 0,000 mm 0,0 UV-I 0 W/m 10,9 C 12,0 C 0,0 km/h (0 Bft) 100,00 %
27.09.2017 06:22 12,0 C 13,3 C 93 % 1022,0 hPa 0,0 l/m 0,0 km/h (0 Bft) O-NO 71 0 min 0,000 mm 0,0 UV-I 0 W/m 10,9 C 12,0 C 0,0 km/h (0 Bft) 100,00 %
27.09.2017 06:24 11,9 C 13,3 C 93 % 1022,0 hPa 0,0 l/m 0,4 km/h (0 Bft) O-NO 71 0 min 0,000 mm 0,0 UV-I 0 W/m 10,8 C 11,9 C 1,6 km/h (1 Bft) 100,00 %
27.09.2017 06:26 11,9 C 13,3 C 93 % 1022,0 hPa 0,0 l/m 0,1 km/h (0 Bft) O-NO 71 0 min 0,000 mm 0,0 UV-I 0 W/m 10,8 C 11,9 C 1,6 km/h (1 Bft) 100,00 %
27.09.2017 06:28 11,9 C 13,3 C 93 % 1022,0 hPa 0,0 l/m 0,0 km/h (0 Bft) O-NO 71 0 min 0,000 mm 0,0 UV-I 0 W/m 10,8 C 11,9 C 0,0 km/h (0 Bft) 100,00 %
27.09.2017 06:30 11,9 C 13,3 C 93 % 1022,0 hPa 0,0 l/m 0,0 km/h (0 Bft) O-NO 71 0 min 0,000 mm 0,0 UV-I 0 W/m 10,8 C 11,9 C 0,0 km/h (0 Bft) 100,00 %
27.09.2017 06:32 11,9 C 13,3 C 93 % 1022,0 hPa 0,0 l/m 0,0 km/h (0 Bft) O-NO 71 0 min 0,000 mm 0,0 UV-I 0 W/m 10,8 C 11,9 C 0,0 km/h (0 Bft) 100,00 %
27.09.2017 06:34 11,8 C 13,3 C 93 % 1022,0 hPa 0,0 l/m 0,0 km/h (0 Bft) O-NO 71 0 min 0,000 mm 0,0 UV-I 0 W/m 10,7 C 11,8 C 0,0 km/h (0 Bft) 100,00 %
27.09.2017 06:36 11,8 C 13,3 C 93 % 1022,0 hPa 0,0 l/m 1,0 km/h (0 Bft) O-NO 71 0 min 0,000 mm 0,0 UV-I 0 W/m 10,7 C 11,8 C 3,2 km/h (1 Bft) 97,44 %
27.09.2017 06:38 11,8 C 13,3 C 93 % 1022,0 hPa 0,0 l/m 1,5 km/h (1 Bft) O-NO 71 0 min 0,000 mm 0,0 UV-I 0 W/m 10,7 C 11,8 C 3,2 km/h (1 Bft) 100,00 %
27.09.2017 06:40 11,8 C 13,3 C 93 % 1022,0 hPa 0,0 l/m 0,4 km/h (0 Bft) O-NO 71 0 min 0,000 mm 0,0 UV-I 0 W/m 10,7 C 11,8 C 1,6 km/h (1 Bft) 100,00 %
27.09.2017 06:42 11,7 C 13,3 C 93 % 1022,0 hPa 0,0 l/m 0,1 km/h (0 Bft) O-NO 71 0 min 0,000 mm 0,0 UV-I 0 W/m 10,6 C 11,7 C 1,6 km/h (1 Bft) 100,00 %
27.09.2017 06:44 11,7 C 13,3 C 93 % 1022,1 hPa 0,0 l/m 2,5 km/h (1 Bft) O-NO 71 0 min 0,000 mm 0,0 UV-I 0 W/m 10,6 C 11,7 C 3,2 km/h (1 Bft) 95,24 %
27.09.2017 06:46 11,7 C 13,3 C 93 % 1022,1 hPa 0,0 l/m 3,2 km/h (1 Bft) S-SO 149 0 min 0,000 mm 0,0 UV-I 0 W/m 10,6 C 11,7 C 4,8 km/h (1 Bft) 97,87 %
27.09.2017 06:48 11,7 C 13,3 C 94 % 1022,1 hPa 0,0 l/m 2,2 km/h (1 Bft) S-SO 149 0 min 0,000 mm 0,0 UV-I 0 W/m 10,8 C 11,7 C 3,2 km/h (1 Bft) 98,00 %
27.09.2017 06:50 11,7 C 13,3 C 94 % 1022,1 hPa 0,0 l/m 0,0 km/h (0 Bft) S-SO 148 0 min 0,000 mm 0,0 UV-I 4 W/m 10,8 C 11,7 C 0,0 km/h (0 Bft) 98,00 %
27.09.2017 06:52 11,6 C 13,3 C 94 % 1022,1 hPa 0,0 l/m 0,0 km/h (0 Bft) S-SO 149 0 min 0,000 mm 0,0 UV-I 5 W/m 10,7 C 11,6 C 1,6 km/h (1 Bft) 97,14 %
27.09.2017 06:54 11,6 C 13,3 C 94 % 1022,2 hPa 0,0 l/m 1,5 km/h (1 Bft) S-SO 149 0 min 0,000 mm 0,0 UV-I 5 W/m 10,7 C 11,6 C 3,2 km/h (1 Bft) 96,43 %
27.09.2017 06:56 11,6 C 13,3 C 94 % 1022,2 hPa 0,0 l/m 0,0 km/h (0 Bft) S-SO 148 0 min 0,000 mm 0,0 UV-I 5 W/m 10,7 C 11,6 C 0,0 km/h (0 Bft) 98,00 %
27.09.2017 06:58 11,5 C 13,3 C 94 % 1022,2 hPa 0,0 l/m 0,0 km/h (0 Bft) S-SO 148 0 min 0,000 mm 0,0 UV-I 5 W/m 10,6 C 11,5 C 0,0 km/h (0 Bft) 97,87 %
27.09.2017 07:00 11,4 C 13,3 C 94 % 1022,2 hPa 0,0 l/m 0,3 km/h (0 Bft) S-SO 148 0 min 0,000 mm 0,0 UV-I 6 W/m 10,5 C 11,4 C 1,6 km/h (1 Bft) 97,73 %
27.09.2017 07:02 11,4 C 13,3 C 94 % 1022,2 hPa 0,0 l/m 2,7 km/h (1 Bft) S-SO 149 0 min 0,000 mm 0,0 UV-I 9 W/m 10,5 C 11,4 C 3,2 km/h (1 Bft) 94,74 %
27.09.2017 07:04 11,4 C 13,3 C 94 % 1022,2 hPa 0,0 l/m 0,4 km/h (0 Bft) S-SO 148 0 min 0,000 mm 0,0 UV-I 11 W/m 10,5 C 11,4 C 1,6 km/h (1 Bft) 98,00 %
27.09.2017 07:06 11,3 C 13,3 C 94 % 1022,2 hPa 0,0 l/m 0,7 km/h (0 Bft) S-SO 149 0 min 0,000 mm 0,0 UV-I 11 W/m 10,4 C 11,3 C 3,2 km/h (1 Bft) 98,11 %
27.09.2017 07:08 11,3 C 13,3 C 94 % 1022,2 hPa 0,0 l/m 0,5 km/h (0 Bft) S-SO 148 2 min 0,000 mm 0,0 UV-I 13 W/m 10,4 C 11,3 C 1,6 km/h (1 Bft) 97,37 %
27.09.2017 07:10 11,3 C 13,3 C 94 % 1022,2 hPa 0,0 l/m 1,4 km/h (1 Bft) S-SO 148 2 min 0,000 mm 0,0 UV-I 15 W/m 10,4 C 11,3 C 3,2 km/h (1 Bft) 98,11 %
27.09.2017 07:12 11,3 C 13,3 C 94 % 1022,2 hPa 0,0 l/m 0,2 km/h (0 Bft) S-SO 149 2 min 0,000 mm 0,0 UV-I 18 W/m 10,4 C 11,3 C 1,6 km/h (1 Bft) 96,00 %
27.09.2017 07:14 11,3 C 13,3 C 94 % 1022,3 hPa 0,0 l/m 0,3 km/h (0 Bft) S-SO 148 2 min 0,000 mm 0,0 UV-I 23 W/m 10,4 C 11,3 C 1,6 km/h (1 Bft) 97,87 %
27.09.2017 07:16 11,3 C 13,3 C 94 % 1022,3 hPa 0,0 l/m 0,0 km/h (0 Bft) S-SO 148 2 min 0,000 mm 0,0 UV-I 28 W/m 10,4 C 11,3 C 0,0 km/h (0 Bft) 97,87 %
27.09.2017 07:18 11,3 C 13,3 C 94 % 1022,3 hPa 0,0 l/m 2,1 km/h (1 Bft) S-SO 149 2 min 0,000 mm 0,0 UV-I 34 W/m 10,4 C 11,3 C 4,8 km/h (1 Bft) 97,73 %
27.09.2017 07:20 11,3 C 13,3 C 94 % 1022,4 hPa 0,0 l/m 3,5 km/h (1 Bft) S-SO 149 2 min 0,000 mm 0,0 UV-I 41 W/m 10,4 C 11,3 C 4,8 km/h (1 Bft) 94,00 %
27.09.2017 07:22 11,3 C 13,3 C 94 % 1022,4 hPa 0,0 l/m 4,4 km/h (1 Bft) SW 216 2 min 0,000 mm 0,0 UV-I 49 W/m 10,4 C 11,3 C 6,4 km/h (2 Bft) 97,62 %
27.09.2017 07:24 11,2 C 13,3 C 94 % 1022,3 hPa 0,0 l/m 4,4 km/h (1 Bft) SW 223 2 min 0,000 mm 0,0 UV-I 54 W/m 10,3 C 11,2 C 6,4 km/h (2 Bft) 100,00 %
27.09.2017 07:26 11,1 C 13,3 C 94 % 1022,4 hPa 0,0 l/m 5,0 km/h (1 Bft) SW 223 2 min 0,000 mm 0,0 UV-I 56 W/m 10,2 C 11,1 C 6,4 km/h (2 Bft) 96,00 %
27.09.2017 07:28 11,1 C 13,3 C 94 % 1022,4 hPa 0,0 l/m 3,0 km/h (1 Bft) SW 223 2 min 0,000 mm 0,0 UV-I 49 W/m 10,2 C 11,1 C 4,8 km/h (1 Bft) 97,87 %
27.09.2017 07:30 11,0 C 13,3 C 94 % 1022,4 hPa 0,0 l/m 2,5 km/h (1 Bft) SW 223 2 min 0,000 mm 0,0 UV-I 45 W/m 10,1 C 11,0 C 4,8 km/h (1 Bft) 96,00 %
27.09.2017 07:32 11,0 C 13,3 C 94 % 1022,3 hPa 0,0 l/m 3,2 km/h (1 Bft) SW 223 0 min 0,000 mm 0,0 UV-I 46 W/m 10,1 C 11,0 C 4,8 km/h (1 Bft) 98,00 %
27.09.2017 07:34 10,9 C 13,3 C 94 % 1022,4 hPa 0,0 l/m 3,3 km/h (1 Bft) SW 223 0 min 0,000 mm 0,0 UV-I 47 W/m 10,0 C 10,9 C 4,8 km/h (1 Bft) 94,74 %
27.09.2017 07:36 10,9 C 13,3 C 94 % 1022,4 hPa 0,0 l/m 4,5 km/h (1 Bft) SW 223 0 min 0,000 mm 0,0 UV-I 51 W/m 10,0 C 10,9 C 6,4 km/h (2 Bft) 97,73 %
27.09.2017 07:38 10,9 C 13,3 C 94 % 1022,4 hPa 0,0 l/m 4,3 km/h (1 Bft) SW 223 0 min 0,000 mm 0,0 UV-I 54 W/m 10,0 C 10,9 C 6,4 km/h (2 Bft) 98,21 %
27.09.2017 07:40 10,9 C 13,3 C 94 % 1022,4 hPa 0,0 l/m 2,8 km/h (1 Bft) SW 223 2 min 0,000 mm 0,0 UV-I 64 W/m 10,0 C 10,9 C 4,8 km/h (1 Bft) 98,00 %
27.09.2017 07:42 10,9 C 13,3 C 94 % 1022,4 hPa 0,0 l/m 2,6 km/h (1 Bft) SW 223 2 min 0,000 mm 0,0 UV-I 84 W/m 10,0 C 10,9 C 4,8 km/h (1 Bft) 97,44 %
27.09.2017 07:44 11,0 C 13,3 C 94 % 1022,4 hPa 0,0 l/m 0,7 km/h (0 Bft) SW 223 2 min 0,000 mm 0,0 UV-I 74 W/m 10,1 C 11,0 C 1,6 km/h (1 Bft) 98,00 %
27.09.2017 07:46 11,0 C 13,3 C 94 % 1022,5 hPa 0,0 l/m 0,1 km/h (0 Bft) SW 223 2 min 0,000 mm 0,0 UV-I 72 W/m 10,1 C 11,0 C 1,6 km/h (1 Bft) 93,62 %
27.09.2017 07:48 11,0 C 13,3 C 94 % 1022,4 hPa 0,0 l/m 2,3 km/h (1 Bft) SW 223 2 min 0,000 mm 0,0 UV-I 79 W/m 10,1 C 11,0 C 4,8 km/h (1 Bft) 97,56 %
27.09.2017 07:50 11,1 C 13,3 C 94 % 1022,5 hPa 0,0 l/m 4,3 km/h (1 Bft) SW 223 0 min 0,000 mm 0,0 UV-I 70 W/m 10,2 C 11,1 C 6,4 km/h (2 Bft) 98,11 %
27.09.2017 07:52 11,1 C 13,3 C 94 % 1022,4 hPa 0,0 l/m 4,1 km/h (1 Bft) SW 223 0 min 0,000 mm 0,0 UV-I 70 W/m 10,2 C 11,1 C 4,8 km/h (1 Bft) 95,74 %
27.09.2017 07:54 11,1 C 13,3 C 94 % 1022,4 hPa 0,0 l/m 2,4 km/h (1 Bft) SW 223 0 min 0,000 mm 0,0 UV-I 72 W/m 10,2 C 11,1 C 4,8 km/h (1 Bft) 93,62 %
27.09.2017 07:56 11,1 C 13,3 C 94 % 1022,5 hPa 0,0 l/m 1,4 km/h (1 Bft) SW 223 0 min 0,000 mm 0,0 UV-I 77 W/m 10,2 C 11,1 C 3,2 km/h (1 Bft) 98,00 %
27.09.2017 07:58 11,1 C 13,3 C 94 % 1022,5 hPa 0,0 l/m 1,1 km/h (1 Bft) SW 223 0 min 0,000 mm 0,0 UV-I 81 W/m 10,2 C 11,1 C 3,2 km/h (1 Bft) 97,44 %
27.09.2017 08:00 11,1 C 13,3 C 93 % 1022,5 hPa 0,0 l/m 1,0 km/h (0 Bft) SW 223 0 min 0,025 mm 0,0 UV-I 87 W/m 10,0 C 11,1 C 3,2 km/h (1 Bft) 97,87 %
27.09.2017 08:02 11,1 C 13,3 C 93 % 1022,5 hPa 0,0 l/m 0,6 km/h (0 Bft) SW 223 2 min 0,000 mm 0,0 UV-I 95 W/m 10,0 C 11,1 C 1,6 km/h (1 Bft) 95,74 %
27.09.2017 08:04 11,2 C 13,3 C 94 % 1022,5 hPa 0,0 l/m 2,0 km/h (1 Bft) SW 223 2 min 0,000 mm 0,0 UV-I 104 W/m 10,3 C 11,2 C 4,8 km/h (1 Bft) 97,87 %
27.09.2017 08:06 11,2 C 13,3 C 94 % 1022,6 hPa 0,0 l/m 2,2 km/h (1 Bft) SW 223 2 min 0,000 mm 0,0 UV-I 113 W/m 10,3 C 11,2 C 4,8 km/h (1 Bft) 96,00 %
27.09.2017 08:08 11,3 C 13,3 C 94 % 1022,6 hPa 0,0 l/m 0,7 km/h (0 Bft) SW 223 2 min 0,000 mm 0,0 UV-I 118 W/m 10,4 C 11,3 C 1,6 km/h (1 Bft) 95,74 %
27.09.2017 08:10 11,3 C 13,3 C 94 % 1022,6 hPa 0,0 l/m 1,2 km/h (1 Bft) SW 223 2 min 0,000 mm 0,0 UV-I 118 W/m 10,4 C 11,3 C 3,2 km/h (1 Bft) 98,00 %
27.09.2017 08:12 11,3 C 13,3 C 93 % 1022,6 hPa 0,0 l/m 1,1 km/h (1 Bft) SW 223 2 min 0,000 mm 0,0 UV-I 117 W/m 10,2 C 11,3 C 3,2 km/h (1 Bft) 97,56 %
27.09.2017 08:14 11,3 C 13,3 C 93 % 1022,5 hPa 0,0 l/m 0,1 km/h (0 Bft) SW 223 2 min 0,000 mm 0,0 UV-I 117 W/m 10,2 C 11,3 C 1,6 km/h (1 Bft) 96,00 %
27.09.2017 08:16 11,4 C 13,3 C 93 % 1022,5 hPa 0,0 l/m 0,5 km/h (0 Bft) SW 223 2 min 0,000 mm 0,0 UV-I 119 W/m 10,3 C 11,4 C 3,2 km/h (1 Bft) 97,37 %
27.09.2017 08:18 11,4 C 13,3 C 93 % 1022,6 hPa 0,0 l/m 0,2 km/h (0 Bft) SW 223 2 min 0,000 mm 0,0 UV-I 120 W/m 10,3 C 11,4 C 1,6 km/h (1 Bft) 98,11 %
27.09.2017 08:20 11,6 C 13,3 C 93 % 1022,6 hPa 0,0 l/m 0,4 km/h (0 Bft) SW 223 2 min 0,000 mm 0,0 UV-I 126 W/m 10,5 C 11,6 C 1,6 km/h (1 Bft) 96,23 %
27.09.2017 08:22 11,7 C 13,3 C 93 % 1022,5 hPa 0,0 l/m 1,1 km/h (1 Bft) SW 223 2 min 0,000 mm 0,0 UV-I 139 W/m 10,6 C 11,7 C 3,2 km/h (1 Bft) 100,00 %
27.09.2017 08:24 11,8 C 13,3 C 93 % 1022,6 hPa 0,0 l/m 1,5 km/h (1 Bft) SW 223 2 min 0,000 mm 0,0 UV-I 135 W/m 10,7 C 11,8 C 3,2 km/h (1 Bft) 100,00 %
27.09.2017 08:26 11,8 C 13,3 C 93 % 1022,6 hPa 0,0 l/m 2,2 km/h (1 Bft) SW 223 2 min 0,000 mm 0,0 UV-I 142 W/m 10,7 C 11,8 C 3,2 km/h (1 Bft) 100,00 %
27.09.2017 08:28 11,8 C 13,3 C 93 % 1022,6 hPa 0,0 l/m 1,8 km/h (1 Bft) SW 223 2 min 0,000 mm 0,0 UV-I 150 W/m 10,7 C 11,8 C 3,2 km/h (1 Bft) 100,00 %
27.09.2017 08:30 11,9 C 13,3 C 93 % 1022,6 hPa 0,0 l/m 3,5 km/h (1 Bft) SW 223 2 min 0,000 mm 0,0 UV-I 156 W/m 10,8 C 11,9 C 4,8 km/h (1 Bft) 100,00 %
27.09.2017 08:32 11,9 C 13,3 C 92 % 1022,7 hPa 0,0 l/m 3,4 km/h (1 Bft) SW 223 2 min 0,000 mm 0,0 UV-I 163 W/m 10,6 C 11,9 C 4,8 km/h (1 Bft) 100,00 %
27.09.2017 08:34 12,0 C 13,3 C 92 % 1022,7 hPa 0,0 l/m 2,1 km/h (1 Bft) SW 223 2 min 0,000 mm 0,0 UV-I 172 W/m 10,7 C 12,0 C 4,8 km/h (1 Bft) 100,00 %
27.09.2017 08:36 12,0 C 13,3 C 92 % 1022,7 hPa 0,0 l/m 2,0 km/h (1 Bft) SW 223 2 min 0,000 mm 0,0 UV-I 192 W/m 10,7 C 12,0 C 3,2 km/h (1 Bft) 100,00 %
27.09.2017 08:38 12,1 C 13,3 C 92 % 1022,6 hPa 0,0 l/m 2,3 km/h (1 Bft) SW 223 2 min 0,000 mm 0,0 UV-I 177 W/m 10,8 C 12,1 C 4,8 km/h (1 Bft) 100,00 %
27.09.2017 08:40 12,2 C 13,3 C 93 % 1022,8 hPa 0,0 l/m 1,3 km/h (1 Bft) SW 223 2 min 0,000 mm 0,0 UV-I 167 W/m 11,1 C 12,2 C 3,2 km/h (1 Bft) 100,00 %
27.09.2017 08:42 12,2 C 13,3 C 92 % 1022,7 hPa 0,0 l/m 0,3 km/h (0 Bft) SW 223 2 min 0,000 mm 0,0 UV-I 166 W/m 10,9 C 12,2 C 1,6 km/h (1 Bft) 97,87 %
27.09.2017 08:44 12,1 C 13,3 C 92 % 1022,7 hPa 0,0 l/m 0,0 km/h (0 Bft) SW 223 2 min 0,000 mm 0,0 UV-I 167 W/m 10,8 C 12,1 C 0,0 km/h (0 Bft) 100,00 %
27.09.2017 08:46 12,2 C 13,3 C 92 % 1022,7 hPa 0,0 l/m 0,3 km/h (0 Bft) SW 223 2 min 0,000 mm 0,0 UV-I 163 W/m 10,9 C 12,2 C 3,2 km/h (1 Bft) 100,00 %
27.09.2017 08:48 12,3 C 13,3 C 92 % 1022,7 hPa 0,0 l/m 0,5 km/h (0 Bft) SW 223 0 min 0,000 mm 0,0 UV-I 159 W/m 11,0 C 12,3 C 3,2 km/h (1 Bft) 100,00 %
27.09.2017 08:50 12,4 C 13,3 C 92 % 1022,7 hPa 0,0 l/m 2,0 km/h (1 Bft) SW 223 0 min 0,000 mm 0,0 UV-I 158 W/m 11,1 C 12,4 C 3,2 km/h (1 Bft) 97,56 %
27.09.2017 08:52 12,4 C 13,3 C 92 % 1022,6 hPa 0,0 l/m 1,6 km/h (1 Bft) SW 223 0 min 0,000 mm 0,0 UV-I 162 W/m 11,1 C 12,4 C 3,2 km/h (1 Bft) 97,87 %
27.09.2017 08:54 12,4 C 13,3 C 91 % 1022,6 hPa 0,0 l/m 1,6 km/h (1 Bft) SW 223 0 min 0,000 mm 0,0 UV-I 160 W/m 11,0 C 12,4 C 3,2 km/h (1 Bft) 95,74 %
27.09.2017 08:56 12,4 C 13,3 C 91 % 1022,7 hPa 0,0 l/m 1,6 km/h (1 Bft) SW 223 0 min 0,000 mm 0,0 UV-I 158 W/m 11,0 C 12,4 C 3,2 km/h (1 Bft) 96,43 %
27.09.2017 08:58 12,4 C 13,3 C 91 % 1022,7 hPa 0,0 l/m 2,5 km/h (1 Bft) SW 223 0 min 0,000 mm 0,3 UV-I 160 W/m 11,0 C 12,4 C 4,8 km/h (1 Bft) 97,37 %
27.09.2017 09:00 12,5 C 13,3 C 91 % 1022,7 hPa 0,0 l/m 3,8 km/h (1 Bft) SW 223 0 min 0,076 mm 0,5 UV-I 160 W/m 11,1 C 12,5 C 4,8 km/h (1 Bft) 98,11 %
27.09.2017 09:02 12,5 C 13,3 C 91 % 1022,7 hPa 0,0 l/m 2,3 km/h (1 Bft) SW 223 0 min 0,000 mm 0,5 UV-I 163 W/m 11,1 C 12,5 C 3,2 km/h (1 Bft) 97,73 %
27.09.2017 09:04 12,5 C 13,3 C 91 % 1022,7 hPa 0,0 l/m 1,3 km/h (1 Bft) SW 223 0 min 0,000 mm 0,5 UV-I 161 W/m 11,1 C 12,5 C 3,2 km/h (1 Bft) 97,56 %
27.09.2017 09:06 12,6 C 13,3 C 91 % 1022,7 hPa 0,0 l/m 0,4 km/h (0 Bft) SW 223 0 min 0,000 mm 0,5 UV-I 153 W/m 11,2 C 12,6 C 1,6 km/h (1 Bft) 95,74 %
27.09.2017 09:08 12,6 C 13,3 C 91 % 1022,7 hPa 0,0 l/m 0,9 km/h (0 Bft) SW 223 0 min 0,000 mm 0,5 UV-I 149 W/m 11,2 C 12,6 C 3,2 km/h (1 Bft) 98,00 %
27.09.2017 09:10 12,7 C 13,3 C 91 % 1022,7 hPa 0,0 l/m 1,1 km/h (1 Bft) SW 223 0 min 0,000 mm 0,6 UV-I 154 W/m 11,3 C 12,7 C 3,2 km/h (1 Bft) 98,11 %
27.09.2017 09:12 12,7 C 13,3 C 91 % 1022,7 hPa 0,0 l/m 0,3 km/h (0 Bft) SW 223 0 min 0,000 mm 0,6 UV-I 159 W/m 11,3 C 12,7 C 1,6 km/h (1 Bft) 97,22 %
27.09.2017 09:14 12,7 C 13,3 C 91 % 1022,7 hPa 0,0 l/m 0,3 km/h (0 Bft) SW 223 0 min 0,000 mm 0,6 UV-I 176 W/m 11,3 C 12,7 C 1,6 km/h (1 Bft) 97,37 %
27.09.2017 09:16 12,7 C 13,3 C 91 % 1022,7 hPa 0,0 l/m 0,8 km/h (0 Bft) SW 223 2 min 0,000 mm 0,6 UV-I 201 W/m 11,3 C 12,7 C 3,2 km/h (1 Bft) 98,51 %
27.09.2017 09:18 12,8 C 13,3 C 91 % 1022,7 hPa 0,0 l/m 2,3 km/h (1 Bft) SW 223 0 min 0,000 mm 0,6 UV-I 187 W/m 11,4 C 12,8 C 3,2 km/h (1 Bft) 97,44 %
27.09.2017 09:20 12,8 C 13,3 C 91 % 1022,8 hPa 0,0 l/m 1,1 km/h (1 Bft) SW 223 2 min 0,000 mm 0,7 UV-I 266 W/m 11,4 C 12,8 C 3,2 km/h (1 Bft) 100,00 %
27.09.2017 09:22 13,0 C 13,3 C 91 % 1022,8 hPa 0,0 l/m 0,6 km/h (0 Bft) SW 223 2 min 0,000 mm 0,8 UV-I 297 W/m 11,6 C 13,0 C 1,6 km/h (1 Bft) 100,00 %
27.09.2017 09:24 13,1 C 13,3 C 90 % 1022,8 hPa 0,0 l/m 0,3 km/h (0 Bft) SW 223 2 min 0,000 mm 0,8 UV-I 323 W/m 11,5 C 13,1 C 1,6 km/h (1 Bft) 100,00 %
27.09.2017 09:26 13,2 C 13,3 C 90 % 1022,8 hPa 0,0 l/m 0,7 km/h (0 Bft) SW 223 2 min 0,000 mm 0,8 UV-I 358 W/m 11,6 C 13,2 C 3,2 km/h (1 Bft) 97,87 %
27.09.2017 09:28 13,3 C 13,3 C 90 % 1022,8 hPa 0,0 l/m 0,3 km/h (0 Bft) SW 223 2 min 0,000 mm 0,9 UV-I 364 W/m 11,7 C 13,3 C 1,6 km/h (1 Bft) 100,00 %
27.09.2017 09:30 13,5 C 13,3 C 90 % 1022,7 hPa 0,0 l/m 0,1 km/h (0 Bft) SW 223 2 min 0,000 mm 0,9 UV-I 400 W/m 11,9 C 13,5 C 1,6 km/h (1 Bft) 100,00 %
27.09.2017 09:32 13,7 C 13,3 C 89 % 1022,8 hPa 0,0 l/m 0,2 km/h (0 Bft) SW 223 2 min 0,000 mm 0,9 UV-I 390 W/m 11,9 C 13,7 C 1,6 km/h (1 Bft) 100,00 %
27.09.2017 09:34 13,8 C 13,3 C 88 % 1022,8 hPa 0,0 l/m 1,8 km/h (1 Bft) SW 223 2 min 0,000 mm 0,9 UV-I 317 W/m 11,8 C 13,8 C 4,8 km/h (1 Bft) 100,00 %
27.09.2017 09:36 13,9 C 13,3 C 88 % 1022,8 hPa 0,0 l/m 1,2 km/h (1 Bft) SW 223 2 min 0,000 mm 1,0 UV-I 354 W/m 11,9 C 13,9 C 3,2 km/h (1 Bft) 100,00 %
27.09.2017 09:38 14,0 C 13,3 C 88 % 1022,9 hPa 0,0 l/m 1,0 km/h (0 Bft) SW 223 2 min 0,000 mm 1,0 UV-I 334 W/m 12,0 C 14,0 C 1,6 km/h (1 Bft) 100,00 %
27.09.2017 09:40 14,2 C 13,3 C 87 % 1022,8 hPa 0,0 l/m 0,0 km/h (0 Bft) SW 223 2 min 0,000 mm 1,0 UV-I 340 W/m 12,1 C 14,2 C 0,0 km/h (0 Bft) 100,00 %
27.09.2017 09:42 14,3 C 13,3 C 88 % 1022,9 hPa 0,0 l/m 0,2 km/h (0 Bft) SW 223 2 min 0,000 mm 1,0 UV-I 325 W/m 12,3 C 14,3 C 1,6 km/h (1 Bft) 100,00 %
27.09.2017 09:44 14,3 C 13,3 C 87 % 1022,9 hPa 0,0 l/m 0,2 km/h (0 Bft) SW 223 2 min 0,000 mm 1,0 UV-I 269 W/m 12,2 C 14,3 C 1,6 km/h (1 Bft) 100,00 %
27.09.2017 09:46 14,4 C 13,3 C 87 % 1022,9 hPa 0,0 l/m 0,5 km/h (0 Bft) SW 223 2 min 0,000 mm 1,0 UV-I 278 W/m 12,3 C 14,4 C 3,2 km/h (1 Bft) 100,00 %
27.09.2017 09:48 14,4 C 13,3 C 87 % 1022,8 hPa 0,0 l/m 0,8 km/h (0 Bft) SW 223 0 min 0,000 mm 1,0 UV-I 236 W/m 12,3 C 14,4 C 3,2 km/h (1 Bft) 100,00 %
27.09.2017 09:50 14,4 C 13,3 C 87 % 1022,8 hPa 0,0 l/m 1,3 km/h (1 Bft) N 355 2 min 0,000 mm 1,1 UV-I 332 W/m 12,3 C 14,4 C 3,2 km/h (1 Bft) 100,00 %
27.09.2017 09:52 14,4 C 13,3 C 86 % 1022,8 hPa 0,0 l/m 0,1 km/h (0 Bft) N 355 2 min 0,000 mm 1,1 UV-I 312 W/m 12,1 C 14,4 C 1,6 km/h (1 Bft) 97,92 %
27.09.2017 09:54 14,6 C 13,3 C 87 % 1022,8 hPa 0,0 l/m 1,3 km/h (1 Bft) N 355 2 min 0,000 mm 1,1 UV-I 322 W/m 12,5 C 14,6 C 3,2 km/h (1 Bft) 100,00 %
27.09.2017 09:56 14,7 C 13,3 C 86 % 1022,8 hPa 0,0 l/m 3,7 km/h (1 Bft) O-NO 57 2 min 0,000 mm 1,2 UV-I 350 W/m 12,4 C 14,7 C 9,7 km/h (2 Bft) 98,00 %
27.09.2017 09:58 14,8 C 13,3 C 86 % 1022,8 hPa 0,0 l/m 7,2 km/h (2 Bft) NO 56 2 min 0,000 mm 1,2 UV-I 375 W/m 12,5 C 14,3 C 12,9 km/h (3 Bft) 100,00 %
27.09.2017 10:00 14,8 C 13,3 C 85 % 1022,8 hPa 0,0 l/m 4,8 km/h (1 Bft) O-NO 61 2 min 0,000 mm 1,2 UV-I 380 W/m 12,3 C 14,8 C 9,7 km/h (2 Bft) 98,00 %
27.09.2017 10:02 14,9 C 13,3 C 85 % 1022,8 hPa 0,0 l/m 6,7 km/h (2 Bft) NO 51 2 min 0,153 mm 1,3 UV-I 446 W/m 12,4 C 14,7 C 9,7 km/h (2 Bft) 100,00 %
27.09.2017 10:04 15,0 C 13,3 C 85 % 1022,8 hPa 0,0 l/m 7,0 km/h (2 Bft) NO 53 2 min 0,000 mm 1,3 UV-I 461 W/m 12,5 C 14,7 C 9,7 km/h (2 Bft) 100,00 %
27.09.2017 10:06 15,0 C 13,3 C 84 % 1022,8 hPa 0,0 l/m 5,5 km/h (1 Bft) NO 53 2 min 0,000 mm 1,3 UV-I 353 W/m 12,3 C 15,0 C 9,7 km/h (2 Bft) 97,87 %
27.09.2017 10:08 14,9 C 13,3 C 85 % 1022,8 hPa 0,0 l/m 5,6 km/h (1 Bft) NO 43 2 min 0,000 mm 1,3 UV-I 321 W/m 12,4 C 14,9 C 8,0 km/h (2 Bft) 100,00 %
27.09.2017 10:10 14,9 C 13,3 C 85 % 1022,8 hPa 0,0 l/m 4,4 km/h (1 Bft) NO 43 2 min 0,000 mm 1,3 UV-I 369 W/m 12,4 C 14,9 C 6,4 km/h (2 Bft) 100,00 %
27.09.2017 10:12 14,9 C 13,3 C 84 % 1022,8 hPa 0,0 l/m 5,4 km/h (1 Bft) N-NO 26 2 min 0,000 mm 1,4 UV-I 410 W/m 12,2 C 14,9 C 8,0 km/h (2 Bft) 100,00 %
27.09.2017 10:14 15,1 C 13,3 C 84 % 1022,8 hPa 0,0 l/m 3,9 km/h (1 Bft) NO 44 2 min 0,000 mm 1,4 UV-I 412 W/m 12,4 C 15,1 C 6,4 km/h (2 Bft) 97,14 %
27.09.2017 10:16 15,3 C 13,3 C 85 % 1022,8 hPa 0,0 l/m 4,2 km/h (1 Bft) O-NO 62 2 min 0,000 mm 1,5 UV-I 461 W/m 12,8 C 15,3 C 8,0 km/h (2 Bft) 100,00 %
27.09.2017 10:18 15,4 C 13,3 C 84 % 1022,9 hPa 0,0 l/m 5,6 km/h (1 Bft) O-NO 60 2 min 0,000 mm 1,5 UV-I 489 W/m 12,7 C 15,4 C 9,7 km/h (2 Bft) 100,00 %
27.09.2017 10:20 15,6 C 13,3 C 84 % 1022,9 hPa 0,0 l/m 5,7 km/h (1 Bft) O-NO 64 2 min 0,000 mm 1,5 UV-I 454 W/m 12,9 C 15,6 C 8,0 km/h (2 Bft) 100,00 %
27.09.2017 10:22 15,6 C 13,3 C 83 % 1022,9 hPa 0,0 l/m 4,5 km/h (1 Bft) NO 46 2 min 0,000 mm 1,4 UV-I 371 W/m 12,7 C 15,6 C 6,4 km/h (2 Bft) 100,00 %
27.09.2017 10:24 15,4 C 13,3 C 83 % 1022,9 hPa 0,0 l/m 2,4 km/h (1 Bft) NO 46 2 min 0,000 mm 1,5 UV-I 408 W/m 12,5 C 15,4 C 4,8 km/h (1 Bft) 100,00 %
27.09.2017 10:26 15,4 C 13,3 C 84 % 1023,0 hPa 0,0 l/m 2,8 km/h (1 Bft) O-NO 67 2 min 0,000 mm 1,5 UV-I 404 W/m 12,7 C 15,4 C 6,4 km/h (2 Bft) 95,12 %
27.09.2017 10:28 15,4 C 13,3 C 83 % 1023,0 hPa 0,0 l/m 4,9 km/h (1 Bft) O-NO 59 2 min 0,000 mm 1,5 UV-I 386 W/m 12,5 C 15,4 C 8,0 km/h (2 Bft) 97,56 %
27.09.2017 10:30 15,4 C 13,3 C 83 % 1023,0 hPa 0,0 l/m 5,5 km/h (1 Bft) O 81 2 min 0,000 mm 1,5 UV-I 389 W/m 12,5 C 15,4 C 8,0 km/h (2 Bft) 100,00 %
27.09.2017 10:32 15,5 C 13,3 C 82 % 1022,9 hPa 0,0 l/m 5,1 km/h (1 Bft) O-NO 69 2 min 0,000 mm 1,5 UV-I 345 W/m 12,4 C 15,5 C 8,0 km/h (2 Bft) 100,00 %
27.09.2017 10:34 15,4 C 13,3 C 83 % 1022,9 hPa 0,0 l/m 4,1 km/h (1 Bft) NO 56 2 min 0,000 mm 1,5 UV-I 348 W/m 12,5 C 15,4 C 6,4 km/h (2 Bft) 97,37 %
27.09.2017 10:36 15,5 C 13,3 C 84 % 1022,9 hPa 0,0 l/m 5,1 km/h (1 Bft) O-NO 63 2 min 0,000 mm 1,5 UV-I 326 W/m 12,8 C 15,5 C 8,0 km/h (2 Bft) 98,04 %
27.09.2017 10:38 15,5 C 13,3 C 83 % 1022,9 hPa 0,0 l/m 5,4 km/h (1 Bft) O-NO 74 2 min 0,000 mm 1,5 UV-I 313 W/m 12,6 C 15,5 C 8,0 km/h (2 Bft) 96,15 %
27.09.2017 10:40 15,4 C 13,3 C 83 % 1022,9 hPa 0,0 l/m 4,2 km/h (1 Bft) O-NO 57 2 min 0,000 mm 1,5 UV-I 294 W/m 12,5 C 15,4 C 6,4 km/h (2 Bft) 97,44 %
27.09.2017 10:42 15,4 C 13,3 C 83 % 1022,9 hPa 0,0 l/m 5,1 km/h (1 Bft) NO 55 0 min 0,000 mm 1,5 UV-I 252 W/m 12,5 C 15,4 C 8,0 km/h (2 Bft) 96,43 %
27.09.2017 10:44 15,4 C 13,3 C 83 % 1022,9 hPa 0,0 l/m 2,8 km/h (1 Bft) NO 50 0 min 0,000 mm 1,5 UV-I 278 W/m 12,5 C 15,4 C 6,4 km/h (2 Bft) 97,56 %
27.09.2017 10:46 15,4 C 13,3 C 83 % 1022,9 hPa 0,0 l/m 1,9 km/h (1 Bft) NO 50 0 min 0,000 mm 1,5 UV-I 290 W/m 12,5 C 15,4 C 3,2 km/h (1 Bft) 96,00 %
27.09.2017 10:48 15,4 C 13,3 C 84 % 1022,9 hPa 0,0 l/m 2,7 km/h (1 Bft) NO 46 2 min 0,000 mm 1,6 UV-I 346 W/m 12,7 C 15,4 C 4,8 km/h (1 Bft) 95,12 %
27.09.2017 10:50 15,6 C 13,3 C 84 % 1022,9 hPa 0,0 l/m 5,1 km/h (1 Bft) NO 38 2 min 0,000 mm 1,6 UV-I 338 W/m 12,9 C 15,6 C 9,7 km/h (2 Bft) 97,87 %
27.09.2017 10:52 15,7 C 13,3 C 85 % 1022,9 hPa 0,0 l/m 4,6 km/h (1 Bft) N-NO 32 2 min 0,000 mm 1,7 UV-I 379 W/m 13,2 C 15,7 C 8,0 km/h (2 Bft) 98,00 %
27.09.2017 10:54 15,8 C 13,3 C 83 % 1022,9 hPa 0,0 l/m 2,0 km/h (1 Bft) N-NO 32 2 min 0,000 mm 1,7 UV-I 394 W/m 12,9 C 15,8 C 4,8 km/h (1 Bft) 98,00 %
27.09.2017 10:56 15,8 C 13,3 C 82 % 1023,0 hPa 0,0 l/m 1,1 km/h (1 Bft) N-NO 32 2 min 0,000 mm 1,7 UV-I 410 W/m 12,7 C 15,8 C 3,2 km/h (1 Bft) 97,56 %
27.09.2017 10:58 15,9 C 13,3 C 83 % 1023,0 hPa 0,0 l/m 0,5 km/h (0 Bft) N-NO 32 2 min 0,000 mm 1,8 UV-I 377 W/m 13,0 C 15,9 C 3,2 km/h (1 Bft) 95,74 %
27.09.2017 11:00 15,8 C 13,3 C 81 % 1022,9 hPa 0,0 l/m 1,4 km/h (1 Bft) N-NO 32 2 min 0,000 mm 1,7 UV-I 328 W/m 12,5 C 15,8 C 3,2 km/h (1 Bft) 95,74 %
27.09.2017 11:02 15,8 C 13,3 C 81 % 1022,9 hPa 0,0 l/m 4,3 km/h (1 Bft) NO 53 2 min 0,203 mm 1,8 UV-I 436 W/m 12,5 C 15,8 C 6,4 km/h (2 Bft) 95,12 %
27.09.2017 11:04 15,8 C 13,3 C 81 % 1022,9 hPa 0,0 l/m 2,5 km/h (1 Bft) NO 53 0 min 0,000 mm 1,7 UV-I 307 W/m 12,5 C 15,8 C 3,2 km/h (1 Bft) 96,23 %
27.09.2017 11:06 15,7 C 13,3 C 82 % 1022,9 hPa 0,0 l/m 2,2 km/h (1 Bft) NO 53 0 min 0,000 mm 1,7 UV-I 269 W/m 12,6 C 15,7 C 3,2 km/h (1 Bft) 100,00 %
27.09.2017 11:08 15,8 C 13,3 C 81 % 1022,9 hPa 0,0 l/m 3,8 km/h (1 Bft) NO 53 0 min 0,000 mm 1,7 UV-I 253 W/m 12,5 C 15,8 C 6,4 km/h (2 Bft) 100,00 %
27.09.2017 11:10 15,7 C 13,3 C 81 % 1022,9 hPa 0,0 l/m 1,8 km/h (1 Bft) NO 53 0 min 0,000 mm 1,7 UV-I 258 W/m 12,4 C 15,7 C 3,2 km/h (1 Bft) 100,00 %
27.09.2017 11:12 15,6 C 13,3 C 81 % 1022,9 hPa 0,0 l/m 0,5 km/h (0 Bft) NO 53 2 min 0,000 mm 1,8 UV-I 344 W/m 12,3 C 15,6 C 3,2 km/h (1 Bft) 100,00 %
27.09.2017 11:14 15,7 C 13,3 C 82 % 1022,9 hPa 0,0 l/m 1,4 km/h (1 Bft) NO 53 2 min 0,000 mm 2,0 UV-I 430 W/m 12,6 C 15,7 C 4,8 km/h (1 Bft) 100,00 %
27.09.2017 11:16 15,8 C 13,3 C 81 % 1022,9 hPa 0,0 l/m 2,5 km/h (1 Bft) NO 53 2 min 0,000 mm 2,0 UV-I 434 W/m 12,5 C 15,8 C 4,8 km/h (1 Bft) 100,00 %
27.09.2017 11:18 15,9 C 13,3 C 81 % 1022,9 hPa 0,0 l/m 2,6 km/h (1 Bft) NO 53 2 min 0,000 mm 2,0 UV-I 399 W/m 12,6 C 15,9 C 6,4 km/h (2 Bft) 100,00 %
27.09.2017 11:20 16,2 C 13,3 C 83 % 1022,9 hPa 0,0 l/m 2,3 km/h (1 Bft) NO 53 2 min 0,000 mm 2,0 UV-I 382 W/m 13,3 C 16,2 C 4,8 km/h (1 Bft) 100,00 %
27.09.2017 11:22 16,2 C 13,3 C 81 % 1022,8 hPa 0,0 l/m 3,8 km/h (1 Bft) NO 53 2 min 0,000 mm 1,9 UV-I 369 W/m 12,9 C 16,2 C 4,8 km/h (1 Bft) 97,56 %
27.09.2017 11:24 16,2 C 13,3 C 79 % 1022,8 hPa 0,0 l/m 2,7 km/h (1 Bft) O-NO 71 0 min 0,000 mm 1,9 UV-I 325 W/m 12,6 C 16,2 C 4,8 km/h (1 Bft) 100,00 %
27.09.2017 11:26 16,2 C 13,3 C 82 % 1022,8 hPa 0,0 l/m 3,4 km/h (1 Bft) NO 55 0 min 0,000 mm 1,8 UV-I 304 W/m 13,1 C 16,2 C 6,4 km/h (2 Bft) 97,87 %
27.09.2017 11:28 16,2 C 13,3 C 81 % 1022,9 hPa 0,0 l/m 6,7 km/h (2 Bft) O-NO 74 0 min 0,000 mm 1,8 UV-I 306 W/m 12,9 C 16,1 C 11,3 km/h (2 Bft) 100,00 %
27.09.2017 11:30 16,1 C 13,3 C 80 % 1022,8 hPa 0,0 l/m 5,8 km/h (2 Bft) NO 56 0 min 0,000 mm 1,8 UV-I 316 W/m 12,6 C 16,1 C 8,0 km/h (2 Bft) 100,00 %
27.09.2017 11:32 16,1 C 13,3 C 81 % 1022,8 hPa 0,0 l/m 2,9 km/h (1 Bft) NO 56 2 min 0,000 mm 1,9 UV-I 357 W/m 12,8 C 16,1 C 4,8 km/h (1 Bft) 100,00 %
27.09.2017 11:34 16,1 C 13,3 C 81 % 1022,9 hPa 0,0 l/m 4,0 km/h (1 Bft) O 101 2 min 0,000 mm 2,0 UV-I 386 W/m 12,8 C 16,1 C 6,4 km/h (2 Bft) 100,00 %
27.09.2017 11:36 16,2 C 13,3 C 81 % 1022,8 hPa 0,0 l/m 4,1 km/h (1 Bft) O-NO 67 2 min 0,000 mm 1,9 UV-I 376 W/m 12,9 C 16,2 C 6,4 km/h (2 Bft) 100,00 %
27.09.2017 11:38 16,3 C 13,3 C 80 % 1022,8 hPa 0,0 l/m 3,3 km/h (1 Bft) O-NO 67 2 min 0,000 mm 2,0 UV-I 401 W/m 12,8 C 16,3 C 4,8 km/h (1 Bft) 98,00 %
27.09.2017 11:40 16,3 C 13,3 C 80 % 1022,8 hPa 0,0 l/m 3,6 km/h (1 Bft) O 91 2 min 0,000 mm 1,9 UV-I 336 W/m 12,8 C 16,3 C 6,4 km/h (2 Bft) 100,00 %
27.09.2017 11:42 16,2 C 13,3 C 80 % 1022,8 hPa 0,0 l/m 2,5 km/h (1 Bft) O 91 2 min 0,000 mm 2,0 UV-I 368 W/m 12,7 C 16,2 C 4,8 km/h (1 Bft) 97,56 %
27.09.2017 11:44 16,3 C 13,3 C 80 % 1022,8 hPa 0,0 l/m 1,7 km/h (1 Bft) O 91 2 min 0,000 mm 2,0 UV-I 459 W/m 12,8 C 16,3 C 4,8 km/h (1 Bft) 100,00 %
27.09.2017 11:46 16,3 C 13,3 C 79 % 1022,8 hPa 0,0 l/m 2,0 km/h (1 Bft) O 91 0 min 0,000 mm 1,8 UV-I 313 W/m 12,6 C 16,3 C 4,8 km/h (1 Bft) 100,00 %
27.09.2017 11:48 16,4 C 13,3 C 80 % 1022,8 hPa 0,0 l/m 3,4 km/h (1 Bft) O-NO 66 2 min 0,000 mm 2,1 UV-I 389 W/m 12,9 C 16,4 C 6,4 km/h (2 Bft) 100,00 %
27.09.2017 11:50 16,5 C 13,3 C 79 % 1022,8 hPa 0,0 l/m 2,7 km/h (1 Bft) O-NO 61 2 min 0,000 mm 2,0 UV-I 379 W/m 12,8 C 16,5 C 6,4 km/h (2 Bft) 100,00 %
27.09.2017 11:52 16,4 C 13,3 C 78 % 1022,9 hPa 0,0 l/m 1,6 km/h (1 Bft) O-NO 61 2 min 0,000 mm 2,0 UV-I 387 W/m 12,6 C 16,4 C 3,2 km/h (1 Bft) 100,00 %
27.09.2017 11:54 16,6 C 13,3 C 80 % 1022,8 hPa 0,0 l/m 1,0 km/h (0 Bft) O-NO 61 2 min 0,000 mm 2,0 UV-I 360 W/m 13,1 C 16,6 C 3,2 km/h (1 Bft) 100,00 %
27.09.2017 11:56 16,7 C 13,3 C 80 % 1022,8 hPa 0,0 l/m 0,9 km/h (0 Bft) O-NO 61 0 min 0,000 mm 1,9 UV-I 300 W/m 13,2 C 16,7 C 3,2 km/h (1 Bft) 100,00 %
27.09.2017 11:58 16,6 C 13,3 C 79 % 1022,8 hPa 0,0 l/m 3,7 km/h (1 Bft) O-NO 61 0 min 0,000 mm 1,8 UV-I 272 W/m 12,9 C 16,6 C 4,8 km/h (1 Bft) 100,00 %
27.09.2017 12:00 16,6 C 13,3 C 80 % 1022,8 hPa 0,0 l/m 4,2 km/h (1 Bft) O-NO 61 0 min 0,203 mm 1,9 UV-I 324 W/m 13,1 C 16,6 C 6,4 km/h (2 Bft) 100,00 %
27.09.2017 12:02 16,7 C 13,3 C 80 % 1022,8 hPa 0,0 l/m 0,9 km/h (0 Bft) O-NO 61 0 min 0,000 mm 2,0 UV-I 340 W/m 13,2 C 16,7 C 3,2 km/h (1 Bft) 100,00 %
27.09.2017 12:04 16,8 C 13,3 C 81 % 1022,8 hPa 0,0 l/m 0,2 km/h (0 Bft) O-NO 61 0 min 0,000 mm 1,9 UV-I 295 W/m 13,5 C 16,8 C 1,6 km/h (1 Bft) 100,00 %
27.09.2017 12:06 16,9 C 13,3 C 80 % 1022,7 hPa 0,0 l/m 2,4 km/h (1 Bft) O 84 0 min 0,000 mm 2,0 UV-I 313 W/m 13,4 C 16,9 C 4,8 km/h (1 Bft) 100,00 %
27.09.2017 12:08 16,9 C 13,3 C 79 % 1022,8 hPa 0,0 l/m 3,4 km/h (1 Bft) O-SO 106 0 min 0,000 mm 2,0 UV-I 306 W/m 13,2 C 16,9 C 4,8 km/h (1 Bft) 100,00 %
27.09.2017 12:10 16,9 C 13,3 C 79 % 1022,7 hPa 0,0 l/m 0,6 km/h (0 Bft) O-SO 106 0 min 0,000 mm 1,9 UV-I 268 W/m 13,2 C 16,9 C 1,6 km/h (1 Bft) 100,00 %
27.09.2017 12:12 16,8 C 13,3 C 80 % 1022,7 hPa 0,0 l/m 2,4 km/h (1 Bft) O-SO 105 0 min 0,000 mm 1,9 UV-I 252 W/m 13,3 C 16,8 C 3,2 km/h (1 Bft) 100,00 %
27.09.2017 12:14 16,8 C 13,3 C 79 % 1022,7 hPa 0,0 l/m 0,7 km/h (0 Bft) O-SO 105 0 min 0,000 mm 1,9 UV-I 241 W/m 13,1 C 16,8 C 3,2 km/h (1 Bft) 100,00 %
27.09.2017 12:16 16,7 C 13,3 C 81 % 1022,6 hPa 0,0 l/m 0,2 km/h (0 Bft) O-SO 105 0 min 0,000 mm 2,0 UV-I 255 W/m 13,4 C 16,7 C 1,6 km/h (1 Bft) 100,00 %
27.09.2017 12:18 16,7 C 13,3 C 80 % 1022,6 hPa 0,0 l/m 0,4 km/h (0 Bft) N 355 0 min 0,000 mm 2,2 UV-I 314 W/m 13,2 C 16,7 C 1,6 km/h (1 Bft) 98,00 %
27.09.2017 12:20 16,8 C 13,3 C 82 % 1022,6 hPa 0,0 l/m 1,6 km/h (1 Bft) N 355 2 min 0,000 mm 2,4 UV-I 420 W/m 13,7 C 16,8 C 4,8 km/h (1 Bft) 100,00 %
27.09.2017 12:22 16,9 C 13,3 C 81 % 1022,6 hPa 0,0 l/m 1,7 km/h (1 Bft) W-NW 300 2 min 0,000 mm 2,7 UV-I 471 W/m 13,6 C 16,9 C 4,8 km/h (1 Bft) 98,21 %
27.09.2017 12:24 17,2 C 13,3 C 80 % 1022,6 hPa 0,0 l/m 2,6 km/h (1 Bft) W-NW 300 2 min 0,000 mm 3,0 UV-I 729 W/m 13,7 C 17,2 C 4,8 km/h (1 Bft) 98,00 %
27.09.2017 12:26 17,4 C 13,3 C 78 % 1022,6 hPa 0,0 l/m 0,9 km/h (0 Bft) W-NW 300 2 min 0,000 mm 3,1 UV-I 728 W/m 13,5 C 17,4 C 3,2 km/h (1 Bft) 100,00 %
27.09.2017 12:28 17,7 C 13,3 C 78 % 1022,5 hPa 0,0 l/m 2,0 km/h (1 Bft) O-SO 115 2 min 0,000 mm 3,1 UV-I 680 W/m 13,8 C 17,7 C 6,4 km/h (2 Bft) 98,57 %
27.09.2017 12:30 17,8 C 13,3 C 77 % 1022,6 hPa 0,0 l/m 2,8 km/h (1 Bft) O 80 2 min 0,000 mm 2,7 UV-I 544 W/m 13,7 C 17,8 C 4,8 km/h (1 Bft) 97,87 %
27.09.2017 12:32 17,9 C 13,3 C 77 % 1022,6 hPa 0,0 l/m 4,2 km/h (1 Bft) O-NO 74 2 min 0,000 mm 2,6 UV-I 475 W/m 13,8 C 17,9 C 6,4 km/h (2 Bft) 97,44 %
27.09.2017 12:34 17,9 C 13,3 C 75 % 1022,6 hPa 0,0 l/m 2,7 km/h (1 Bft) O-SO 109 2 min 0,000 mm 2,6 UV-I 491 W/m 13,4 C 17,9 C 4,8 km/h (1 Bft) 98,00 %
27.09.2017 12:36 17,8 C 13,3 C 75 % 1022,5 hPa 0,0 l/m 2,2 km/h (1 Bft) O-SO 109 2 min 0,000 mm 2,6 UV-I 438 W/m 13,3 C 17,8 C 3,2 km/h (1 Bft) 95,12 %
27.09.2017 12:38 17,7 C 13,3 C 76 % 1022,6 hPa 0,0 l/m 1,4 km/h (1 Bft) O-SO 109 2 min 0,000 mm 2,6 UV-I 435 W/m 13,4 C 17,7 C 3,2 km/h (1 Bft) 98,11 %
27.09.2017 12:40 17,7 C 13,3 C 76 % 1022,5 hPa 0,0 l/m 0,5 km/h (0 Bft) O-SO 109 2 min 0,000 mm 2,3 UV-I 425 W/m 13,4 C 17,7 C 1,6 km/h (1 Bft) 94,00 %
27.09.2017 12:42 17,7 C 13,3 C 76 % 1022,5 hPa 0,0 l/m 1,1 km/h (1 Bft) N-NO 26 0 min 0,000 mm 2,3 UV-I 345 W/m 13,4 C 17,7 C 3,2 km/h (1 Bft) 100,00 %
27.09.2017 12:44 17,6 C 13,3 C 76 % 1022,5 hPa 0,0 l/m 2,6 km/h (1 Bft) N-NO 17 0 min 0,000 mm 2,2 UV-I 290 W/m 13,3 C 17,6 C 4,8 km/h (1 Bft) 96,00 %
27.09.2017 12:46 17,6 C 13,3 C 77 % 1022,5 hPa 0,0 l/m 2,0 km/h (1 Bft) NW 317 0 min 0,000 mm 2,2 UV-I 314 W/m 13,5 C 17,6 C 4,8 km/h (1 Bft) 98,11 %
27.09.2017 12:48 17,7 C 13,3 C 78 % 1022,5 hPa 0,0 l/m 2,4 km/h (1 Bft) N-NO 29 2 min 0,000 mm 2,7 UV-I 368 W/m 13,8 C 17,7 C 6,4 km/h (2 Bft) 97,56 %
27.09.2017 12:50 17,8 C 13,3 C 78 % 1022,4 hPa 0,0 l/m 0,2 km/h (0 Bft) N-NO 29 2 min 0,000 mm 3,0 UV-I 374 W/m 13,9 C 17,8 C 1,6 km/h (1 Bft) 97,87 %
27.09.2017 12:52 18,2 C 13,3 C 77 % 1022,4 hPa 0,0 l/m 2,4 km/h (1 Bft) N-NO 29 2 min 0,000 mm 3,3 UV-I 374 W/m 14,1 C 18,2 C 4,8 km/h (1 Bft) 96,00 %
27.09.2017 12:54 18,4 C 13,3 C 78 % 1022,4 hPa 0,0 l/m 3,6 km/h (1 Bft) NO 55 0 min 0,000 mm 2,4 UV-I 332 W/m 14,5 C 18,4 C 6,4 km/h (2 Bft) 97,56 %
27.09.2017 12:56 18,5 C 13,3 C 75 % 1022,4 hPa 0,0 l/m 3,2 km/h (1 Bft) O-NO 58 0 min 0,000 mm 2,2 UV-I 291 W/m 14,0 C 18,5 C 8,0 km/h (2 Bft) 98,00 %
27.09.2017 12:58 18,6 C 13,3 C 74 % 1022,5 hPa 0,0 l/m 9,3 km/h (2 Bft) NO 36 0 min 0,000 mm 2,2 UV-I 308 W/m 13,9 C 17,4 C 14,5 km/h (3 Bft) 96,23 %
27.09.2017 13:00 18,6 C 13,3 C 75 % 1022,4 hPa 0,0 l/m 6,5 km/h (2 Bft) O 80 0 min 0,229 mm 2,1 UV-I 299 W/m 14,1 C 18,6 C 8,0 km/h (2 Bft) 100,00 %
27.09.2017 13:02 18,5 C 13,3 C 74 % 1022,4 hPa 0,0 l/m 4,7 km/h (1 Bft) NO 53 0 min 0,000 mm 2,1 UV-I 295 W/m 13,8 C 18,5 C 6,4 km/h (2 Bft) 100,00 %
27.09.2017 13:04 18,5 C 13,3 C 74 % 1022,4 hPa 0,0 l/m 5,3 km/h (1 Bft) N-NO 26 0 min 0,000 mm 2,1 UV-I 298 W/m 13,8 C 18,5 C 8,0 km/h (2 Bft) 100,00 %
27.09.2017 13:06 18,6 C 13,3 C 74 % 1022,4 hPa 0,0 l/m 8,2 km/h (2 Bft) O-NO 69 0 min 0,000 mm 2,1 UV-I 308 W/m 13,9 C 17,8 C 12,9 km/h (3 Bft) 100,00 %
27.09.2017 13:08 18,6 C 13,3 C 74 % 1022,4 hPa 0,0 l/m 7,7 km/h (2 Bft) O-NO 58 0 min 0,000 mm 2,1 UV-I 333 W/m 13,9 C 18,0 C 12,9 km/h (3 Bft) 100,00 %
27.09.2017 13:10 18,7 C 13,3 C 76 % 1022,4 hPa 0,0 l/m 5,5 km/h (1 Bft) NO 51 2 min 0,000 mm 2,2 UV-I 360 W/m 14,4 C 18,7 C 9,7 km/h (2 Bft) 98,18 %
27.09.2017 13:12 18,8 C 13,3 C 75 % 1022,3 hPa 0,0 l/m 5,3 km/h (1 Bft) NO 51 2 min 0,000 mm 2,4 UV-I 399 W/m 14,3 C 18,8 C 8,0 km/h (2 Bft) 100,00 %
27.09.2017 13:14 18,9 C 13,3 C 75 % 1022,3 hPa 0,0 l/m 8,4 km/h (2 Bft) NO 41 2 min 0,000 mm 2,9 UV-I 615 W/m 14,4 C 18,0 C 16,1 km/h (3 Bft) 100,00 %
27.09.2017 13:16 19,1 C 13,3 C 75 % 1022,3 hPa 0,0 l/m 11,3 km/h (2 Bft) O-NO 61 2 min 0,000 mm 2,8 UV-I 601 W/m 14,6 C 17,2 C 16,1 km/h (3 Bft) 100,00 %
27.09.2017 13:18 19,1 C 13,3 C 73 % 1022,4 hPa 0,0 l/m 12,0 km/h (2 Bft) O-NO 65 2 min 0,000 mm 2,9 UV-I 611 W/m 14,1 C 17,0 C 17,7 km/h (3 Bft) 100,00 %
27.09.2017 13:20 19,1 C 13,3 C 72 % 1022,4 hPa 0,0 l/m 12,4 km/h (3 Bft) NO 48 2 min 0,000 mm 2,4 UV-I 658 W/m 13,9 C 16,9 C 20,9 km/h (4 Bft) 100,00 %
27.09.2017 13:22 19,1 C 13,3 C 74 % 1022,4 hPa 0,0 l/m 9,3 km/h (2 Bft) NO 38 2 min 0,000 mm 2,3 UV-I 353 W/m 14,4 C 17,9 C 14,5 km/h (3 Bft) 100,00 %
27.09.2017 13:24 18,9 C 13,3 C 74 % 1022,3 hPa 0,0 l/m 5,3 km/h (1 Bft) N-NO 19 0 min 0,000 mm 2,2 UV-I 346 W/m 14,2 C 18,9 C 9,7 km/h (2 Bft) 98,11 %
27.09.2017 13:26 18,9 C 13,3 C 75 % 1022,2 hPa 0,0 l/m 5,3 km/h (1 Bft) N-NO 12 2 min 0,000 mm 2,6 UV-I 445 W/m 14,4 C 18,9 C 12,9 km/h (3 Bft) 95,45 %
27.09.2017 13:28 19,1 C 13,3 C 74 % 1022,3 hPa 0,0 l/m 9,9 km/h (2 Bft) O-NO 76 2 min 0,000 mm 2,5 UV-I 519 W/m 14,4 C 17,7 C 16,1 km/h (3 Bft) 97,56 %
27.09.2017 13:30 19,2 C 13,3 C 71 % 1022,3 hPa 0,0 l/m 7,8 km/h (2 Bft) O-NO 69 2 min 0,000 mm 2,5 UV-I 509 W/m 13,8 C 18,6 C 12,9 km/h (3 Bft) 98,00 %
27.09.2017 13:32 19,2 C 13,3 C 73 % 1022,3 hPa 0,0 l/m 6,4 km/h (2 Bft) NO 46 2 min 0,000 mm 2,4 UV-I 528 W/m 14,2 C 19,2 C 11,3 km/h (2 Bft) 97,87 %
27.09.2017 13:34 19,2 C 13,3 C 72 % 1022,4 hPa 0,0 l/m 7,6 km/h (2 Bft) O-NO 61 2 min 0,000 mm 2,2 UV-I 378 W/m 14,0 C 18,7 C 12,9 km/h (3 Bft) 96,23 %
27.09.2017 13:36 19,2 C 13,3 C 72 % 1022,4 hPa 0,0 l/m 13,8 km/h (3 Bft) O-NO 63 2 min 0,000 mm 2,2 UV-I 390 W/m 14,0 C 16,6 C 17,7 km/h (3 Bft) 97,56 %
27.09.2017 13:38 19,1 C 13,3 C 71 % 1022,4 hPa 0,0 l/m 9,0 km/h (2 Bft) O-NO 67 2 min 0,000 mm 2,4 UV-I 498 W/m 13,7 C 18,0 C 12,9 km/h (3 Bft) 98,11 %
27.09.2017 13:40 19,2 C 13,3 C 73 % 1022,3 hPa 0,0 l/m 6,6 km/h (2 Bft) O 79 2 min 0,000 mm 2,6 UV-I 571 W/m 14,2 C 19,1 C 9,7 km/h (2 Bft) 97,56 %
27.09.2017 13:42 19,3 C 13,3 C 72 % 1022,3 hPa 0,0 l/m 12,8 km/h (3 Bft) NO 49 2 min 0,000 mm 2,6 UV-I 602 W/m 14,1 C 17,0 C 19,3 km/h (3 Bft) 98,00 %
27.09.2017 13:44 19,3 C 13,3 C 71 % 1022,4 hPa 0,0 l/m 13,7 km/h (3 Bft) NO 44 2 min 0,000 mm 2,5 UV-I 509 W/m 13,9 C 16,7 C 22,5 km/h (4 Bft) 97,56 %
27.09.2017 13:46 19,3 C 13,3 C 71 % 1022,3 hPa 0,0 l/m 15,1 km/h (3 Bft) NO 48 2 min 0,000 mm 2,5 UV-I 503 W/m 13,9 C 16,4 C 22,5 km/h (4 Bft) 98,00 %
27.09.2017 13:48 19,3 C 13,3 C 71 % 1022,4 hPa 0,0 l/m 15,9 km/h (3 Bft) O-NO 67 2 min 0,000 mm 2,5 UV-I 484 W/m 13,9 C 16,2 C 22,5 km/h (4 Bft) 96,23 %
27.09.2017 13:50 19,3 C 13,3 C 71 % 1022,4 hPa 0,0 l/m 15,5 km/h (3 Bft) O-NO 63 2 min 0,000 mm 2,4 UV-I 497 W/m 13,9 C 16,3 C 22,5 km/h (4 Bft) 97,73 %
27.09.2017 13:52 19,2 C 13,3 C 72 % 1022,4 hPa 0,0 l/m 12,6 km/h (3 Bft) O-NO 76 2 min 0,000 mm 2,2 UV-I 434 W/m 14,0 C 16,9 C 16,1 km/h (3 Bft) 97,44 %
27.09.2017 13:54 19,1 C 13,3 C 71 % 1022,4 hPa 0,0 l/m 13,3 km/h (3 Bft) O-NO 73 0 min 0,000 mm 1,9 UV-I 261 W/m 13,7 C 16,6 C 17,7 km/h (3 Bft) 97,87 %
27.09.2017 13:56 18,9 C 13,3 C 73 % 1022,3 hPa 0,0 l/m 7,4 km/h (2 Bft) NO 51 0 min 0,000 mm 1,9 UV-I 267 W/m 13,9 C 18,5 C 12,9 km/h (3 Bft) 96,43 %
27.09.2017 13:58 18,9 C 13,3 C 74 % 1022,3 hPa 0,0 l/m 5,7 km/h (1 Bft) O-SO 105 0 min 0,000 mm 1,9 UV-I 273 W/m 14,2 C 18,9 C 8,0 km/h (2 Bft) 97,73 %
27.09.2017 14:00 18,9 C 13,3 C 74 % 1022,2 hPa 0,0 l/m 9,1 km/h (2 Bft) O-NO 65 0 min 0,279 mm 1,8 UV-I 277 W/m 14,2 C 17,8 C 16,1 km/h (3 Bft) 97,73 %
27.09.2017 14:02 18,9 C 13,3 C 72 % 1022,2 hPa 0,0 l/m 9,4 km/h (2 Bft) NO 56 0 min 0,000 mm 1,8 UV-I 289 W/m 13,7 C 17,6 C 12,9 km/h (3 Bft) 97,73 %
27.09.2017 14:04 18,9 C 13,3 C 73 % 1022,2 hPa 0,0 l/m 8,8 km/h (2 Bft) O-NO 70 0 min 0,000 mm 1,8 UV-I 299 W/m 13,9 C 17,9 C 14,5 km/h (3 Bft) 94,00 %
27.09.2017 14:06 18,9 C 13,3 C 72 % 1022,2 hPa 0,0 l/m 8,9 km/h (2 Bft) NO 34 2 min 0,000 mm 2,0 UV-I 371 W/m 13,7 C 17,8 C 14,5 km/h (3 Bft) 97,87 %
27.09.2017 14:08 19,0 C 13,3 C 74 % 1022,3 hPa 0,0 l/m 11,2 km/h (2 Bft) O-NO 60 2 min 0,000 mm 2,0 UV-I 364 W/m 14,3 C 17,1 C 16,1 km/h (3 Bft) 97,56 %
27.09.2017 14:10 19,1 C 13,3 C 73 % 1022,2 hPa 0,0 l/m 9,7 km/h (2 Bft) O-NO 62 2 min 0,000 mm 2,0 UV-I 384 W/m 14,1 C 17,8 C 14,5 km/h (3 Bft) 98,21 %
27.09.2017 14:12 19,2 C 13,3 C 73 % 1022,2 hPa 0,0 l/m 12,4 km/h (3 Bft) O-NO 63 2 min 0,000 mm 2,2 UV-I 434 W/m 14,2 C 17,0 C 19,3 km/h (3 Bft) 96,00 %
27.09.2017 14:14 19,3 C 13,3 C 73 % 1022,2 hPa 0,0 l/m 10,1 km/h (2 Bft) N-NO 28 2 min 0,000 mm 2,2 UV-I 478 W/m 14,3 C 17,8 C 16,1 km/h (3 Bft) 95,12 %
27.09.2017 14:16 19,4 C 13,3 C 72 % 1022,2 hPa 0,0 l/m 10,8 km/h (2 Bft) NO 41 2 min 0,000 mm 2,1 UV-I 417 W/m 14,2 C 17,7 C 17,7 km/h (3 Bft) 97,87 %
27.09.2017 14:18 19,5 C 13,3 C 73 % 1022,1 hPa 0,0 l/m 13,8 km/h (3 Bft) O-NO 63 2 min 0,000 mm 2,1 UV-I 444 W/m 14,5 C 17,0 C 19,3 km/h (3 Bft) 97,37 %
27.09.2017 14:20 19,5 C 13,3 C 70 % 1022,1 hPa 0,0 l/m 15,8 km/h (3 Bft) NO 42 2 min 0,000 mm 2,1 UV-I 431 W/m 13,9 C 16,5 C 22,5 km/h (4 Bft) 94,44 %
27.09.2017 14:22 19,5 C 13,3 C 70 % 1022,1 hPa 0,0 l/m 12,9 km/h (3 Bft) O 79 2 min 0,000 mm 2,1 UV-I 451 W/m 13,9 C 17,2 C 17,7 km/h (3 Bft) 96,23 %
27.09.2017 14:24 19,5 C 13,3 C 71 % 1022,1 hPa 0,0 l/m 10,5 km/h (2 Bft) NO 51 2 min 0,000 mm 2,1 UV-I 416 W/m 14,1 C 17,9 C 16,1 km/h (3 Bft) 94,44 %
27.09.2017 14:26 19,4 C 13,3 C 71 % 1022,1 hPa 0,0 l/m 13,7 km/h (3 Bft) O-NO 67 2 min 0,000 mm 2,1 UV-I 421 W/m 14,0 C 16,9 C 19,3 km/h (3 Bft) 96,00 %
27.09.2017 14:28 19,4 C 13,3 C 72 % 1022,1 hPa 0,0 l/m 10,3 km/h (2 Bft) O-NO 59 2 min 0,000 mm 2,0 UV-I 419 W/m 14,2 C 17,9 C 16,1 km/h (3 Bft) 93,62 %
27.09.2017 14:30 19,3 C 13,3 C 71 % 1022,1 hPa 0,0 l/m 13,5 km/h (3 Bft) O-NO 59 2 min 0,000 mm 2,0 UV-I 404 W/m 13,9 C 16,8 C 19,3 km/h (3 Bft) 94,00 %
27.09.2017 14:32 19,3 C 13,3 C 71 % 1022,1 hPa 0,0 l/m 14,0 km/h (3 Bft) NO 49 2 min 0,000 mm 1,9 UV-I 338 W/m 13,9 C 16,7 C 19,3 km/h (3 Bft) 95,45 %
27.09.2017 14:34 19,3 C 13,3 C 70 % 1022,1 hPa 0,0 l/m 15,0 km/h (3 Bft) O-NO 65 2 min 0,000 mm 1,9 UV-I 356 W/m 13,7 C 16,4 C 19,3 km/h (3 Bft) 96,23 %
27.09.2017 14:36 19,2 C 13,3 C 70 % 1022,0 hPa 0,0 l/m 13,9 km/h (3 Bft) NO 53 2 min 0,000 mm 1,8 UV-I 325 W/m 13,6 C 16,6 C 19,3 km/h (3 Bft) 93,18 %
27.09.2017 14:38 19,2 C 13,3 C 72 % 1022,1 hPa 0,0 l/m 14,1 km/h (3 Bft) O-NO 57 0 min 0,000 mm 1,7 UV-I 304 W/m 14,0 C 16,5 C 17,7 km/h (3 Bft) 93,02 %
27.09.2017 14:40 19,2 C 13,3 C 71 % 1022,1 hPa 0,0 l/m 13,2 km/h (3 Bft) NO 35 0 min 0,000 mm 1,6 UV-I 255 W/m 13,8 C 16,8 C 17,7 km/h (3 Bft) 94,64 %
27.09.2017 14:42 19,1 C 13,3 C 71 % 1022,1 hPa 0,0 l/m 10,2 km/h (2 Bft) O-NO 66 0 min 0,000 mm 1,6 UV-I 241 W/m 13,7 C 17,6 C 14,5 km/h (3 Bft) 96,15 %
27.09.2017 14:44 19,1 C 13,3 C 72 % 1022,1 hPa 0,0 l/m 13,2 km/h (3 Bft) NO 55 0 min 0,000 mm 1,5 UV-I 232 W/m 13,9 C 16,6 C 17,7 km/h (3 Bft) 93,55 %
27.09.2017 14:46 19,0 C 13,3 C 71 % 1022,1 hPa 0,0 l/m 11,1 km/h (2 Bft) O-NO 58 0 min 0,000 mm 1,5 UV-I 234 W/m 13,6 C 17,2 C 17,7 km/h (3 Bft) 100,00 %
27.09.2017 14:48 19,0 C 13,3 C 72 % 1022,1 hPa 0,0 l/m 12,4 km/h (3 Bft) O 86 0 min 0,000 mm 1,5 UV-I 258 W/m 13,8 C 16,8 C 17,7 km/h (3 Bft) 94,29 %
27.09.2017 14:50 19,0 C 13,3 C 72 % 1022,1 hPa 0,0 l/m 11,8 km/h (2 Bft) O-NO 68 0 min 0,000 mm 1,5 UV-I 283 W/m 13,8 C 16,9 C 17,7 km/h (3 Bft) 97,62 %
27.09.2017 14:52 19,0 C 13,3 C 73 % 1022,1 hPa 0,0 l/m 9,7 km/h (2 Bft) O-NO 59 0 min 0,000 mm 1,4 UV-I 207 W/m 14,0 C 17,6 C 17,7 km/h (3 Bft) 96,23 %
27.09.2017 14:54 18,9 C 13,3 C 74 % 1022,0 hPa 0,0 l/m 9,8 km/h (2 Bft) NO 42 0 min 0,000 mm 1,3 UV-I 180 W/m 14,2 C 17,5 C 17,7 km/h (3 Bft) 100,00 %
27.09.2017 14:56 18,8 C 13,3 C 73 % 1022,1 hPa 0,0 l/m 12,4 km/h (3 Bft) N-NO 24 0 min 0,000 mm 1,3 UV-I 171 W/m 13,9 C 16,5 C 17,7 km/h (3 Bft) 100,00 %
27.09.2017 14:58 18,7 C 13,3 C 73 % 1022,1 hPa 0,0 l/m 6,9 km/h (2 Bft) NO 40 0 min 0,000 mm 1,3 UV-I 162 W/m 13,8 C 18,5 C 12,9 km/h (3 Bft) 100,00 %
27.09.2017 15:00 18,6 C 13,3 C 75 % 1022,1 hPa 0,0 l/m 11,9 km/h (2 Bft) O-NO 63 0 min 0,229 mm 1,2 UV-I 155 W/m 14,1 C 16,4 C 17,7 km/h (3 Bft) 98,31 %
27.09.2017 15:02 18,6 C 13,3 C 74 % 1022,1 hPa 0,0 l/m 10,5 km/h (2 Bft) O 80 0 min 0,000 mm 1,2 UV-I 150 W/m 13,9 C 16,9 C 19,3 km/h (3 Bft) 100,00 %
27.09.2017 15:04 18,6 C 13,3 C 75 % 1022,1 hPa 0,0 l/m 11,1 km/h (2 Bft) NO 48 0 min 0,000 mm 1,2 UV-I 140 W/m 14,1 C 16,7 C 17,7 km/h (3 Bft) 100,00 %
27.09.2017 15:06 18,6 C 13,3 C 74 % 1022,1 hPa 0,0 l/m 11,7 km/h (2 Bft) NO 51 0 min 0,000 mm 1,1 UV-I 137 W/m 13,9 C 16,5 C 16,1 km/h (3 Bft) 100,00 %
27.09.2017 15:08 18,6 C 13,3 C 75 % 1022,0 hPa 0,0 l/m 13,0 km/h (3 Bft) O 86 0 min 0,000 mm 1,1 UV-I 132 W/m 14,1 C 16,1 C 19,3 km/h (3 Bft) 100,00 %
27.09.2017 15:10 18,5 C 13,3 C 74 % 1022,0 hPa 0,0 l/m 11,2 km/h (2 Bft) O-NO 71 0 min 0,000 mm 1,1 UV-I 134 W/m 13,8 C 16,6 C 16,1 km/h (3 Bft) 100,00 %
27.09.2017 15:12 18,5 C 13,3 C 75 % 1022,0 hPa 0,0 l/m 13,3 km/h (3 Bft) O-NO 62 0 min 0,000 mm 1,0 UV-I 129 W/m 14,0 C 15,9 C 20,9 km/h (4 Bft) 100,00 %
27.09.2017 15:14 18,5 C 13,3 C 75 % 1022,1 hPa 0,0 l/m 13,1 km/h (3 Bft) NO 46 0 min 0,000 mm 1,0 UV-I 124 W/m 14,0 C 16,0 C 19,3 km/h (3 Bft) 100,00 %
27.09.2017 15:16 18,5 C 13,3 C 75 % 1022,0 hPa 0,0 l/m 13,0 km/h (3 Bft) O-NO 59 0 min 0,000 mm 1,0 UV-I 120 W/m 14,0 C 16,0 C 17,7 km/h (3 Bft) 100,00 %
27.09.2017 15:18 18,5 C 13,3 C 75 % 1022,0 hPa 0,0 l/m 11,2 km/h (2 Bft) O 90 0 min 0,000 mm 1,0 UV-I 118 W/m 14,0 C 16,6 C 16,1 km/h (3 Bft) 100,00 %
27.09.2017 15:20 18,4 C 13,3 C 75 % 1022,0 hPa 0,0 l/m 13,1 km/h (3 Bft) O-NO 75 0 min 0,000 mm 0,9 UV-I 114 W/m 13,9 C 15,8 C 19,3 km/h (3 Bft) 100,00 %
27.09.2017 15:22 18,4 C 13,3 C 75 % 1022,0 hPa 0,0 l/m 10,2 km/h (2 Bft) O 80 0 min 0,000 mm 0,9 UV-I 114 W/m 13,9 C 16,8 C 16,1 km/h (3 Bft) 100,00 %
27.09.2017 15:24 18,4 C 13,3 C 75 % 1022,0 hPa 0,0 l/m 10,9 km/h (2 Bft) O-NO 67 0 min 0,000 mm 0,9 UV-I 114 W/m 13,9 C 16,6 C 17,7 km/h (3 Bft) 100,00 %
27.09.2017 15:26 18,4 C 13,3 C 76 % 1022,0 hPa 0,0 l/m 11,2 km/h (2 Bft) NO 55 0 min 0,000 mm 0,9 UV-I 114 W/m 14,1 C 16,5 C 16,1 km/h (3 Bft) 100,00 %
27.09.2017 15:28 18,4 C 13,3 C 77 % 1022,0 hPa 0,0 l/m 11,3 km/h (2 Bft) O 82 0 min 0,000 mm 0,8 UV-I 113 W/m 14,3 C 16,4 C 16,1 km/h (3 Bft) 100,00 %
27.09.2017 15:30 18,3 C 13,3 C 77 % 1022,0 hPa 0,0 l/m 10,4 km/h (2 Bft) O-NO 68 0 min 0,000 mm 0,8 UV-I 113 W/m 14,2 C 16,6 C 19,3 km/h (3 Bft) 97,56 %
27.09.2017 15:32 18,3 C 13,3 C 77 % 1022,0 hPa 0,0 l/m 11,0 km/h (2 Bft) O-NO 75 0 min 0,000 mm 0,8 UV-I 114 W/m 14,2 C 16,4 C 14,5 km/h (3 Bft) 100,00 %
27.09.2017 15:34 18,3 C 13,3 C 78 % 1022,0 hPa 0,0 l/m 8,2 km/h (2 Bft) NO 53 0 min 0,000 mm 0,8 UV-I 117 W/m 14,4 C 17,5 C 11,3 km/h (2 Bft) 100,00 %
27.09.2017 15:36 18,2 C 13,3 C 77 % 1022,0 hPa 0,0 l/m 8,9 km/h (2 Bft) O 80 0 min 0,000 mm 0,8 UV-I 118 W/m 14,1 C 17,1 C 14,5 km/h (3 Bft) 98,11 %
27.09.2017 15:38 18,3 C 13,3 C 77 % 1022,0 hPa 0,0 l/m 8,9 km/h (2 Bft) NO 53 0 min 0,000 mm 0,8 UV-I 118 W/m 14,2 C 17,2 C 14,5 km/h (3 Bft) 100,00 %
27.09.2017 15:40 18,3 C 13,3 C 77 % 1022,0 hPa 0,0 l/m 10,7 km/h (2 Bft) O-NO 62 0 min 0,000 mm 0,7 UV-I 118 W/m 14,2 C 16,5 C 16,1 km/h (3 Bft) 100,00 %
27.09.2017 15:42 18,3 C 13,3 C 77 % 1022,0 hPa 0,0 l/m 7,4 km/h (2 Bft) O-NO 57 0 min 0,000 mm 0,7 UV-I 120 W/m 14,2 C 17,8 C 14,5 km/h (3 Bft) 100,00 %
27.09.2017 15:44 18,3 C 13,3 C 78 % 1022,0 hPa 0,0 l/m 9,3 km/h (2 Bft) O-NO 59 0 min 0,000 mm 0,7 UV-I 122 W/m 14,4 C 17,0 C 14,5 km/h (3 Bft) 100,00 %
27.09.2017 15:46 18,3 C 13,3 C 77 % 1022,0 hPa 0,0 l/m 9,9 km/h (2 Bft) NO 45 0 min 0,000 mm 0,7 UV-I 127 W/m 14,2 C 16,8 C 14,5 km/h (3 Bft) 100,00 %
27.09.2017 15:48 18,3 C 13,3 C 77 % 1022,0 hPa 0,0 l/m 7,2 km/h (2 Bft) O-NO 59 0 min 0,000 mm 0,7 UV-I 132 W/m 14,2 C 17,9 C 12,9 km/h (3 Bft) 100,00 %
27.09.2017 15:50 18,3 C 13,3 C 77 % 1022,0 hPa 0,0 l/m 13,1 km/h (3 Bft) O-NO 61 0 min 0,000 mm 0,7 UV-I 137 W/m 14,2 C 15,7 C 16,1 km/h (3 Bft) 100,00 %
27.09.2017 15:52 18,3 C 13,3 C 77 % 1022,0 hPa 0,0 l/m 6,6 km/h (2 Bft) O-NO 63 0 min 0,000 mm 0,7 UV-I 142 W/m 14,2 C 18,2 C 14,5 km/h (3 Bft) 100,00 %
27.09.2017 15:54 18,4 C 13,3 C 78 % 1021,9 hPa 0,0 l/m 4,9 km/h (1 Bft) O-NO 63 0 min 0,000 mm 0,7 UV-I 162 W/m 14,5 C 18,4 C 8,0 km/h (2 Bft) 100,00 %
27.09.2017 15:56 18,4 C 13,3 C 78 % 1022,0 hPa 0,0 l/m 6,0 km/h (2 Bft) O-NO 61 0 min 0,000 mm 0,7 UV-I 169 W/m 14,5 C 18,4 C 8,0 km/h (2 Bft) 100,00 %
27.09.2017 15:58 18,5 C 13,3 C 78 % 1022,0 hPa 0,0 l/m 6,6 km/h (2 Bft) O-NO 63 0 min 0,000 mm 0,7 UV-I 200 W/m 14,6 C 18,4 C 8,0 km/h (2 Bft) 98,21 %
27.09.2017 16:00 18,5 C 13,3 C 77 % 1021,9 hPa 0,0 l/m 8,3 km/h (2 Bft) O 83 0 min 0,101 mm 0,7 UV-I 187 W/m 14,4 C 17,6 C 12,9 km/h (3 Bft) 100,00 %
27.09.2017 16:02 18,6 C 13,3 C 77 % 1021,9 hPa 0,0 l/m 8,4 km/h (2 Bft) O 80 0 min 0,000 mm 0,7 UV-I 179 W/m 14,5 C 17,7 C 14,5 km/h (3 Bft) 96,23 %
27.09.2017 16:04 18,6 C 13,3 C 77 % 1021,9 hPa 0,0 l/m 10,5 km/h (2 Bft) NO 53 0 min 0,000 mm 0,8 UV-I 228 W/m 14,5 C 16,9 C 16,1 km/h (3 Bft) 100,00 %
27.09.2017 16:06 18,7 C 13,3 C 77 % 1021,9 hPa 0,0 l/m 8,4 km/h (2 Bft) NO 42 2 min 0,000 mm 0,9 UV-I 379 W/m 14,6 C 17,8 C 11,3 km/h (2 Bft) 100,00 %
27.09.2017 16:08 18,9 C 13,3 C 77 % 1021,9 hPa 0,0 l/m 7,9 km/h (2 Bft) NO 44 2 min 0,000 mm 1,0 UV-I 393 W/m 14,8 C 18,2 C 12,9 km/h (3 Bft) 97,56 %
27.09.2017 16:10 19,1 C 13,3 C 77 % 1021,9 hPa 0,0 l/m 8,7 km/h (2 Bft) NO 44 2 min 0,000 mm 1,0 UV-I 470 W/m 15,0 C 18,1 C 16,1 km/h (3 Bft) 100,00 %
27.09.2017 16:12 19,3 C 13,3 C 75 % 1021,9 hPa 0,0 l/m 13,2 km/h (3 Bft) NO 54 2 min 0,000 mm 1,0 UV-I 480 W/m 14,8 C 16,9 C 19,3 km/h (3 Bft) 100,00 %
27.09.2017 16:14 19,4 C 13,3 C 74 % 1021,9 hPa 0,0 l/m 13,1 km/h (3 Bft) O 90 2 min 0,000 mm 1,0 UV-I 477 W/m 14,6 C 17,0 C 19,3 km/h (3 Bft) 100,00 %
27.09.2017 16:16 19,5 C 13,3 C 74 % 1021,9 hPa 0,0 l/m 13,8 km/h (3 Bft) O 84 2 min 0,000 mm 1,0 UV-I 452 W/m 14,7 C 17,0 C 19,3 km/h (3 Bft) 97,87 %
27.09.2017 16:18 19,6 C 13,3 C 73 % 1021,9 hPa 0,0 l/m 11,4 km/h (2 Bft) O 80 2 min 0,000 mm 1,0 UV-I 448 W/m 14,6 C 17,7 C 17,7 km/h (3 Bft) 95,12 %
27.09.2017 16:20 19,6 C 13,3 C 72 % 1021,9 hPa 0,0 l/m 11,5 km/h (2 Bft) O-NO 61 2 min 0,000 mm 1,0 UV-I 419 W/m 14,4 C 17,7 C 17,7 km/h (3 Bft) 97,62 %
27.09.2017 16:22 19,7 C 13,3 C 73 % 1021,8 hPa 0,0 l/m 10,4 km/h (2 Bft) O 88 2 min 0,000 mm 1,0 UV-I 424 W/m 14,7 C 18,2 C 16,1 km/h (3 Bft) 98,33 %
27.09.2017 16:24 19,7 C 13,3 C 72 % 1021,9 hPa 0,0 l/m 13,1 km/h (3 Bft) O 101 2 min 0,000 mm 1,0 UV-I 423 W/m 14,5 C 17,4 C 20,9 km/h (4 Bft) 97,44 %
27.09.2017 16:26 19,7 C 13,3 C 72 % 1021,9 hPa 0,0 l/m 10,1 km/h (2 Bft) O 88 2 min 0,000 mm 0,9 UV-I 413 W/m 14,5 C 18,3 C 16,1 km/h (3 Bft) 97,87 %
27.09.2017 16:28 19,7 C 13,3 C 72 % 1021,9 hPa 0,0 l/m 11,6 km/h (2 Bft) O-NO 62 2 min 0,000 mm 0,9 UV-I 405 W/m 14,5 C 17,8 C 22,5 km/h (4 Bft) 97,87 %
27.09.2017 16:30 19,7 C 13,3 C 74 % 1021,9 hPa 0,0 l/m 10,6 km/h (2 Bft) NO 36 2 min 0,000 mm 0,9 UV-I 402 W/m 14,9 C 18,1 C 16,1 km/h (3 Bft) 96,23 %
27.09.2017 16:32 19,8 C 13,3 C 73 % 1021,9 hPa 0,0 l/m 13,2 km/h (3 Bft) O 82 2 min 0,000 mm 0,9 UV-I 395 W/m 14,8 C 17,5 C 20,9 km/h (4 Bft) 95,83 %
27.09.2017 16:34 19,8 C 13,3 C 72 % 1021,8 hPa 0,0 l/m 13,6 km/h (3 Bft) O-NO 63 2 min 0,000 mm 0,8 UV-I 364 W/m 14,6 C 17,4 C 17,7 km/h (3 Bft) 97,37 %
27.09.2017 16:36 19,7 C 13,3 C 72 % 1021,9 hPa 0,0 l/m 16,8 km/h (3 Bft) O-NO 71 2 min 0,000 mm 0,7 UV-I 317 W/m 14,5 C 16,5 C 24,1 km/h (4 Bft) 98,11 %
27.09.2017 16:38 19,6 C 13,3 C 72 % 1021,8 hPa 0,0 l/m 12,3 km/h (3 Bft) O-NO 67 2 min 0,000 mm 0,7 UV-I 350 W/m 14,4 C 17,5 C 19,3 km/h (3 Bft) 96,00 %
27.09.2017 16:40 19,5 C 13,3 C 72 % 1021,8 hPa 0,0 l/m 14,2 km/h (3 Bft) O-NO 75 2 min 0,000 mm 0,7 UV-I 278 W/m 14,3 C 16,8 C 20,9 km/h (4 Bft) 97,37 %
27.09.2017 16:42 19,5 C 13,3 C 74 % 1021,8 hPa 0,0 l/m 11,6 km/h (2 Bft) O-NO 66 2 min 0,000 mm 0,7 UV-I 305 W/m 14,7 C 17,6 C 17,7 km/h (3 Bft) 94,74 %
27.09.2017 16:44 19,5 C 13,3 C 73 % 1021,8 hPa 0,0 l/m 11,8 km/h (2 Bft) O-NO 72 2 min 0,000 mm 0,6 UV-I 264 W/m 14,5 C 17,5 C 16,1 km/h (3 Bft) 96,92 %
27.09.2017 16:46 19,4 C 13,3 C 73 % 1021,8 hPa 0,0 l/m 10,3 km/h (2 Bft) O-NO 57 2 min 0,000 mm 0,6 UV-I 199 W/m 14,4 C 17,9 C 19,3 km/h (3 Bft) 97,73 %
27.09.2017 16:48 19,4 C 13,3 C 73 % 1021,8 hPa 0,0 l/m 11,1 km/h (2 Bft) NO 55 2 min 0,000 mm 0,6 UV-I 222 W/m 14,4 C 17,6 C 20,9 km/h (4 Bft) 97,73 %
27.09.2017 16:50 19,3 C 13,3 C 73 % 1021,8 hPa 0,0 l/m 14,2 km/h (3 Bft) O-NO 68 0 min 0,000 mm 0,5 UV-I 164 W/m 14,3 C 16,6 C 19,3 km/h (3 Bft) 100,00 %
27.09.2017 16:52 19,2 C 13,3 C 73 % 1021,8 hPa 0,0 l/m 15,7 km/h (3 Bft) O-NO 62 0 min 0,000 mm 0,5 UV-I 140 W/m 14,2 C 16,1 C 24,1 km/h (4 Bft) 100,00 %
27.09.2017 16:54 19,1 C 13,3 C 74 % 1021,8 hPa 0,0 l/m 14,3 km/h (3 Bft) O-NO 69 2 min 0,000 mm 0,5 UV-I 187 W/m 14,4 C 16,3 C 19,3 km/h (3 Bft) 96,00 %
27.09.2017 16:56 19,1 C 13,3 C 75 % 1021,7 hPa 0,0 l/m 10,8 km/h (2 Bft) O-NO 57 2 min 0,000 mm 0,5 UV-I 242 W/m 14,6 C 17,4 C 17,7 km/h (3 Bft) 100,00 %
27.09.2017 16:58 19,1 C 13,3 C 76 % 1021,7 hPa 0,0 l/m 12,2 km/h (2 Bft) O-NO 74 2 min 0,000 mm 0,5 UV-I 199 W/m 14,8 C 16,9 C 19,3 km/h (3 Bft) 100,00 %
27.09.2017 17:00 19,1 C 13,3 C 75 % 1021,7 hPa 0,0 l/m 12,9 km/h (3 Bft) O 97 2 min 0,229 mm 0,5 UV-I 217 W/m 14,6 C 16,7 C 17,7 km/h (3 Bft) 100,00 %
27.09.2017 17:02 19,1 C 13,3 C 76 % 1021,7 hPa 0,0 l/m 8,5 km/h (2 Bft) O-NO 63 2 min 0,000 mm 0,0 UV-I 167 W/m 14,8 C 18,2 C 12,9 km/h (3 Bft) 100,00 %
27.09.2017 17:04 19,1 C 13,3 C 76 % 1021,7 hPa 0,0 l/m 9,8 km/h (2 Bft) O-NO 61 2 min 0,000 mm 0,0 UV-I 184 W/m 14,8 C 17,7 C 20,9 km/h (4 Bft) 98,28 %
27.09.2017 17:06 19,1 C 13,3 C 75 % 1021,7 hPa 0,0 l/m 14,7 km/h (3 Bft) O 84 2 min 0,000 mm 0,0 UV-I 236 W/m 14,6 C 16,2 C 22,5 km/h (4 Bft) 100,00 %
27.09.2017 17:08 19,1 C 13,3 C 76 % 1021,7 hPa 0,0 l/m 11,2 km/h (2 Bft) O-NO 65 2 min 0,000 mm 0,0 UV-I 250 W/m 14,8 C 17,2 C 16,1 km/h (3 Bft) 100,00 %
27.09.2017 17:10 19,2 C 13,3 C 76 % 1021,7 hPa 0,0 l/m 10,9 km/h (2 Bft) O-NO 60 2 min 0,000 mm 0,0 UV-I 244 W/m 14,9 C 17,5 C 16,1 km/h (3 Bft) 100,00 %
27.09.2017 17:12 19,2 C 13,3 C 77 % 1021,7 hPa 0,0 l/m 10,1 km/h (2 Bft) O-NO 61 2 min 0,000 mm 0,0 UV-I 201 W/m 15,1 C 17,7 C 16,1 km/h (3 Bft) 100,00 %
27.09.2017 17:14 19,2 C 13,3 C 76 % 1021,7 hPa 0,0 l/m 13,6 km/h (3 Bft) O-NO 59 2 min 0,000 mm 0,0 UV-I 173 W/m 14,9 C 16,6 C 19,3 km/h (3 Bft) 100,00 %
27.09.2017 17:16 19,2 C 13,3 C 76 % 1021,7 hPa 0,0 l/m 14,2 km/h (3 Bft) NO 39 2 min 0,000 mm 0,0 UV-I 173 W/m 14,9 C 16,5 C 22,5 km/h (4 Bft) 100,00 %
27.09.2017 17:18 19,2 C 13,3 C 76 % 1021,7 hPa 0,0 l/m 16,8 km/h (3 Bft) NO 51 2 min 0,000 mm 0,0 UV-I 213 W/m 14,9 C 15,8 C 24,1 km/h (4 Bft) 100,00 %
27.09.2017 17:20 19,2 C 13,3 C 76 % 1021,7 hPa 0,0 l/m 18,0 km/h (3 Bft) O-NO 60 2 min 0,000 mm 0,0 UV-I 209 W/m 14,9 C 15,6 C 25,7 km/h (4 Bft) 97,87 %
27.09.2017 17:22 19,2 C 13,3 C 76 % 1021,7 hPa 0,0 l/m 17,0 km/h (3 Bft) O-NO 61 2 min 0,000 mm 0,0 UV-I 176 W/m 14,9 C 15,8 C 22,5 km/h (4 Bft) 100,00 %
27.09.2017 17:24 19,1 C 13,3 C 76 % 1021,7 hPa 0,0 l/m 16,1 km/h (3 Bft) O 81 2 min 0,000 mm 0,0 UV-I 128 W/m 14,8 C 15,9 C 24,1 km/h (4 Bft) 97,87 %
27.09.2017 17:26 19,1 C 13,3 C 76 % 1021,7 hPa 0,0 l/m 17,7 km/h (3 Bft) O-NO 65 0 min 0,000 mm 0,0 UV-I 95 W/m 14,8 C 15,5 C 25,7 km/h (4 Bft) 100,00 %
27.09.2017 17:28 19,0 C 13,3 C 76 % 1021,7 hPa 0,0 l/m 17,6 km/h (3 Bft) O-SO 115 0 min 0,000 mm 0,0 UV-I 79 W/m 14,7 C 15,4 C 25,7 km/h (4 Bft) 100,00 %
27.09.2017 17:30 18,8 C 13,3 C 77 % 1021,6 hPa 0,0 l/m 14,0 km/h (3 Bft) O-NO 67 0 min 0,000 mm 0,0 UV-I 71 W/m 14,7 C 16,1 C 20,9 km/h (4 Bft) 100,00 %
27.09.2017 17:32 18,7 C 13,3 C 78 % 1021,7 hPa 0,0 l/m 14,9 km/h (3 Bft) O-NO 76 0 min 0,000 mm 0,0 UV-I 67 W/m 14,8 C 15,7 C 20,9 km/h (4 Bft) 100,00 %
27.09.2017 17:34 18,7 C 13,3 C 78 % 1021,6 hPa 0,0 l/m 9,6 km/h (2 Bft) NO 53 0 min 0,000 mm 0,0 UV-I 67 W/m 14,8 C 17,4 C 16,1 km/h (3 Bft) 100,00 %
27.09.2017 17:36 18,6 C 13,3 C 79 % 1021,7 hPa 0,0 l/m 15,5 km/h (3 Bft) O 79 0 min 0,000 mm 0,0 UV-I 70 W/m 14,9 C 15,4 C 22,5 km/h (4 Bft) 100,00 %
27.09.2017 17:38 18,5 C 13,3 C 79 % 1021,7 hPa 0,0 l/m 16,3 km/h (3 Bft) O-NO 59 0 min 0,000 mm 0,0 UV-I 75 W/m 14,8 C 15,1 C 20,9 km/h (4 Bft) 100,00 %
27.09.2017 17:40 18,4 C 13,3 C 79 % 1021,7 hPa 0,0 l/m 13,3 km/h (3 Bft) O 89 0 min 0,000 mm 0,0 UV-I 101 W/m 14,7 C 15,8 C 19,3 km/h (3 Bft) 100,00 %
27.09.2017 17:42 18,4 C 13,3 C 80 % 1021,7 hPa 0,0 l/m 13,1 km/h (3 Bft) O-NO 69 2 min 0,000 mm 0,0 UV-I 141 W/m 14,9 C 15,8 C 22,5 km/h (4 Bft) 100,00 %
27.09.2017 17:44 18,4 C 13,3 C 79 % 1021,7 hPa 0,0 l/m 13,6 km/h (3 Bft) O-NO 74 2 min 0,000 mm 0,0 UV-I 126 W/m 14,7 C 15,7 C 19,3 km/h (3 Bft) 100,00 %
27.09.2017 17:46 18,4 C 13,3 C 80 % 1021,7 hPa 0,0 l/m 10,6 km/h (2 Bft) O-NO 57 2 min 0,000 mm 0,0 UV-I 129 W/m 14,9 C 16,7 C 16,1 km/h (3 Bft) 100,00 %
27.09.2017 17:48 18,4 C 13,3 C 80 % 1021,7 hPa 0,0 l/m 7,9 km/h (2 Bft) NO 42 2 min 0,000 mm 0,0 UV-I 122 W/m 14,9 C 17,7 C 12,9 km/h (3 Bft) 100,00 %
27.09.2017 17:50 18,4 C 13,3 C 80 % 1021,7 hPa 0,0 l/m 11,1 km/h (2 Bft) O-NO 60 2 min 0,000 mm 0,0 UV-I 103 W/m 14,9 C 16,5 C 17,7 km/h (3 Bft) 100,00 %
27.09.2017 17:52 18,4 C 13,3 C 80 % 1021,7 hPa 0,0 l/m 11,0 km/h (2 Bft) O-NO 57 0 min 0,000 mm 0,0 UV-I 84 W/m 14,9 C 16,5 C 17,7 km/h (3 Bft) 97,87 %
27.09.2017 17:54 18,4 C 13,3 C 80 % 1021,7 hPa 0,0 l/m 11,2 km/h (2 Bft) O 79 0 min 0,000 mm 0,0 UV-I 74 W/m 14,9 C 16,5 C 16,1 km/h (3 Bft) 98,00 %
27.09.2017 17:56 18,3 C 13,3 C 80 % 1021,7 hPa 0,0 l/m 9,1 km/h (2 Bft) O-NO 58 2 min 0,000 mm 0,0 UV-I 80 W/m 14,8 C 17,1 C 14,5 km/h (3 Bft) 100,00 %
27.09.2017 17:58 18,3 C 13,3 C 80 % 1021,7 hPa 0,0 l/m 9,3 km/h (2 Bft) O-SO 105 2 min 0,000 mm 0,0 UV-I 89 W/m 14,8 C 17,0 C 14,5 km/h (3 Bft) 97,56 %
27.09.2017 18:00 18,3 C 13,3 C 80 % 1021,7 hPa 0,0 l/m 10,8 km/h (2 Bft) O-NO 60 2 min 0,000 mm 0,0 UV-I 87 W/m 14,8 C 16,5 C 16,1 km/h (3 Bft) 100,00 %
27.09.2017 18:02 18,3 C 13,3 C 80 % 1021,7 hPa 0,0 l/m 12,6 km/h (3 Bft) O-NO 64 2 min 0,127 mm 0,0 UV-I 82 W/m 14,8 C 15,9 C 22,5 km/h (4 Bft) 97,87 %
27.09.2017 18:04 18,3 C 13,3 C 80 % 1021,7 hPa 0,0 l/m 11,9 km/h (2 Bft) O-NO 59 2 min 0,000 mm 0,0 UV-I 78 W/m 14,8 C 16,1 C 17,7 km/h (3 Bft) 98,00 %
27.09.2017 18:06 18,2 C 13,3 C 80 % 1021,7 hPa 0,0 l/m 11,8 km/h (2 Bft) O-NO 71 2 min 0,000 mm 0,0 UV-I 76 W/m 14,7 C 16,0 C 14,5 km/h (3 Bft) 98,00 %
27.09.2017 18:08 18,2 C 13,3 C 81 % 1021,7 hPa 0,0 l/m 9,7 km/h (2 Bft) O 92 2 min 0,000 mm 0,0 UV-I 75 W/m 14,9 C 16,8 C 16,1 km/h (3 Bft) 97,56 %
27.09.2017 18:10 18,2 C 13,3 C 81 % 1021,7 hPa 0,0 l/m 11,3 km/h (2 Bft) O-NO 71 2 min 0,000 mm 0,0 UV-I 71 W/m 14,9 C 16,2 C 17,7 km/h (3 Bft) 98,00 %
27.09.2017 18:12 18,2 C 13,3 C 81 % 1021,7 hPa 0,0 l/m 12,8 km/h (3 Bft) O-NO 62 2 min 0,000 mm 0,0 UV-I 69 W/m 14,9 C 15,7 C 17,7 km/h (3 Bft) 96,00 %
27.09.2017 18:14 18,2 C 13,3 C 81 % 1021,7 hPa 0,0 l/m 10,5 km/h (2 Bft) NO 49 2 min 0,000 mm 0,0 UV-I 67 W/m 14,9 C 16,5 C 17,7 km/h (3 Bft) 100,00 %
27.09.2017 18:16 18,1 C 13,3 C 81 % 1021,7 hPa 0,0 l/m 9,0 km/h (2 Bft) O-NO 67 2 min 0,000 mm 0,0 UV-I 66 W/m 14,8 C 16,9 C 14,5 km/h (3 Bft) 90,57 %
27.09.2017 18:18 18,1 C 13,3 C 81 % 1021,7 hPa 0,0 l/m 11,1 km/h (2 Bft) O-NO 62 2 min 0,000 mm 0,0 UV-I 63 W/m 14,8 C 16,1 C 16,1 km/h (3 Bft) 96,00 %
27.09.2017 18:20 18,0 C 13,3 C 81 % 1021,7 hPa 0,0 l/m 10,7 km/h (2 Bft) O-NO 74 2 min 0,000 mm 0,0 UV-I 61 W/m 14,7 C 16,2 C 17,7 km/h (3 Bft) 95,45 %
27.09.2017 18:23 18,0 C 13,3 C 81 % 1021,7 hPa 0,0 l/m 11,3 km/h (2 Bft) O-NO 75 3 min 0,000 mm 0,0 UV-I 58 W/m 14,7 C 16,0 C 20,9 km/h (4 Bft) 95,16 %
27.09.2017 18:24 18,0 C 13,3 C 81 % 1021,7 hPa 0,0 l/m 12,9 km/h (3 Bft) O 87 1 min 0,000 mm 0,0 UV-I 54 W/m 14,7 C 15,4 C 17,7 km/h (3 Bft) 96,43 %
27.09.2017 18:26 18,0 C 13,3 C 81 % 1021,7 hPa 0,0 l/m 10,3 km/h (2 Bft) O-NO 65 2 min 0,000 mm 0,0 UV-I 51 W/m 14,7 C 16,3 C 17,7 km/h (3 Bft) 95,45 %
27.09.2017 18:28 18,0 C 13,3 C 82 % 1021,7 hPa 0,0 l/m 9,6 km/h (2 Bft) O 80 2 min 0,000 mm 0,0 UV-I 46 W/m 14,9 C 16,6 C 14,5 km/h (3 Bft) 94,34 %
27.09.2017 18:30 17,9 C 13,3 C 82 % 1021,7 hPa 0,0 l/m 8,8 km/h (2 Bft) O-NO 77 2 min 0,000 mm 0,0 UV-I 42 W/m 14,8 C 16,8 C 14,5 km/h (3 Bft) 96,00 %
27.09.2017 18:32 17,9 C 13,3 C 82 % 1021,7 hPa 0,0 l/m 7,8 km/h (2 Bft) O-NO 65 2 min 0,000 mm 0,0 UV-I 39 W/m 14,8 C 17,2 C 12,9 km/h (3 Bft) 94,74 %
27.09.2017 18:34 17,8 C 13,3 C 82 % 1021,8 hPa 0,0 l/m 9,1 km/h (2 Bft) O-NO 78 2 min 0,000 mm 0,0 UV-I 34 W/m 14,7 C 16,6 C 14,5 km/h (3 Bft) 94,34 %
27.09.2017 18:36 17,8 C 13,3 C 82 % 1021,7 hPa 0,0 l/m 8,5 km/h (2 Bft) O-NO 70 2 min 0,000 mm 0,0 UV-I 30 W/m 14,7 C 16,8 C 12,9 km/h (3 Bft) 94,00 %
27.09.2017 18:38 17,7 C 13,3 C 82 % 1021,7 hPa 0,0 l/m 6,8 km/h (2 Bft) O-NO 78 2 min 0,000 mm 0,0 UV-I 26 W/m 14,6 C 17,5 C 11,3 km/h (2 Bft) 95,74 %
27.09.2017 18:40 17,7 C 13,3 C 82 % 1021,8 hPa 0,0 l/m 8,7 km/h (2 Bft) O-NO 58 2 min 0,000 mm 0,0 UV-I 23 W/m 14,6 C 16,6 C 14,5 km/h (3 Bft) 95,65 %
27.09.2017 18:42 17,7 C 13,3 C 82 % 1021,7 hPa 0,0 l/m 8,5 km/h (2 Bft) O 80 0 min 0,000 mm 0,0 UV-I 12 W/m 14,6 C 16,7 C 14,5 km/h (3 Bft) 92,86 %
27.09.2017 18:44 17,6 C 13,3 C 82 % 1021,7 hPa 0,0 l/m 12,1 km/h (2 Bft) O-NO 66 0 min 0,000 mm 0,0 UV-I 18 W/m 14,5 C 15,2 C 17,7 km/h (3 Bft) 96,23 %
27.09.2017 18:46 17,6 C 13,3 C 83 % 1021,7 hPa 0,0 l/m 8,5 km/h (2 Bft) NO 54 0 min 0,000 mm 0,0 UV-I 15 W/m 14,7 C 16,6 C 14,5 km/h (3 Bft) 94,00 %
27.09.2017 18:48 17,6 C 13,3 C 83 % 1021,8 hPa 0,0 l/m 10,3 km/h (2 Bft) O-NO 66 0 min 0,000 mm 0,0 UV-I 13 W/m 14,7 C 15,9 C 14,5 km/h (3 Bft) 96,00 %
27.09.2017 18:50 17,6 C 13,3 C 83 % 1021,8 hPa 0,0 l/m 11,1 km/h (2 Bft) O 80 0 min 0,000 mm 0,0 UV-I 11 W/m 14,7 C 15,6 C 14,5 km/h (3 Bft) 97,37 %
27.09.2017 18:52 17,4 C 13,3 C 83 % 1021,7 hPa 0,0 l/m 9,0 km/h (2 Bft) O 80 0 min 0,000 mm 0,0 UV-I 9 W/m 14,5 C 16,2 C 14,5 km/h (3 Bft) 97,87 %
27.09.2017 18:54 17,4 C 13,3 C 83 % 1021,8 hPa 0,0 l/m 8,9 km/h (2 Bft) O-NO 68 0 min 0,000 mm 0,0 UV-I 9 W/m 14,5 C 16,2 C 12,9 km/h (3 Bft) 98,11 %
27.09.2017 18:56 17,3 C 13,3 C 83 % 1021,8 hPa 0,0 l/m 7,8 km/h (2 Bft) O-NO 69 0 min 0,000 mm 0,0 UV-I 9 W/m 14,4 C 16,6 C 11,3 km/h (2 Bft) 96,30 %
27.09.2017 18:58 17,3 C 13,3 C 83 % 1021,8 hPa 0,0 l/m 9,3 km/h (2 Bft) O-NO 71 0 min 0,000 mm 0,0 UV-I 7 W/m 14,4 C 15,9 C 14,5 km/h (3 Bft) 97,01 %
27.09.2017 19:00 17,2 C 13,3 C 84 % 1021,8 hPa 0,0 l/m 6,9 km/h (2 Bft) O-NO 76 0 min 0,051 mm 0,0 UV-I 6 W/m 14,5 C 17,0 C 12,9 km/h (3 Bft) 100,00 %
27.09.2017 19:02 17,1 C 13,3 C 84 % 1021,8 hPa 0,0 l/m 10,1 km/h (2 Bft) O-NO 62 0 min 0,000 mm 0,0 UV-I 5 W/m 14,4 C 15,4 C 14,5 km/h (3 Bft) 96,23 %
27.09.2017 19:04 17,1 C 13,3 C 84 % 1021,9 hPa 0,0 l/m 9,9 km/h (2 Bft) O-NO 64 0 min 0,000 mm 0,0 UV-I 5 W/m 14,4 C 15,5 C 16,1 km/h (3 Bft) 97,87 %
27.09.2017 19:06 17,0 C 13,3 C 84 % 1021,8 hPa 0,0 l/m 7,8 km/h (2 Bft) NO 56 0 min 0,000 mm 0,0 UV-I 5 W/m 14,3 C 16,3 C 14,5 km/h (3 Bft) 97,56 %
27.09.2017 19:08 17,0 C 13,3 C 85 % 1021,8 hPa 0,0 l/m 7,8 km/h (2 Bft) O 97 0 min 0,000 mm 0,0 UV-I 3 W/m 14,5 C 16,3 C 11,3 km/h (2 Bft) 98,28 %
27.09.2017 19:10 16,9 C 13,3 C 85 % 1021,8 hPa 0,0 l/m 5,7 km/h (1 Bft) O-NO 75 0 min 0,000 mm 0,0 UV-I 0 W/m 14,4 C 16,9 C 9,7 km/h (2 Bft) 94,74 %
27.09.2017 19:12 16,9 C 13,3 C 85 % 1021,8 hPa 0,0 l/m 6,9 km/h (2 Bft) O-NO 57 0 min 0,000 mm 0,0 UV-I 0 W/m 14,4 C 16,7 C 11,3 km/h (2 Bft) 98,21 %
27.09.2017 19:14 16,9 C 13,3 C 85 % 1021,8 hPa 0,0 l/m 7,0 km/h (2 Bft) O-NO 67 0 min 0,000 mm 0,0 UV-I 0 W/m 14,4 C 16,6 C 9,7 km/h (2 Bft) 98,00 %
27.09.2017 19:16 16,8 C 13,3 C 85 % 1021,8 hPa 0,0 l/m 6,9 km/h (2 Bft) O-NO 62 0 min 0,000 mm 0,0 UV-I 0 W/m 14,3 C 16,5 C 12,9 km/h (3 Bft) 100,00 %
27.09.2017 19:18 16,8 C 13,3 C 85 % 1021,8 hPa 0,0 l/m 7,4 km/h (2 Bft) O 84 0 min 0,000 mm 0,0 UV-I 0 W/m 14,3 C 16,3 C 9,7 km/h (2 Bft) 100,00 %
27.09.2017 19:20 16,8 C 13,3 C 85 % 1021,9 hPa 0,0 l/m 5,8 km/h (2 Bft) O-NO 71 0 min 0,000 mm 0,0 UV-I 0 W/m 14,3 C 16,8 C 11,3 km/h (2 Bft) 100,00 %
27.09.2017 19:22 16,7 C 13,3 C 86 % 1021,9 hPa 0,0 l/m 5,3 km/h (1 Bft) O 82 0 min 0,000 mm 0,0 UV-I 0 W/m 14,3 C 16,7 C 8,0 km/h (2 Bft) 97,73 %
27.09.2017 19:24 16,7 C 13,3 C 86 % 1021,9 hPa 0,0 l/m 5,6 km/h (1 Bft) O-NO 63 0 min 0,000 mm 0,0 UV-I 0 W/m 14,3 C 16,7 C 8,0 km/h (2 Bft) 100,00 %
27.09.2017 19:26 16,7 C 13,3 C 86 % 1021,9 hPa 0,0 l/m 5,8 km/h (2 Bft) NO 50 0 min 0,000 mm 0,0 UV-I 0 W/m 14,3 C 16,7 C 9,7 km/h (2 Bft) 100,00 %
27.09.2017 19:28 16,6 C 13,3 C 86 % 1021,9 hPa 0,0 l/m 6,9 km/h (2 Bft) O-NO 57 0 min 0,000 mm 0,0 UV-I 0 W/m 14,2 C 16,3 C 8,0 km/h (2 Bft) 100,00 %
27.09.2017 19:30 16,6 C 13,3 C 86 % 1022,0 hPa 0,0 l/m 5,7 km/h (1 Bft) NO 56 0 min 0,000 mm 0,0 UV-I 0 W/m 14,2 C 16,6 C 8,0 km/h (2 Bft) 100,00 %
27.09.2017 19:32 16,5 C 13,3 C 86 % 1022,0 hPa 0,0 l/m 5,2 km/h (1 Bft) NO 49 0 min 0,000 mm 0,0 UV-I 0 W/m 14,1 C 16,5 C 8,0 km/h (2 Bft) 100,00 %
27.09.2017 19:34 16,5 C 13,3 C 86 % 1022,0 hPa 0,0 l/m 5,5 km/h (1 Bft) O-NO 59 0 min 0,000 mm 0,0 UV-I 0 W/m 14,1 C 16,5 C 8,0 km/h (2 Bft) 100,00 %
27.09.2017 19:36 16,4 C 13,3 C 86 % 1022,0 hPa 0,0 l/m 6,3 km/h (2 Bft) O 83 0 min 0,000 mm 0,0 UV-I 0 W/m 14,1 C 16,4 C 8,0 km/h (2 Bft) 100,00 %
27.09.2017 19:38 16,4 C 13,3 C 87 % 1022,0 hPa 0,0 l/m 5,7 km/h (1 Bft) NO 53 0 min 0,000 mm 0,0 UV-I 0 W/m 14,2 C 16,4 C 9,7 km/h (2 Bft) 96,00 %
27.09.2017 19:40 16,3 C 13,3 C 87 % 1022,0 hPa 0,0 l/m 4,7 km/h (1 Bft) NO 56 0 min 0,000 mm 0,0 UV-I 0 W/m 14,1 C 16,3 C 8,0 km/h (2 Bft) 100,00 %
27.09.2017 19:42 16,3 C 13,3 C 87 % 1022,0 hPa 0,0 l/m 4,4 km/h (1 Bft) NO 55 0 min 0,000 mm 0,0 UV-I 0 W/m 14,1 C 16,3 C 8,0 km/h (2 Bft) 100,00 %
27.09.2017 19:44 16,3 C 13,3 C 87 % 1022,1 hPa 0,0 l/m 4,3 km/h (1 Bft) NO 42 0 min 0,000 mm 0,0 UV-I 0 W/m 14,1 C 16,3 C 11,3 km/h (2 Bft) 100,00 %
27.09.2017 19:46 16,2 C 13,3 C 87 % 1022,0 hPa 0,0 l/m 4,1 km/h (1 Bft) O-NO 62 0 min 0,000 mm 0,0 UV-I 0 W/m 14,0 C 16,2 C 6,4 km/h (2 Bft) 100,00 %
27.09.2017 19:48 16,1 C 13,3 C 87 % 1022,1 hPa 0,0 l/m 4,8 km/h (1 Bft) NO 44 0 min 0,000 mm 0,0 UV-I 0 W/m 13,9 C 16,1 C 8,0 km/h (2 Bft) 100,00 %
27.09.2017 19:50 16,1 C 13,3 C 87 % 1022,1 hPa 0,0 l/m 3,7 km/h (1 Bft) NO 53 0 min 0,000 mm 0,0 UV-I 0 W/m 13,9 C 16,1 C 6,4 km/h (2 Bft) 100,00 %
27.09.2017 19:52 16,0 C 13,3 C 87 % 1022,1 hPa 0,0 l/m 5,4 km/h (1 Bft) NO 48 0 min 0,000 mm 0,0 UV-I 0 W/m 13,8 C 16,0 C 6,4 km/h (2 Bft) 97,87 %
27.09.2017 19:54 16,0 C 13,3 C 88 % 1022,1 hPa 0,0 l/m 4,9 km/h (1 Bft) NO 49 0 min 0,000 mm 0,0 UV-I 0 W/m 14,0 C 16,0 C 6,4 km/h (2 Bft) 100,00 %
27.09.2017 19:56 16,0 C 13,3 C 88 % 1022,0 hPa 0,0 l/m 7,4 km/h (2 Bft) NO 48 0 min 0,000 mm 0,0 UV-I 0 W/m 14,0 C 15,5 C 9,7 km/h (2 Bft) 100,00 %
27.09.2017 19:58 16,0 C 13,3 C 88 % 1022,1 hPa 0,0 l/m 6,1 km/h (2 Bft) NO 53 0 min 0,000 mm 0,0 UV-I 0 W/m 14,0 C 16,0 C 8,0 km/h (2 Bft) 100,00 %
27.09.2017 20:00 16,0 C 13,3 C 87 % 1022,1 hPa 0,0 l/m 7,7 km/h (2 Bft) O-NO 57 0 min 0,025 mm 0,0 UV-I 0 W/m 13,8 C 15,3 C 11,3 km/h (2 Bft) 100,00 %
27.09.2017 20:02 16,0 C 13,3 C 87 % 1022,1 hPa 0,0 l/m 8,2 km/h (2 Bft) O-NO 60 0 min 0,000 mm 0,0 UV-I 0 W/m 13,8 C 15,1 C 12,9 km/h (3 Bft) 100,00 %
27.09.2017 20:04 16,0 C 13,3 C 87 % 1022,1 hPa 0,0 l/m 7,8 km/h (2 Bft) O-NO 59 0 min 0,000 mm 0,0 UV-I 0 W/m 13,8 C 15,3 C 9,7 km/h (2 Bft) 100,00 %
27.09.2017 20:06 16,0 C 13,3 C 87 % 1022,0 hPa 0,0 l/m 7,5 km/h (2 Bft) O-NO 59 0 min 0,000 mm 0,0 UV-I 0 W/m 13,8 C 15,4 C 11,3 km/h (2 Bft) 100,00 %
27.09.2017 20:08 16,0 C 13,3 C 87 % 1022,1 hPa 0,0 l/m 8,2 km/h (2 Bft) O-NO 74 0 min 0,000 mm 0,0 UV-I 0 W/m 13,8 C 15,1 C 14,5 km/h (3 Bft) 100,00 %
27.09.2017 20:10 16,0 C 13,3 C 87 % 1022,1 hPa 0,0 l/m 7,9 km/h (2 Bft) NO 55 0 min 0,000 mm 0,0 UV-I 0 W/m 13,8 C 15,2 C 12,9 km/h (3 Bft) 100,00 %
27.09.2017 20:12 15,9 C 13,3 C 87 % 1022,1 hPa 0,0 l/m 7,7 km/h (2 Bft) O-NO 77 0 min 0,000 mm 0,0 UV-I 0 W/m 13,7 C 15,2 C 11,3 km/h (2 Bft) 97,73 %
27.09.2017 20:14 15,9 C 13,3 C 87 % 1022,1 hPa 0,0 l/m 7,5 km/h (2 Bft) O-NO 61 0 min 0,000 mm 0,0 UV-I 0 W/m 13,7 C 15,3 C 11,3 km/h (2 Bft) 100,00 %
27.09.2017 20:16 15,9 C 13,3 C 87 % 1022,1 hPa 0,0 l/m 7,7 km/h (2 Bft) O-NO 69 0 min 0,000 mm 0,0 UV-I 0 W/m 13,7 C 15,2 C 12,9 km/h (3 Bft) 100,00 %
27.09.2017 20:18 15,9 C 13,3 C 87 % 1022,2 hPa 0,0 l/m 8,6 km/h (2 Bft) O-NO 75 0 min 0,000 mm 0,0 UV-I 0 W/m 13,7 C 14,8 C 12,9 km/h (3 Bft) 98,00 %
27.09.2017 20:20 15,9 C 13,3 C 87 % 1022,1 hPa 0,0 l/m 9,9 km/h (2 Bft) O-NO 66 0 min 0,000 mm 0,0 UV-I 0 W/m 13,7 C 14,2 C 14,5 km/h (3 Bft) 97,44 %
27.09.2017 20:22 15,8 C 13,3 C 87 % 1022,1 hPa 0,0 l/m 9,5 km/h (2 Bft) NO 53 0 min 0,000 mm 0,0 UV-I 0 W/m 13,6 C 14,2 C 14,5 km/h (3 Bft) 96,23 %
27.09.2017 20:24 15,8 C 13,3 C 87 % 1022,1 hPa 0,0 l/m 9,5 km/h (2 Bft) O-NO 63 0 min 0,000 mm 0,0 UV-I 0 W/m 13,6 C 14,2 C 14,5 km/h (3 Bft) 98,00 %
27.09.2017 20:26 15,8 C 13,3 C 87 % 1022,2 hPa 0,0 l/m 8,4 km/h (2 Bft) O-NO 67 0 min 0,000 mm 0,0 UV-I 0 W/m 13,6 C 14,7 C 12,9 km/h (3 Bft) 98,00 %
27.09.2017 20:28 15,8 C 13,3 C 87 % 1022,2 hPa 0,0 l/m 9,0 km/h (2 Bft) O-NO 74 0 min 0,000 mm 0,0 UV-I 0 W/m 13,6 C 14,5 C 16,1 km/h (3 Bft) 97,37 %
27.09.2017 20:30 15,8 C 13,3 C 87 % 1022,2 hPa 0,0 l/m 8,7 km/h (2 Bft) O-NO 71 0 min 0,000 mm 0,0 UV-I 0 W/m 13,6 C 14,6 C 14,5 km/h (3 Bft) 96,23 %
27.09.2017 20:32 15,8 C 13,3 C 87 % 1022,2 hPa 0,0 l/m 8,1 km/h (2 Bft) O-NO 73 0 min 0,000 mm 0,0 UV-I 0 W/m 13,6 C 14,9 C 11,3 km/h (2 Bft) 97,56 %
27.09.2017 20:34 15,8 C 13,3 C 87 % 1022,2 hPa 0,0 l/m 7,3 km/h (2 Bft) O 90 0 min 0,000 mm 0,0 UV-I 0 W/m 13,6 C 15,3 C 9,7 km/h (2 Bft) 97,56 %
27.09.2017 20:36 15,7 C 13,3 C 87 % 1022,2 hPa 0,0 l/m 8,0 km/h (2 Bft) O-NO 68 0 min 0,000 mm 0,0 UV-I 0 W/m 13,5 C 14,8 C 12,9 km/h (3 Bft) 98,31 %
27.09.2017 20:38 15,7 C 13,3 C 87 % 1022,2 hPa 0,0 l/m 9,2 km/h (2 Bft) O-NO 57 0 min 0,000 mm 0,0 UV-I 0 W/m 13,5 C 14,3 C 12,9 km/h (3 Bft) 96,55 %
27.09.2017 20:40 15,7 C 13,3 C 87 % 1022,2 hPa 0,0 l/m 7,5 km/h (2 Bft) O-NO 66 0 min 0,000 mm 0,0 UV-I 0 W/m 13,5 C 15,1 C 12,9 km/h (3 Bft) 97,56 %
27.09.2017 20:42 15,7 C 13,3 C 87 % 1022,2 hPa 0,0 l/m 8,4 km/h (2 Bft) O-NO 61 0 min 0,000 mm 0,0 UV-I 0 W/m 13,5 C 14,6 C 14,5 km/h (3 Bft) 95,77 %
27.09.2017 20:44 15,6 C 13,3 C 87 % 1022,3 hPa 0,0 l/m 9,4 km/h (2 Bft) O 81 0 min 0,000 mm 0,0 UV-I 0 W/m 13,4 C 14,1 C 16,1 km/h (3 Bft) 97,37 %
27.09.2017 20:46 15,6 C 13,3 C 87 % 1022,2 hPa 0,0 l/m 6,6 km/h (2 Bft) O-NO 74 0 min 0,000 mm 0,0 UV-I 0 W/m 13,4 C 15,5 C 12,9 km/h (3 Bft) 96,23 %
27.09.2017 20:48 15,6 C 13,3 C 88 % 1022,2 hPa 0,0 l/m 5,7 km/h (1 Bft) O-NO 63 0 min 0,000 mm 0,0 UV-I 0 W/m 13,6 C 15,6 C 8,0 km/h (2 Bft) 97,14 %
27.09.2017 20:50 15,6 C 13,3 C 88 % 1022,3 hPa 0,0 l/m 6,9 km/h (2 Bft) NO 36 0 min 0,000 mm 0,0 UV-I 0 W/m 13,6 C 15,3 C 9,7 km/h (2 Bft) 98,21 %
27.09.2017 20:52 15,5 C 13,3 C 88 % 1022,3 hPa 0,0 l/m 6,3 km/h (2 Bft) O-NO 65 0 min 0,000 mm 0,0 UV-I 0 W/m 13,5 C 15,5 C 9,7 km/h (2 Bft) 100,00 %
27.09.2017 20:54 15,4 C 13,3 C 87 % 1022,3 hPa 0,0 l/m 6,0 km/h (2 Bft) NO 50 0 min 0,000 mm 0,0 UV-I 0 W/m 13,2 C 15,4 C 9,7 km/h (2 Bft) 97,56 %
27.09.2017 20:56 15,4 C 13,3 C 88 % 1022,3 hPa 0,0 l/m 7,1 km/h (2 Bft) NO 54 0 min 0,000 mm 0,0 UV-I 0 W/m 13,4 C 15,0 C 9,7 km/h (2 Bft) 100,00 %
27.09.2017 20:58 15,4 C 13,3 C 88 % 1022,4 hPa 0,0 l/m 7,2 km/h (2 Bft) O-NO 65 0 min 0,000 mm 0,0 UV-I 0 W/m 13,4 C 15,0 C 11,3 km/h (2 Bft) 100,00 %
27.09.2017 21:00 15,3 C 13,3 C 88 % 1022,4 hPa 0,0 l/m 7,0 km/h (2 Bft) NO 55 0 min 0,026 mm 0,0 UV-I 0 W/m 13,3 C 15,0 C 11,3 km/h (2 Bft) 97,92 %
27.09.2017 21:02 15,3 C 13,3 C 88 % 1022,4 hPa 0,0 l/m 6,2 km/h (2 Bft) O-NO 63 0 min 0,000 mm 0,0 UV-I 0 W/m 13,3 C 15,3 C 8,0 km/h (2 Bft) 97,87 %
27.09.2017 21:04 15,3 C 13,3 C 88 % 1022,4 hPa 0,0 l/m 6,2 km/h (2 Bft) O-NO 69 0 min 0,000 mm 0,0 UV-I 0 W/m 13,3 C 15,3 C 8,0 km/h (2 Bft) 98,00 %
27.09.2017 21:06 15,2 C 13,3 C 88 % 1022,4 hPa 0,0 l/m 6,3 km/h (2 Bft) O-NO 74 0 min 0,000 mm 0,0 UV-I 0 W/m 13,2 C 15,2 C 9,7 km/h (2 Bft) 100,00 %
27.09.2017 21:08 15,1 C 13,3 C 88 % 1022,4 hPa 0,0 l/m 8,9 km/h (2 Bft) O 93 0 min 0,000 mm 0,0 UV-I 0 W/m 13,1 C 13,7 C 12,9 km/h (3 Bft) 100,00 %
27.09.2017 21:10 15,1 C 13,3 C 88 % 1022,4 hPa 0,0 l/m 8,0 km/h (2 Bft) O-NO 71 0 min 0,000 mm 0,0 UV-I 0 W/m 13,1 C 14,2 C 14,5 km/h (3 Bft) 98,11 %
27.09.2017 21:12 15,1 C 13,3 C 89 % 1022,4 hPa 0,0 l/m 7,8 km/h (2 Bft) O-NO 76 0 min 0,000 mm 0,0 UV-I 0 W/m 13,3 C 14,3 C 12,9 km/h (3 Bft) 97,56 %
27.09.2017 21:14 15,1 C 13,3 C 89 % 1022,4 hPa 0,0 l/m 7,6 km/h (2 Bft) O 82 0 min 0,000 mm 0,0 UV-I 0 W/m 13,3 C 14,4 C 14,5 km/h (3 Bft) 100,00 %
27.09.2017 21:16 15,1 C 13,3 C 89 % 1022,4 hPa 0,0 l/m 8,9 km/h (2 Bft) O 80 0 min 0,000 mm 0,0 UV-I 0 W/m 13,3 C 13,7 C 12,9 km/h (3 Bft) 100,00 %
27.09.2017 21:18 15,1 C 13,3 C 89 % 1022,4 hPa 0,0 l/m 9,5 km/h (2 Bft) O 87 0 min 0,000 mm 0,0 UV-I 0 W/m 13,3 C 13,5 C 12,9 km/h (3 Bft) 98,11 %
27.09.2017 21:20 15,1 C 13,3 C 89 % 1022,4 hPa 0,0 l/m 10,2 km/h (2 Bft) O-NO 63 0 min 0,000 mm 0,0 UV-I 0 W/m 13,3 C 13,1 C 14,5 km/h (3 Bft) 100,00 %
27.09.2017 21:22 15,1 C 13,3 C 89 % 1022,4 hPa 0,0 l/m 8,0 km/h (2 Bft) NO 46 0 min 0,000 mm 0,0 UV-I 0 W/m 13,3 C 14,2 C 16,1 km/h (3 Bft) 100,00 %
27.09.2017 21:24 15,0 C 13,3 C 89 % 1022,4 hPa 0,0 l/m 9,2 km/h (2 Bft) O-NO 67 0 min 0,000 mm 0,0 UV-I 0 W/m 13,2 C 13,5 C 12,9 km/h (3 Bft) 100,00 %
27.09.2017 21:26 15,0 C 13,3 C 89 % 1022,4 hPa 0,0 l/m 7,4 km/h (2 Bft) O-NO 78 0 min 0,000 mm 0,0 UV-I 0 W/m 13,2 C 14,4 C 11,3 km/h (2 Bft) 100,00 %
27.09.2017 21:28 15,0 C 13,3 C 89 % 1022,4 hPa 0,0 l/m 6,6 km/h (2 Bft) O 87 0 min 0,000 mm 0,0 UV-I 0 W/m 13,2 C 14,9 C 12,9 km/h (3 Bft) 100,00 %
27.09.2017 21:30 14,9 C 13,3 C 89 % 1022,4 hPa 0,0 l/m 7,0 km/h (2 Bft) O-NO 71 0 min 0,000 mm 0,0 UV-I 0 W/m 13,1 C 14,6 C 11,3 km/h (2 Bft) 100,00 %
27.09.2017 21:32 14,9 C 13,3 C 89 % 1022,5 hPa 0,0 l/m 5,4 km/h (1 Bft) O-NO 74 0 min 0,000 mm 0,0 UV-I 0 W/m 13,1 C 14,9 C 8,0 km/h (2 Bft) 100,00 %
27.09.2017 21:34 14,9 C 13,3 C 89 % 1022,5 hPa 0,0 l/m 5,3 km/h (1 Bft) O-NO 76 0 min 0,000 mm 0,0 UV-I 0 W/m 13,1 C 14,9 C 8,0 km/h (2 Bft) 100,00 %
27.09.2017 21:36 14,9 C 13,3 C 89 % 1022,5 hPa 0,0 l/m 4,7 km/h (1 Bft) O 82 0 min 0,000 mm 0,0 UV-I 0 W/m 13,1 C 14,9 C 8,0 km/h (2 Bft) 100,00 %
27.09.2017 21:38 14,8 C 13,3 C 89 % 1022,5 hPa 0,0 l/m 5,0 km/h (1 Bft) O-NO 59 0 min 0,000 mm 0,0 UV-I 0 W/m 13,0 C 14,8 C 6,4 km/h (2 Bft) 100,00 %
27.09.2017 21:40 14,8 C 13,3 C 89 % 1022,4 hPa 0,0 l/m 5,5 km/h (1 Bft) O 80 0 min 0,000 mm 0,0 UV-I 0 W/m 13,0 C 14,8 C 8,0 km/h (2 Bft) 100,00 %
27.09.2017 21:42 14,8 C 13,3 C 89 % 1022,5 hPa 0,0 l/m 6,2 km/h (2 Bft) O-NO 73 0 min 0,000 mm 0,0 UV-I 0 W/m 13,0 C 14,8 C 11,3 km/h (2 Bft) 100,00 %
27.09.2017 21:44 14,7 C 13,3 C 89 % 1022,5 hPa 0,0 l/m 5,3 km/h (1 Bft) NO 47 0 min 0,000 mm 0,0 UV-I 0 W/m 12,9 C 14,7 C 6,4 km/h (2 Bft) 100,00 %
27.09.2017 21:46 14,7 C 13,3 C 89 % 1022,5 hPa 0,0 l/m 6,0 km/h (2 Bft) O 80 0 min 0,000 mm 0,0 UV-I 0 W/m 12,9 C 14,7 C 9,7 km/h (2 Bft) 97,37 %
27.09.2017 21:48 14,7 C 13,3 C 89 % 1022,5 hPa 0,0 l/m 5,5 km/h (1 Bft) O-NO 71 0 min 0,000 mm 0,0 UV-I 0 W/m 12,9 C 14,7 C 8,0 km/h (2 Bft) 100,00 %
27.09.2017 21:50 14,7 C 13,3 C 89 % 1022,5 hPa 0,0 l/m 7,0 km/h (2 Bft) O-NO 68 0 min 0,000 mm 0,0 UV-I 0 W/m 12,9 C 14,4 C 11,3 km/h (2 Bft) 100,00 %
27.09.2017 21:52 14,6 C 13,3 C 90 % 1022,5 hPa 0,0 l/m 7,1 km/h (2 Bft) O 87 0 min 0,000 mm 0,0 UV-I 0 W/m 13,0 C 14,2 C 9,7 km/h (2 Bft) 100,00 %
27.09.2017 21:54 14,6 C 13,3 C 89 % 1022,5 hPa 0,0 l/m 6,4 km/h (2 Bft) O-NO 64 0 min 0,000 mm 0,0 UV-I 0 W/m 12,8 C 14,6 C 12,9 km/h (3 Bft) 97,56 %
27.09.2017 21:56 14,6 C 13,3 C 90 % 1022,5 hPa 0,0 l/m 6,1 km/h (2 Bft) O-NO 67 0 min 0,000 mm 0,0 UV-I 0 W/m 13,0 C 14,6 C 11,3 km/h (2 Bft) 100,00 %
27.09.2017 21:58 14,6 C 13,3 C 90 % 1022,5 hPa 0,0 l/m 7,3 km/h (2 Bft) O-NO 58 0 min 0,000 mm 0,0 UV-I 0 W/m 13,0 C 14,1 C 12,9 km/h (3 Bft) 100,00 %
27.09.2017 22:00 14,5 C 13,3 C 90 % 1022,5 hPa 0,0 l/m 7,0 km/h (2 Bft) O-NO 69 0 min 0,000 mm 0,0 UV-I 0 W/m 12,9 C 14,2 C 11,3 km/h (2 Bft) 100,00 %
27.09.2017 22:02 14,5 C 13,3 C 90 % 1022,6 hPa 0,0 l/m 6,6 km/h (2 Bft) O-NO 69 0 min 0,025 mm 0,0 UV-I 0 W/m 12,9 C 14,4 C 11,3 km/h (2 Bft) 98,00 %
27.09.2017 22:04 14,5 C 13,3 C 90 % 1022,6 hPa 0,0 l/m 5,2 km/h (1 Bft) NO 48 0 min 0,000 mm 0,0 UV-I 0 W/m 12,9 C 14,5 C 8,0 km/h (2 Bft) 98,00 %
27.09.2017 22:06 14,4 C 13,3 C 90 % 1022,6 hPa 0,0 l/m 2,8 km/h (1 Bft) NO 48 0 min 0,000 mm 0,0 UV-I 0 W/m 12,8 C 14,4 C 6,4 km/h (2 Bft) 94,74 %
27.09.2017 22:08 14,2 C 13,3 C 89 % 1022,6 hPa 0,0 l/m 2,1 km/h (1 Bft) NO 48 0 min 0,000 mm 0,0 UV-I 0 W/m 12,4 C 14,2 C 4,8 km/h (1 Bft) 98,00 %
27.09.2017 22:10 14,1 C 13,3 C 89 % 1022,6 hPa 0,0 l/m 2,2 km/h (1 Bft) NO 48 0 min 0,000 mm 0,0 UV-I 0 W/m 12,3 C 14,1 C 4,8 km/h (1 Bft) 94,34 %
27.09.2017 22:12 13,8 C 13,3 C 90 % 1022,6 hPa 0,0 l/m 2,3 km/h (1 Bft) NO 48 0 min 0,000 mm 0,0 UV-I 0 W/m 12,2 C 13,8 C 4,8 km/h (1 Bft) 95,74 %
27.09.2017 22:14 13,8 C 13,3 C 90 % 1022,6 hPa 0,0 l/m 2,5 km/h (1 Bft) NO 48 0 min 0,000 mm 0,0 UV-I 0 W/m 12,2 C 13,8 C 4,8 km/h (1 Bft) 97,87 %
27.09.2017 22:16 13,7 C 13,3 C 91 % 1022,6 hPa 0,0 l/m 2,0 km/h (1 Bft) NO 48 0 min 0,000 mm 0,0 UV-I 0 W/m 12,3 C 13,7 C 3,2 km/h (1 Bft) 97,87 %
27.09.2017 22:18 13,7 C 13,3 C 91 % 1022,6 hPa 0,0 l/m 2,6 km/h (1 Bft) NO 48 0 min 0,000 mm 0,0 UV-I 0 W/m 12,3 C 13,7 C 4,8 km/h (1 Bft) 94,44 %
27.09.2017 22:20 13,7 C 13,3 C 91 % 1022,7 hPa 0,0 l/m 2,1 km/h (1 Bft) NO 48 0 min 0,000 mm 0,0 UV-I 0 W/m 12,3 C 13,7 C 3,2 km/h (1 Bft) 94,92 %
27.09.2017 22:22 13,7 C 13,3 C 92 % 1022,6 hPa 0,0 l/m 3,2 km/h (1 Bft) NO 48 0 min 0,000 mm 0,0 UV-I 0 W/m 12,4 C 13,7 C 4,8 km/h (1 Bft) 95,74 %
27.09.2017 22:24 13,7 C 13,3 C 92 % 1022,7 hPa 0,0 l/m 1,8 km/h (1 Bft) NO 48 0 min 0,000 mm 0,0 UV-I 0 W/m 12,4 C 13,7 C 3,2 km/h (1 Bft) 95,12 %
27.09.2017 22:26 13,7 C 13,3 C 92 % 1022,7 hPa 0,0 l/m 1,4 km/h (1 Bft) NO 48 0 min 0,000 mm 0,0 UV-I 0 W/m 12,4 C 13,7 C 3,2 km/h (1 Bft) 96,15 %
27.09.2017 22:28 13,7 C 13,3 C 92 % 1022,7 hPa 0,0 l/m 1,2 km/h (1 Bft) NO 48 0 min 0,000 mm 0,0 UV-I 0 W/m 12,4 C 13,7 C 3,2 km/h (1 Bft) 95,74 %
27.09.2017 22:30 13,6 C 13,3 C 92 % 1022,6 hPa 0,0 l/m 0,0 km/h (0 Bft) NO 48 0 min 0,000 mm 0,0 UV-I 0 W/m 12,3 C 13,6 C 0,0 km/h (0 Bft) 93,62 %
27.09.2017 22:32 13,6 C 13,3 C 92 % 1022,6 hPa 0,0 l/m 0,3 km/h (0 Bft) NO 48 0 min 0,000 mm 0,0 UV-I 0 W/m 12,3 C 13,6 C 1,6 km/h (1 Bft) 95,12 %
27.09.2017 22:34 13,4 C 13,3 C 92 % 1022,6 hPa 0,0 l/m 0,6 km/h (0 Bft) NO 48 0 min 0,000 mm 0,0 UV-I 0 W/m 12,1 C 13,4 C 3,2 km/h (1 Bft) 94,00 %
27.09.2017 22:36 13,3 C 13,3 C 92 % 1022,6 hPa 0,0 l/m 0,0 km/h (0 Bft) NO 48 0 min 0,000 mm 0,0 UV-I 0 W/m 12,0 C 13,3 C 0,0 km/h (0 Bft) 95,74 %
27.09.2017 22:38 13,2 C 13,3 C 92 % 1022,6 hPa 0,0 l/m 0,0 km/h (0 Bft) NO 48 0 min 0,000 mm 0,0 UV-I 0 W/m 11,9 C 13,2 C 0,0 km/h (0 Bft) 95,12 %
27.09.2017 22:40 13,1 C 13,3 C 92 % 1022,6 hPa 0,0 l/m 0,0 km/h (0 Bft) NO 48 0 min 0,000 mm 0,0 UV-I 0 W/m 11,8 C 13,1 C 0,0 km/h (0 Bft) 96,00 %
27.09.2017 22:42 12,9 C 13,3 C 92 % 1022,6 hPa 0,0 l/m 0,0 km/h (0 Bft) NO 48 0 min 0,000 mm 0,0 UV-I 0 W/m 11,6 C 12,9 C 0,0 km/h (0 Bft) 94,00 %
27.09.2017 22:44 12,8 C 13,3 C 92 % 1022,7 hPa 0,0 l/m 0,0 km/h (0 Bft) NO 48 0 min 0,000 mm 0,0 UV-I 0 W/m 11,5 C 12,8 C 0,0 km/h (0 Bft) 96,00 %
27.09.2017 22:46 12,8 C 13,3 C 93 % 1022,7 hPa 0,0 l/m 0,0 km/h (0 Bft) NO 48 0 min 0,000 mm 0,0 UV-I 0 W/m 11,7 C 12,8 C 0,0 km/h (0 Bft) 94,74 %
27.09.2017 22:48 12,8 C 13,3 C 93 % 1022,7 hPa 0,0 l/m 0,0 km/h (0 Bft) NO 48 0 min 0,000 mm 0,0 UV-I 0 W/m 11,7 C 12,8 C 0,0 km/h (0 Bft) 95,74 %
27.09.2017 22:50 12,7 C 13,3 C 93 % 1022,7 hPa 0,0 l/m 0,0 km/h (0 Bft) NO 48 0 min 0,000 mm 0,0 UV-I 0 W/m 11,6 C 12,7 C 0,0 km/h (0 Bft) 94,00 %
27.09.2017 22:52 12,7 C 13,3 C 93 % 1022,7 hPa 0,0 l/m 0,0 km/h (0 Bft) NO 48 0 min 0,000 mm 0,0 UV-I 0 W/m 11,6 C 12,7 C 0,0 km/h (0 Bft) 98,00 %
27.09.2017 22:54 12,6 C 13,3 C 93 % 1022,6 hPa 0,0 l/m 0,6 km/h (0 Bft) NO 48 0 min 0,000 mm 0,0 UV-I 0 W/m 11,5 C 12,6 C 3,2 km/h (1 Bft) 95,74 %
27.09.2017 22:56 12,4 C 13,3 C 93 % 1022,6 hPa 0,0 l/m 2,0 km/h (1 Bft) NO 48 0 min 0,000 mm 0,0 UV-I 0 W/m 11,3 C 12,4 C 3,2 km/h (1 Bft) 100,00 %
27.09.2017 22:58 12,5 C 13,3 C 93 % 1022,7 hPa 0,0 l/m 2,1 km/h (1 Bft) NO 48 0 min 0,000 mm 0,0 UV-I 0 W/m 11,4 C 12,5 C 3,2 km/h (1 Bft) 96,00 %
27.09.2017 23:00 12,6 C 13,3 C 94 % 1022,7 hPa 0,0 l/m 2,0 km/h (1 Bft) NO 48 0 min 0,000 mm 0,0 UV-I 0 W/m 11,7 C 12,6 C 3,2 km/h (1 Bft) 98,11 %
27.09.2017 23:02 12,7 C 13,3 C 94 % 1022,7 hPa 0,0 l/m 1,3 km/h (1 Bft) NO 48 0 min 0,000 mm 0,0 UV-I 0 W/m 11,8 C 12,7 C 1,6 km/h (1 Bft) 97,87 %
27.09.2017 23:04 12,6 C 13,3 C 94 % 1022,7 hPa 0,0 l/m 0,6 km/h (0 Bft) NO 48 0 min 0,000 mm 0,0 UV-I 0 W/m 11,7 C 12,6 C 1,6 km/h (1 Bft) 97,87 %
27.09.2017 23:06 12,6 C 13,3 C 94 % 1022,7 hPa 0,0 l/m 0,0 km/h (0 Bft) NO 48 0 min 0,000 mm 0,0 UV-I 0 W/m 11,7 C 12,6 C 0,0 km/h (0 Bft) 100,00 %
27.09.2017 23:08 12,6 C 13,3 C 94 % 1022,7 hPa 0,0 l/m 0,0 km/h (0 Bft) NO 48 0 min 0,000 mm 0,0 UV-I 0 W/m 11,7 C 12,6 C 0,0 km/h (0 Bft) 100,00 %
27.09.2017 23:10 12,4 C 13,3 C 94 % 1022,7 hPa 0,0 l/m 0,0 km/h (0 Bft) NO 48 0 min 0,000 mm 0,0 UV-I 0 W/m 11,5 C 12,4 C 0,0 km/h (0 Bft) 98,00 %
27.09.2017 23:12 12,4 C 13,3 C 94 % 1022,7 hPa 0,0 l/m 0,0 km/h (0 Bft) NO 48 0 min 0,000 mm 0,0 UV-I 0 W/m 11,5 C 12,4 C 0,0 km/h (0 Bft) 97,87 %
27.09.2017 23:14 12,4 C 13,3 C 94 % 1022,8 hPa 0,0 l/m 0,0 km/h (0 Bft) NO 48 0 min 0,000 mm 0,0 UV-I 0 W/m 11,5 C 12,4 C 0,0 km/h (0 Bft) 98,11 %
27.09.2017 23:16 12,3 C 13,3 C 94 % 1022,7 hPa 0,0 l/m 0,0 km/h (0 Bft) NO 48 0 min 0,000 mm 0,0 UV-I 0 W/m 11,4 C 12,3 C 0,0 km/h (0 Bft) 100,00 %
27.09.2017 23:18 12,2 C 13,3 C 94 % 1022,8 hPa 0,0 l/m 0,0 km/h (0 Bft) NO 48 0 min 0,000 mm 0,0 UV-I 0 W/m 11,3 C 12,2 C 0,0 km/h (0 Bft) 100,00 %
27.09.2017 23:20 12,2 C 13,3 C 94 % 1022,8 hPa 0,0 l/m 0,0 km/h (0 Bft) NO 48 0 min 0,000 mm 0,0 UV-I 0 W/m 11,3 C 12,2 C 0,0 km/h (0 Bft) 100,00 %
27.09.2017 23:22 12,1 C 13,3 C 94 % 1022,8 hPa 0,0 l/m 0,0 km/h (0 Bft) NO 48 0 min 0,000 mm 0,0 UV-I 0 W/m 11,2 C 12,1 C 0,0 km/h (0 Bft) 100,00 %
27.09.2017 23:24 12,0 C 13,3 C 94 % 1022,8 hPa 0,0 l/m 0,0 km/h (0 Bft) NO 48 0 min 0,000 mm 0,0 UV-I 0 W/m 11,1 C 12,0 C 0,0 km/h (0 Bft) 98,00 %
27.09.2017 23:26 11,9 C 13,3 C 94 % 1022,8 hPa 0,0 l/m 0,0 km/h (0 Bft) NO 48 0 min 0,000 mm 0,0 UV-I 0 W/m 11,0 C 11,9 C 1,6 km/h (1 Bft) 100,00 %
27.09.2017 23:28 11,9 C 13,3 C 94 % 1022,8 hPa 0,0 l/m 3,2 km/h (1 Bft) NO 48 0 min 0,000 mm 0,0 UV-I 0 W/m 11,0 C 11,9 C 4,8 km/h (1 Bft) 97,87 %
27.09.2017 23:30 11,9 C 13,3 C 94 % 1022,8 hPa 0,0 l/m 2,6 km/h (1 Bft) NO 48 0 min 0,000 mm 0,0 UV-I 0 W/m 11,0 C 11,9 C 3,2 km/h (1 Bft) 95,83 %
27.09.2017 23:32 11,9 C 13,3 C 95 % 1022,8 hPa 0,0 l/m 2,1 km/h (1 Bft) NO 48 0 min 0,000 mm 0,0 UV-I 0 W/m 11,1 C 11,9 C 3,2 km/h (1 Bft) 100,00 %
27.09.2017 23:34 11,8 C 13,3 C 94 % 1022,8 hPa 0,0 l/m 1,2 km/h (1 Bft) NO 48 0 min 0,000 mm 0,0 UV-I 0 W/m 10,9 C 11,8 C 1,6 km/h (1 Bft) 98,00 %
27.09.2017 23:36 11,8 C 13,3 C 95 % 1022,8 hPa 0,0 l/m 0,0 km/h (0 Bft) NO 48 0 min 0,000 mm 0,0 UV-I 0 W/m 11,0 C 11,8 C 1,6 km/h (1 Bft) 100,00 %
27.09.2017 23:38 11,7 C 13,3 C 95 % 1022,8 hPa 0,0 l/m 0,0 km/h (0 Bft) NO 48 0 min 0,000 mm 0,0 UV-I 0 W/m 10,9 C 11,7 C 0,0 km/h (0 Bft) 95,74 %
27.09.2017 23:40 11,7 C 13,3 C 95 % 1022,8 hPa 0,0 l/m 0,9 km/h (0 Bft) NO 48 0 min 0,000 mm 0,0 UV-I 0 W/m 10,9 C 11,7 C 1,6 km/h (1 Bft) 100,00 %
27.09.2017 23:42 11,6 C 13,3 C 94 % 1022,8 hPa 0,0 l/m 0,5 km/h (0 Bft) NO 48 0 min 0,000 mm 0,0 UV-I 0 W/m 10,7 C 11,6 C 1,6 km/h (1 Bft) 100,00 %
27.09.2017 23:44 11,5 C 13,3 C 95 % 1022,9 hPa 0,0 l/m 0,0 km/h (0 Bft) NO 48 0 min 0,000 mm 0,0 UV-I 0 W/m 10,7 C 11,5 C 1,6 km/h (1 Bft) 100,00 %
27.09.2017 23:46 11,6 C 13,3 C 95 % 1022,9 hPa 0,0 l/m 0,7 km/h (0 Bft) NO 48 0 min 0,000 mm 0,0 UV-I 0 W/m 10,8 C 11,6 C 3,2 km/h (1 Bft) 100,00 %
27.09.2017 23:48 11,6 C 13,3 C 95 % 1022,9 hPa 0,0 l/m 1,4 km/h (1 Bft) NO 48 0 min 0,000 mm 0,0 UV-I 0 W/m 10,8 C 11,6 C 3,2 km/h (1 Bft) 100,00 %
27.09.2017 23:50 11,6 C 13,3 C 95 % 1022,9 hPa 0,0 l/m 0,0 km/h (0 Bft) NO 48 0 min 0,000 mm 0,0 UV-I 0 W/m 10,8 C 11,6 C 0,0 km/h (0 Bft) 100,00 %
27.09.2017 23:52 11,6 C 13,3 C 95 % 1022,9 hPa 0,0 l/m 0,0 km/h (0 Bft) NO 48 0 min 0,000 mm 0,0 UV-I 0 W/m 10,8 C 11,6 C 0,0 km/h (0 Bft) 100,00 %
27.09.2017 23:54 11,5 C 13,3 C 95 % 1022,9 hPa 0,0 l/m 0,0 km/h (0 Bft) NO 48 0 min 0,000 mm 0,0 UV-I 0 W/m 10,7 C 11,5 C 0,0 km/h (0 Bft) 100,00 %
27.09.2017 23:56 11,4 C 13,3 C 95 % 1022,9 hPa 0,0 l/m 0,0 km/h (0 Bft) NO 48 0 min 0,000 mm 0,0 UV-I 0 W/m 10,6 C 11,4 C 0,0 km/h (0 Bft) 100,00 %
27.09.2017 23:58 11,4 C 13,3 C 95 % 1023,0 hPa 0,0 l/m 1,6 km/h (1 Bft) NO 48 0 min 0,000 mm 0,0 UV-I 0 W/m 10,6 C 11,4 C 3,2 km/h (1 Bft) 100,00 %
_ Min-Zeit 07:34 00:00 14:20 03:42 - 05:44 - - - - - - 07:34 01:30 05:44 01:02
Minimum _ 10,9 C 13,3 C 70 % 1021,5 hPa - 0,0 km/h (0 Bft) - - - - - - 10,0 C 8,8 C 0,0 km/h (0 Bft) 88,46 %
_ Max-Zeit 16:24 00:00 23:32 10:26 00:00 17:20 - - 18:23 14:00 12:52 12:24 17:12 13:32 01:26 00:20
Maximum _ 19,8 C 13,3 C 95 % 1023,0 hPa 0,0 l/m 18,0 km/h
O-NO (3 Bft)
- - 3 min 0,279 mm 3,3 UV-I 729 W/m 15,1 C 19,2 C 25,7 km/h
O-NO (4 Bft)
100,00 %
Durchschnitt _ 14,9 C 13,3 C 86 % 1022,2 hPa #0,0 l/m 6,2 km/h (2 Bft) O-NO - #7:26 h #2,032 mm 1,5 UV-I 242 W/m 12,5 C 14,2 C 9,8 km/h (2 Bft) 98,20 %